<?xml version="1.0" encoding="UTF-8"?>
<gpx xmlns:xsi="http://www.w3.org/2001/XMLSchema-instance" xsi:schemaLocation="http://www.topografix.com/GPX/1/1 http://www.topografix.com/GPX/1/1/gpx.xsd" creator="StravaGPX" version="1.1" xmlns="http://www.topografix.com/GPX/1/1">
 <metadata>
  <time>2025-11-08T12:16:35Z</time>
 </metadata>
 <trk>
  <name>Heuston Phoenix and Farmleigh</name>
  <type>walking</type>
  <trkseg>
   <trkpt lat="53.3465190" lon="-6.2916530">
    <ele>18.4</ele>
    <time>2025-11-08T12:16:35Z</time>
   </trkpt>
   <trkpt lat="53.3464850" lon="-6.2916030">
    <ele>8.9</ele>
    <time>2025-11-08T12:16:58Z</time>
   </trkpt>
   <trkpt lat="53.3464350" lon="-6.2916710">
    <ele>8.9</ele>
    <time>2025-11-08T12:17:03Z</time>
   </trkpt>
   <trkpt lat="53.3464280" lon="-6.2917470">
    <ele>6.9</ele>
    <time>2025-11-08T12:17:27Z</time>
   </trkpt>
   <trkpt lat="53.3464010" lon="-6.2918750">
    <ele>7.7</ele>
    <time>2025-11-08T12:17:32Z</time>
   </trkpt>
   <trkpt lat="53.3463580" lon="-6.2919780">
    <ele>9.1</ele>
    <time>2025-11-08T12:17:37Z</time>
   </trkpt>
   <trkpt lat="53.3463120" lon="-6.2920970">
    <ele>9.2</ele>
    <time>2025-11-08T12:17:43Z</time>
   </trkpt>
   <trkpt lat="53.3462600" lon="-6.2922170">
    <ele>8.8</ele>
    <time>2025-11-08T12:17:49Z</time>
   </trkpt>
   <trkpt lat="53.3462450" lon="-6.2923160">
    <ele>8.4</ele>
    <time>2025-11-08T12:17:54Z</time>
   </trkpt>
   <trkpt lat="53.3462230" lon="-6.2924400">
    <ele>8.1</ele>
    <time>2025-11-08T12:18:00Z</time>
   </trkpt>
   <trkpt lat="53.3462090" lon="-6.2925480">
    <ele>8.4</ele>
    <time>2025-11-08T12:18:05Z</time>
   </trkpt>
   <trkpt lat="53.3461920" lon="-6.2926530">
    <ele>8.5</ele>
    <time>2025-11-08T12:18:11Z</time>
   </trkpt>
   <trkpt lat="53.3461790" lon="-6.2927550">
    <ele>8.1</ele>
    <time>2025-11-08T12:18:17Z</time>
   </trkpt>
   <trkpt lat="53.3461630" lon="-6.2928640">
    <ele>7.9</ele>
    <time>2025-11-08T12:18:22Z</time>
   </trkpt>
   <trkpt lat="53.3461510" lon="-6.2929690">
    <ele>7.3</ele>
    <time>2025-11-08T12:18:28Z</time>
   </trkpt>
   <trkpt lat="53.3461340" lon="-6.2930920">
    <ele>7.0</ele>
    <time>2025-11-08T12:18:33Z</time>
   </trkpt>
   <trkpt lat="53.3461290" lon="-6.2932240">
    <ele>6.8</ele>
    <time>2025-11-08T12:18:38Z</time>
   </trkpt>
   <trkpt lat="53.3461280" lon="-6.2933670">
    <ele>6.7</ele>
    <time>2025-11-08T12:18:44Z</time>
   </trkpt>
   <trkpt lat="53.3461410" lon="-6.2934670">
    <ele>6.6</ele>
    <time>2025-11-08T12:18:49Z</time>
   </trkpt>
   <trkpt lat="53.3461340" lon="-6.2935690">
    <ele>6.6</ele>
    <time>2025-11-08T12:18:55Z</time>
   </trkpt>
   <trkpt lat="53.3460870" lon="-6.2935580">
    <ele>2.2</ele>
    <time>2025-11-08T12:20:13Z</time>
   </trkpt>
   <trkpt lat="53.3460240" lon="-6.2935520">
    <ele>2.3</ele>
    <time>2025-11-08T12:20:18Z</time>
   </trkpt>
   <trkpt lat="53.3459980" lon="-6.2934820">
    <ele>4.4</ele>
    <time>2025-11-08T12:20:23Z</time>
   </trkpt>
   <trkpt lat="53.3459480" lon="-6.2934570">
    <ele>5.3</ele>
    <time>2025-11-08T12:20:28Z</time>
   </trkpt>
   <trkpt lat="53.3459030" lon="-6.2935550">
    <ele>6.0</ele>
    <time>2025-11-08T12:20:33Z</time>
   </trkpt>
   <trkpt lat="53.3458910" lon="-6.2936740">
    <ele>7.2</ele>
    <time>2025-11-08T12:20:39Z</time>
   </trkpt>
   <trkpt lat="53.3458760" lon="-6.2937950">
    <ele>7.6</ele>
    <time>2025-11-08T12:20:44Z</time>
   </trkpt>
   <trkpt lat="53.3458650" lon="-6.2939030">
    <ele>7.8</ele>
    <time>2025-11-08T12:20:49Z</time>
   </trkpt>
   <trkpt lat="53.3458570" lon="-6.2940170">
    <ele>7.9</ele>
    <time>2025-11-08T12:20:55Z</time>
   </trkpt>
   <trkpt lat="53.3458560" lon="-6.2941270">
    <ele>8.0</ele>
    <time>2025-11-08T12:21:00Z</time>
   </trkpt>
   <trkpt lat="53.3458460" lon="-6.2942720">
    <ele>8.0</ele>
    <time>2025-11-08T12:21:06Z</time>
   </trkpt>
   <trkpt lat="53.3458430" lon="-6.2943950">
    <ele>8.1</ele>
    <time>2025-11-08T12:21:11Z</time>
   </trkpt>
   <trkpt lat="53.3458450" lon="-6.2945120">
    <ele>7.9</ele>
    <time>2025-11-08T12:21:17Z</time>
   </trkpt>
   <trkpt lat="53.3458460" lon="-6.2946330">
    <ele>7.8</ele>
    <time>2025-11-08T12:21:22Z</time>
   </trkpt>
   <trkpt lat="53.3458430" lon="-6.2947670">
    <ele>7.9</ele>
    <time>2025-11-08T12:21:28Z</time>
   </trkpt>
   <trkpt lat="53.3458410" lon="-6.2948850">
    <ele>8.0</ele>
    <time>2025-11-08T12:21:33Z</time>
   </trkpt>
   <trkpt lat="53.3458430" lon="-6.2950170">
    <ele>8.2</ele>
    <time>2025-11-08T12:21:39Z</time>
   </trkpt>
   <trkpt lat="53.3458390" lon="-6.2951280">
    <ele>8.3</ele>
    <time>2025-11-08T12:21:44Z</time>
   </trkpt>
   <trkpt lat="53.3458240" lon="-6.2952570">
    <ele>8.4</ele>
    <time>2025-11-08T12:21:50Z</time>
   </trkpt>
   <trkpt lat="53.3458170" lon="-6.2953730">
    <ele>8.4</ele>
    <time>2025-11-08T12:21:56Z</time>
   </trkpt>
   <trkpt lat="53.3458090" lon="-6.2955110">
    <ele>8.4</ele>
    <time>2025-11-08T12:22:01Z</time>
   </trkpt>
   <trkpt lat="53.3457880" lon="-6.2956590">
    <ele>8.5</ele>
    <time>2025-11-08T12:22:06Z</time>
   </trkpt>
   <trkpt lat="53.3457730" lon="-6.2957480">
    <ele>8.5</ele>
    <time>2025-11-08T12:22:13Z</time>
   </trkpt>
   <trkpt lat="53.3457580" lon="-6.2958740">
    <ele>8.5</ele>
    <time>2025-11-08T12:22:19Z</time>
   </trkpt>
   <trkpt lat="53.3457360" lon="-6.2959810">
    <ele>8.6</ele>
    <time>2025-11-08T12:22:24Z</time>
   </trkpt>
   <trkpt lat="53.3457220" lon="-6.2960710">
    <ele>8.4</ele>
    <time>2025-11-08T12:22:29Z</time>
   </trkpt>
   <trkpt lat="53.3457180" lon="-6.2961490">
    <ele>4.4</ele>
    <time>2025-11-08T12:23:17Z</time>
   </trkpt>
   <trkpt lat="53.3456880" lon="-6.2962620">
    <ele>5.5</ele>
    <time>2025-11-08T12:23:22Z</time>
   </trkpt>
   <trkpt lat="53.3456260" lon="-6.2963340">
    <ele>8.6</ele>
    <time>2025-11-08T12:23:28Z</time>
   </trkpt>
   <trkpt lat="53.3455560" lon="-6.2963790">
    <ele>9.4</ele>
    <time>2025-11-08T12:23:33Z</time>
   </trkpt>
   <trkpt lat="53.3454890" lon="-6.2964000">
    <ele>9.0</ele>
    <time>2025-11-08T12:23:38Z</time>
   </trkpt>
   <trkpt lat="53.3454100" lon="-6.2964180">
    <ele>8.7</ele>
    <time>2025-11-08T12:23:44Z</time>
   </trkpt>
   <trkpt lat="53.3453360" lon="-6.2964240">
    <ele>8.6</ele>
    <time>2025-11-08T12:23:49Z</time>
   </trkpt>
   <trkpt lat="53.3452550" lon="-6.2964460">
    <ele>8.5</ele>
    <time>2025-11-08T12:23:55Z</time>
   </trkpt>
   <trkpt lat="53.3451970" lon="-6.2964670">
    <ele>8.5</ele>
    <time>2025-11-08T12:24:00Z</time>
   </trkpt>
   <trkpt lat="53.3451100" lon="-6.2964280">
    <ele>8.5</ele>
    <time>2025-11-08T12:24:06Z</time>
   </trkpt>
   <trkpt lat="53.3450510" lon="-6.2964330">
    <ele>8.3</ele>
    <time>2025-11-08T12:24:11Z</time>
   </trkpt>
   <trkpt lat="53.3449750" lon="-6.2964180">
    <ele>8.3</ele>
    <time>2025-11-08T12:24:17Z</time>
   </trkpt>
   <trkpt lat="53.3448920" lon="-6.2964140">
    <ele>8.8</ele>
    <time>2025-11-08T12:24:22Z</time>
   </trkpt>
   <trkpt lat="53.3448290" lon="-6.2964350">
    <ele>8.8</ele>
    <time>2025-11-08T12:24:27Z</time>
   </trkpt>
   <trkpt lat="53.3447480" lon="-6.2964790">
    <ele>9.6</ele>
    <time>2025-11-08T12:24:33Z</time>
   </trkpt>
   <trkpt lat="53.3446890" lon="-6.2965470">
    <ele>10.7</ele>
    <time>2025-11-08T12:24:39Z</time>
   </trkpt>
   <trkpt lat="53.3446180" lon="-6.2965930">
    <ele>11.0</ele>
    <time>2025-11-08T12:24:44Z</time>
   </trkpt>
   <trkpt lat="53.3445440" lon="-6.2966340">
    <ele>10.9</ele>
    <time>2025-11-08T12:24:50Z</time>
   </trkpt>
   <trkpt lat="53.3444640" lon="-6.2966390">
    <ele>11.5</ele>
    <time>2025-11-08T12:24:55Z</time>
   </trkpt>
   <trkpt lat="53.3443910" lon="-6.2966970">
    <ele>11.7</ele>
    <time>2025-11-08T12:25:01Z</time>
   </trkpt>
   <trkpt lat="53.3443250" lon="-6.2967340">
    <ele>11.8</ele>
    <time>2025-11-08T12:25:06Z</time>
   </trkpt>
   <trkpt lat="53.3442380" lon="-6.2968010">
    <ele>11.9</ele>
    <time>2025-11-08T12:25:12Z</time>
   </trkpt>
   <trkpt lat="53.3441840" lon="-6.2968530">
    <ele>12.1</ele>
    <time>2025-11-08T12:25:17Z</time>
   </trkpt>
   <trkpt lat="53.3441280" lon="-6.2969020">
    <ele>12.2</ele>
    <time>2025-11-08T12:25:22Z</time>
   </trkpt>
   <trkpt lat="53.3440700" lon="-6.2969580">
    <ele>12.0</ele>
    <time>2025-11-08T12:25:27Z</time>
   </trkpt>
   <trkpt lat="53.3439990" lon="-6.2970320">
    <ele>12.1</ele>
    <time>2025-11-08T12:25:33Z</time>
   </trkpt>
   <trkpt lat="53.3439310" lon="-6.2970920">
    <ele>12.4</ele>
    <time>2025-11-08T12:25:38Z</time>
   </trkpt>
   <trkpt lat="53.3438660" lon="-6.2971290">
    <ele>12.5</ele>
    <time>2025-11-08T12:25:43Z</time>
   </trkpt>
   <trkpt lat="53.3438170" lon="-6.2971970">
    <ele>12.7</ele>
    <time>2025-11-08T12:25:49Z</time>
   </trkpt>
   <trkpt lat="53.3437430" lon="-6.2972450">
    <ele>13.5</ele>
    <time>2025-11-08T12:25:54Z</time>
   </trkpt>
   <trkpt lat="53.3436830" lon="-6.2972920">
    <ele>13.8</ele>
    <time>2025-11-08T12:26:00Z</time>
   </trkpt>
   <trkpt lat="53.3436350" lon="-6.2973700">
    <ele>14.0</ele>
    <time>2025-11-08T12:26:05Z</time>
   </trkpt>
   <trkpt lat="53.3435820" lon="-6.2974430">
    <ele>15.1</ele>
    <time>2025-11-08T12:26:11Z</time>
   </trkpt>
   <trkpt lat="53.3435200" lon="-6.2974840">
    <ele>15.3</ele>
    <time>2025-11-08T12:26:16Z</time>
   </trkpt>
   <trkpt lat="53.3434630" lon="-6.2975120">
    <ele>14.5</ele>
    <time>2025-11-08T12:26:21Z</time>
   </trkpt>
   <trkpt lat="53.3434390" lon="-6.2975780">
    <ele>14.8</ele>
    <time>2025-11-08T12:26:28Z</time>
   </trkpt>
   <trkpt lat="53.3434070" lon="-6.2976630">
    <ele>14.4</ele>
    <time>2025-11-08T12:26:33Z</time>
   </trkpt>
   <trkpt lat="53.3433540" lon="-6.2977450">
    <ele>15.3</ele>
    <time>2025-11-08T12:26:38Z</time>
   </trkpt>
   <trkpt lat="53.3433340" lon="-6.2978120">
    <ele>15.9</ele>
    <time>2025-11-08T12:26:43Z</time>
   </trkpt>
   <trkpt lat="53.3433100" lon="-6.2979000">
    <ele>16.1</ele>
    <time>2025-11-08T12:26:49Z</time>
   </trkpt>
   <trkpt lat="53.3432860" lon="-6.2979850">
    <ele>16.2</ele>
    <time>2025-11-08T12:26:54Z</time>
   </trkpt>
   <trkpt lat="53.3432680" lon="-6.2980550">
    <ele>16.2</ele>
    <time>2025-11-08T12:26:59Z</time>
   </trkpt>
   <trkpt lat="53.3432500" lon="-6.2981670">
    <ele>16.3</ele>
    <time>2025-11-08T12:27:05Z</time>
   </trkpt>
   <trkpt lat="53.3432340" lon="-6.2982670">
    <ele>16.7</ele>
    <time>2025-11-08T12:27:10Z</time>
   </trkpt>
   <trkpt lat="53.3432170" lon="-6.2983720">
    <ele>16.4</ele>
    <time>2025-11-08T12:27:15Z</time>
   </trkpt>
   <trkpt lat="53.3431980" lon="-6.2984690">
    <ele>16.8</ele>
    <time>2025-11-08T12:27:20Z</time>
   </trkpt>
   <trkpt lat="53.3431690" lon="-6.2985580">
    <ele>16.8</ele>
    <time>2025-11-08T12:27:25Z</time>
   </trkpt>
   <trkpt lat="53.3431420" lon="-6.2986650">
    <ele>17.1</ele>
    <time>2025-11-08T12:27:30Z</time>
   </trkpt>
   <trkpt lat="53.3431250" lon="-6.2987780">
    <ele>17.3</ele>
    <time>2025-11-08T12:27:36Z</time>
   </trkpt>
   <trkpt lat="53.3431150" lon="-6.2988710">
    <ele>16.7</ele>
    <time>2025-11-08T12:27:41Z</time>
   </trkpt>
   <trkpt lat="53.3430860" lon="-6.2989450">
    <ele>16.5</ele>
    <time>2025-11-08T12:27:46Z</time>
   </trkpt>
   <trkpt lat="53.3430680" lon="-6.2990210">
    <ele>15.4</ele>
    <time>2025-11-08T12:27:52Z</time>
   </trkpt>
   <trkpt lat="53.3430740" lon="-6.2990980">
    <ele>14.0</ele>
    <time>2025-11-08T12:28:10Z</time>
   </trkpt>
   <trkpt lat="53.3430670" lon="-6.2992150">
    <ele>16.0</ele>
    <time>2025-11-08T12:28:16Z</time>
   </trkpt>
   <trkpt lat="53.3430320" lon="-6.2992940">
    <ele>15.2</ele>
    <time>2025-11-08T12:28:25Z</time>
   </trkpt>
   <trkpt lat="53.3430030" lon="-6.2993810">
    <ele>16.0</ele>
    <time>2025-11-08T12:28:30Z</time>
   </trkpt>
   <trkpt lat="53.3430290" lon="-6.2995290">
    <ele>16.3</ele>
    <time>2025-11-08T12:28:39Z</time>
   </trkpt>
   <trkpt lat="53.3430340" lon="-6.2996370">
    <ele>17.7</ele>
    <time>2025-11-08T12:28:44Z</time>
   </trkpt>
   <trkpt lat="53.3429920" lon="-6.2997390">
    <ele>17.9</ele>
    <time>2025-11-08T12:28:50Z</time>
   </trkpt>
   <trkpt lat="53.3429840" lon="-6.2998330">
    <ele>18.4</ele>
    <time>2025-11-08T12:28:55Z</time>
   </trkpt>
   <trkpt lat="53.3429660" lon="-6.2999860">
    <ele>18.8</ele>
    <time>2025-11-08T12:29:01Z</time>
   </trkpt>
   <trkpt lat="53.3429470" lon="-6.3001070">
    <ele>18.9</ele>
    <time>2025-11-08T12:29:06Z</time>
   </trkpt>
   <trkpt lat="53.3429190" lon="-6.3002440">
    <ele>19.0</ele>
    <time>2025-11-08T12:29:12Z</time>
   </trkpt>
   <trkpt lat="53.3429130" lon="-6.3003760">
    <ele>18.5</ele>
    <time>2025-11-08T12:29:18Z</time>
   </trkpt>
   <trkpt lat="53.3429080" lon="-6.3004890">
    <ele>17.8</ele>
    <time>2025-11-08T12:29:23Z</time>
   </trkpt>
   <trkpt lat="53.3429170" lon="-6.3005850">
    <ele>17.3</ele>
    <time>2025-11-08T12:29:28Z</time>
   </trkpt>
   <trkpt lat="53.3429110" lon="-6.3006710">
    <ele>15.4</ele>
    <time>2025-11-08T12:29:45Z</time>
   </trkpt>
   <trkpt lat="53.3429530" lon="-6.3007590">
    <ele>16.3</ele>
    <time>2025-11-08T12:29:51Z</time>
   </trkpt>
   <trkpt lat="53.3430220" lon="-6.3007840">
    <ele>17.1</ele>
    <time>2025-11-08T12:29:57Z</time>
   </trkpt>
   <trkpt lat="53.3430790" lon="-6.3007990">
    <ele>17.3</ele>
    <time>2025-11-08T12:30:02Z</time>
   </trkpt>
   <trkpt lat="53.3431480" lon="-6.3008100">
    <ele>17.3</ele>
    <time>2025-11-08T12:30:08Z</time>
   </trkpt>
   <trkpt lat="53.3432180" lon="-6.3008150">
    <ele>17.4</ele>
    <time>2025-11-08T12:30:13Z</time>
   </trkpt>
   <trkpt lat="53.3432840" lon="-6.3008280">
    <ele>18.0</ele>
    <time>2025-11-08T12:30:19Z</time>
   </trkpt>
   <trkpt lat="53.3433310" lon="-6.3008400">
    <ele>18.0</ele>
    <time>2025-11-08T12:30:25Z</time>
   </trkpt>
   <trkpt lat="53.3433660" lon="-6.3007150">
    <ele>17.7</ele>
    <time>2025-11-08T12:30:31Z</time>
   </trkpt>
   <trkpt lat="53.3433690" lon="-6.3005820">
    <ele>18.1</ele>
    <time>2025-11-08T12:30:37Z</time>
   </trkpt>
   <trkpt lat="53.3433780" lon="-6.3004710">
    <ele>18.4</ele>
    <time>2025-11-08T12:30:42Z</time>
   </trkpt>
   <trkpt lat="53.3434040" lon="-6.3003940">
    <ele>18.7</ele>
    <time>2025-11-08T12:30:50Z</time>
   </trkpt>
   <trkpt lat="53.3434510" lon="-6.3003190">
    <ele>18.3</ele>
    <time>2025-11-08T12:30:55Z</time>
   </trkpt>
   <trkpt lat="53.3435060" lon="-6.3003030">
    <ele>17.5</ele>
    <time>2025-11-08T12:31:00Z</time>
   </trkpt>
   <trkpt lat="53.3435330" lon="-6.3003710">
    <ele>15.1</ele>
    <time>2025-11-08T12:31:18Z</time>
   </trkpt>
   <trkpt lat="53.3435470" lon="-6.3002940">
    <ele>13.8</ele>
    <time>2025-11-08T12:31:37Z</time>
   </trkpt>
   <trkpt lat="53.3435930" lon="-6.3002770">
    <ele>15.7</ele>
    <time>2025-11-08T12:31:48Z</time>
   </trkpt>
   <trkpt lat="53.3436620" lon="-6.3002650">
    <ele>16.1</ele>
    <time>2025-11-08T12:31:53Z</time>
   </trkpt>
   <trkpt lat="53.3437410" lon="-6.3002890">
    <ele>15.6</ele>
    <time>2025-11-08T12:31:58Z</time>
   </trkpt>
   <trkpt lat="53.3437710" lon="-6.3003480">
    <ele>14.9</ele>
    <time>2025-11-08T12:32:04Z</time>
   </trkpt>
   <trkpt lat="53.3438060" lon="-6.3002970">
    <ele>11.8</ele>
    <time>2025-11-08T12:32:18Z</time>
   </trkpt>
   <trkpt lat="53.3438510" lon="-6.3003140">
    <ele>11.8</ele>
    <time>2025-11-08T12:32:24Z</time>
   </trkpt>
   <trkpt lat="53.3439130" lon="-6.3003380">
    <ele>12.3</ele>
    <time>2025-11-08T12:32:29Z</time>
   </trkpt>
   <trkpt lat="53.3439590" lon="-6.3003400">
    <ele>10.0</ele>
    <time>2025-11-08T12:32:48Z</time>
   </trkpt>
   <trkpt lat="53.3440080" lon="-6.3003440">
    <ele>8.7</ele>
    <time>2025-11-08T12:33:03Z</time>
   </trkpt>
   <trkpt lat="53.3441320" lon="-6.3003620">
    <ele>9.9</ele>
    <time>2025-11-08T12:33:09Z</time>
   </trkpt>
   <trkpt lat="53.3442120" lon="-6.3003980">
    <ele>11.6</ele>
    <time>2025-11-08T12:33:14Z</time>
   </trkpt>
   <trkpt lat="53.3442970" lon="-6.3004640">
    <ele>13.1</ele>
    <time>2025-11-08T12:33:20Z</time>
   </trkpt>
   <trkpt lat="53.3443360" lon="-6.3005800">
    <ele>13.4</ele>
    <time>2025-11-08T12:33:25Z</time>
   </trkpt>
   <trkpt lat="53.3443370" lon="-6.3007240">
    <ele>12.9</ele>
    <time>2025-11-08T12:33:31Z</time>
   </trkpt>
   <trkpt lat="53.3443190" lon="-6.3008650">
    <ele>12.6</ele>
    <time>2025-11-08T12:33:37Z</time>
   </trkpt>
   <trkpt lat="53.3443010" lon="-6.3009760">
    <ele>12.7</ele>
    <time>2025-11-08T12:33:42Z</time>
   </trkpt>
   <trkpt lat="53.3442840" lon="-6.3010770">
    <ele>13.1</ele>
    <time>2025-11-08T12:33:48Z</time>
   </trkpt>
   <trkpt lat="53.3442760" lon="-6.3011580">
    <ele>12.8</ele>
    <time>2025-11-08T12:33:53Z</time>
   </trkpt>
   <trkpt lat="53.3442690" lon="-6.3012440">
    <ele>12.3</ele>
    <time>2025-11-08T12:33:58Z</time>
   </trkpt>
   <trkpt lat="53.3442620" lon="-6.3013370">
    <ele>11.0</ele>
    <time>2025-11-08T12:34:11Z</time>
   </trkpt>
   <trkpt lat="53.3442280" lon="-6.3014990">
    <ele>12.1</ele>
    <time>2025-11-08T12:34:17Z</time>
   </trkpt>
   <trkpt lat="53.3442190" lon="-6.3016380">
    <ele>13.3</ele>
    <time>2025-11-08T12:34:22Z</time>
   </trkpt>
   <trkpt lat="53.3442000" lon="-6.3017400">
    <ele>13.7</ele>
    <time>2025-11-08T12:34:28Z</time>
   </trkpt>
   <trkpt lat="53.3441470" lon="-6.3018330">
    <ele>13.2</ele>
    <time>2025-11-08T12:34:33Z</time>
   </trkpt>
   <trkpt lat="53.3441090" lon="-6.3019750">
    <ele>13.8</ele>
    <time>2025-11-08T12:34:39Z</time>
   </trkpt>
   <trkpt lat="53.3440870" lon="-6.3020900">
    <ele>13.7</ele>
    <time>2025-11-08T12:34:44Z</time>
   </trkpt>
   <trkpt lat="53.3440590" lon="-6.3022110">
    <ele>13.4</ele>
    <time>2025-11-08T12:34:50Z</time>
   </trkpt>
   <trkpt lat="53.3440290" lon="-6.3023280">
    <ele>13.3</ele>
    <time>2025-11-08T12:34:55Z</time>
   </trkpt>
   <trkpt lat="53.3440070" lon="-6.3024530">
    <ele>13.1</ele>
    <time>2025-11-08T12:35:01Z</time>
   </trkpt>
   <trkpt lat="53.3439930" lon="-6.3025720">
    <ele>13.2</ele>
    <time>2025-11-08T12:35:06Z</time>
   </trkpt>
   <trkpt lat="53.3439720" lon="-6.3027160">
    <ele>13.4</ele>
    <time>2025-11-08T12:35:12Z</time>
   </trkpt>
   <trkpt lat="53.3439250" lon="-6.3028240">
    <ele>12.3</ele>
    <time>2025-11-08T12:35:17Z</time>
   </trkpt>
   <trkpt lat="53.3438560" lon="-6.3028790">
    <ele>11.0</ele>
    <time>2025-11-08T12:35:23Z</time>
   </trkpt>
   <trkpt lat="53.3438020" lon="-6.3028980">
    <ele>10.7</ele>
    <time>2025-11-08T12:35:28Z</time>
   </trkpt>
   <trkpt lat="53.3437370" lon="-6.3028900">
    <ele>13.9</ele>
    <time>2025-11-08T12:35:33Z</time>
   </trkpt>
   <trkpt lat="53.3436670" lon="-6.3028840">
    <ele>16.0</ele>
    <time>2025-11-08T12:35:38Z</time>
   </trkpt>
   <trkpt lat="53.3436180" lon="-6.3028610">
    <ele>16.7</ele>
    <time>2025-11-08T12:35:44Z</time>
   </trkpt>
   <trkpt lat="53.3435690" lon="-6.3028710">
    <ele>15.6</ele>
    <time>2025-11-08T12:36:06Z</time>
   </trkpt>
   <trkpt lat="53.3435020" lon="-6.3028780">
    <ele>18.4</ele>
    <time>2025-11-08T12:36:11Z</time>
   </trkpt>
   <trkpt lat="53.3434260" lon="-6.3029060">
    <ele>19.4</ele>
    <time>2025-11-08T12:36:17Z</time>
   </trkpt>
   <trkpt lat="53.3433660" lon="-6.3029990">
    <ele>21.0</ele>
    <time>2025-11-08T12:36:22Z</time>
   </trkpt>
   <trkpt lat="53.3433320" lon="-6.3031040">
    <ele>21.2</ele>
    <time>2025-11-08T12:36:27Z</time>
   </trkpt>
   <trkpt lat="53.3433020" lon="-6.3032080">
    <ele>20.8</ele>
    <time>2025-11-08T12:36:32Z</time>
   </trkpt>
   <trkpt lat="53.3432620" lon="-6.3032960">
    <ele>20.6</ele>
    <time>2025-11-08T12:36:38Z</time>
   </trkpt>
   <trkpt lat="53.3432190" lon="-6.3033930">
    <ele>21.6</ele>
    <time>2025-11-08T12:36:43Z</time>
   </trkpt>
   <trkpt lat="53.3431750" lon="-6.3034850">
    <ele>22.2</ele>
    <time>2025-11-08T12:36:48Z</time>
   </trkpt>
   <trkpt lat="53.3431370" lon="-6.3035730">
    <ele>22.5</ele>
    <time>2025-11-08T12:36:53Z</time>
   </trkpt>
   <trkpt lat="53.3431010" lon="-6.3036840">
    <ele>22.6</ele>
    <time>2025-11-08T12:36:59Z</time>
   </trkpt>
   <trkpt lat="53.3430720" lon="-6.3037900">
    <ele>22.8</ele>
    <time>2025-11-08T12:37:05Z</time>
   </trkpt>
   <trkpt lat="53.3430490" lon="-6.3038960">
    <ele>22.4</ele>
    <time>2025-11-08T12:37:10Z</time>
   </trkpt>
   <trkpt lat="53.3430090" lon="-6.3040010">
    <ele>21.5</ele>
    <time>2025-11-08T12:37:16Z</time>
   </trkpt>
   <trkpt lat="53.3429700" lon="-6.3040870">
    <ele>21.3</ele>
    <time>2025-11-08T12:37:21Z</time>
   </trkpt>
   <trkpt lat="53.3429280" lon="-6.3041680">
    <ele>21.5</ele>
    <time>2025-11-08T12:37:26Z</time>
   </trkpt>
   <trkpt lat="53.3428740" lon="-6.3042670">
    <ele>21.9</ele>
    <time>2025-11-08T12:37:32Z</time>
   </trkpt>
   <trkpt lat="53.3428290" lon="-6.3043870">
    <ele>22.3</ele>
    <time>2025-11-08T12:37:37Z</time>
   </trkpt>
   <trkpt lat="53.3427950" lon="-6.3044800">
    <ele>22.5</ele>
    <time>2025-11-08T12:37:42Z</time>
   </trkpt>
   <trkpt lat="53.3427570" lon="-6.3045810">
    <ele>22.6</ele>
    <time>2025-11-08T12:37:47Z</time>
   </trkpt>
   <trkpt lat="53.3427190" lon="-6.3046870">
    <ele>22.7</ele>
    <time>2025-11-08T12:37:53Z</time>
   </trkpt>
   <trkpt lat="53.3426800" lon="-6.3048020">
    <ele>21.4</ele>
    <time>2025-11-08T12:37:58Z</time>
   </trkpt>
   <trkpt lat="53.3426370" lon="-6.3049010">
    <ele>21.5</ele>
    <time>2025-11-08T12:38:04Z</time>
   </trkpt>
   <trkpt lat="53.3425960" lon="-6.3050000">
    <ele>21.8</ele>
    <time>2025-11-08T12:38:09Z</time>
   </trkpt>
   <trkpt lat="53.3425580" lon="-6.3050850">
    <ele>22.1</ele>
    <time>2025-11-08T12:38:14Z</time>
   </trkpt>
   <trkpt lat="53.3425070" lon="-6.3051550">
    <ele>22.5</ele>
    <time>2025-11-08T12:38:19Z</time>
   </trkpt>
   <trkpt lat="53.3424420" lon="-6.3051760">
    <ele>24.0</ele>
    <time>2025-11-08T12:38:25Z</time>
   </trkpt>
   <trkpt lat="53.3423700" lon="-6.3051940">
    <ele>25.4</ele>
    <time>2025-11-08T12:38:30Z</time>
   </trkpt>
   <trkpt lat="53.3423360" lon="-6.3052870">
    <ele>26.1</ele>
    <time>2025-11-08T12:38:35Z</time>
   </trkpt>
   <trkpt lat="53.3423220" lon="-6.3053840">
    <ele>24.5</ele>
    <time>2025-11-08T12:38:41Z</time>
   </trkpt>
   <trkpt lat="53.3423000" lon="-6.3054940">
    <ele>24.1</ele>
    <time>2025-11-08T12:38:46Z</time>
   </trkpt>
   <trkpt lat="53.3422920" lon="-6.3055960">
    <ele>23.5</ele>
    <time>2025-11-08T12:38:52Z</time>
   </trkpt>
   <trkpt lat="53.3422800" lon="-6.3057150">
    <ele>23.1</ele>
    <time>2025-11-08T12:38:57Z</time>
   </trkpt>
   <trkpt lat="53.3422680" lon="-6.3058310">
    <ele>23.0</ele>
    <time>2025-11-08T12:39:03Z</time>
   </trkpt>
   <trkpt lat="53.3422580" lon="-6.3059420">
    <ele>22.8</ele>
    <time>2025-11-08T12:39:08Z</time>
   </trkpt>
   <trkpt lat="53.3422460" lon="-6.3060480">
    <ele>22.9</ele>
    <time>2025-11-08T12:39:14Z</time>
   </trkpt>
   <trkpt lat="53.3422340" lon="-6.3061680">
    <ele>22.9</ele>
    <time>2025-11-08T12:39:19Z</time>
   </trkpt>
   <trkpt lat="53.3422170" lon="-6.3062870">
    <ele>22.1</ele>
    <time>2025-11-08T12:39:25Z</time>
   </trkpt>
   <trkpt lat="53.3421990" lon="-6.3064170">
    <ele>22.3</ele>
    <time>2025-11-08T12:39:30Z</time>
   </trkpt>
   <trkpt lat="53.3421870" lon="-6.3065220">
    <ele>22.3</ele>
    <time>2025-11-08T12:39:36Z</time>
   </trkpt>
   <trkpt lat="53.3421700" lon="-6.3066350">
    <ele>22.6</ele>
    <time>2025-11-08T12:39:41Z</time>
   </trkpt>
   <trkpt lat="53.3421530" lon="-6.3067510">
    <ele>22.7</ele>
    <time>2025-11-08T12:39:46Z</time>
   </trkpt>
   <trkpt lat="53.3421370" lon="-6.3068360">
    <ele>21.8</ele>
    <time>2025-11-08T12:39:52Z</time>
   </trkpt>
   <trkpt lat="53.3421340" lon="-6.3069560">
    <ele>22.0</ele>
    <time>2025-11-08T12:39:57Z</time>
   </trkpt>
   <trkpt lat="53.3421160" lon="-6.3070690">
    <ele>22.3</ele>
    <time>2025-11-08T12:40:03Z</time>
   </trkpt>
   <trkpt lat="53.3421020" lon="-6.3072000">
    <ele>22.5</ele>
    <time>2025-11-08T12:40:08Z</time>
   </trkpt>
   <trkpt lat="53.3420920" lon="-6.3073070">
    <ele>22.2</ele>
    <time>2025-11-08T12:40:13Z</time>
   </trkpt>
   <trkpt lat="53.3420820" lon="-6.3074250">
    <ele>22.0</ele>
    <time>2025-11-08T12:40:18Z</time>
   </trkpt>
   <trkpt lat="53.3420720" lon="-6.3075500">
    <ele>21.8</ele>
    <time>2025-11-08T12:40:24Z</time>
   </trkpt>
   <trkpt lat="53.3420580" lon="-6.3076510">
    <ele>22.0</ele>
    <time>2025-11-08T12:40:29Z</time>
   </trkpt>
   <trkpt lat="53.3420600" lon="-6.3077640">
    <ele>22.4</ele>
    <time>2025-11-08T12:40:35Z</time>
   </trkpt>
   <trkpt lat="53.3420650" lon="-6.3076790">
    <ele>18.7</ele>
    <time>2025-11-08T12:41:05Z</time>
   </trkpt>
   <trkpt lat="53.3420540" lon="-6.3077750">
    <ele>18.7</ele>
    <time>2025-11-08T12:41:19Z</time>
   </trkpt>
   <trkpt lat="53.3420250" lon="-6.3079400">
    <ele>20.1</ele>
    <time>2025-11-08T12:41:24Z</time>
   </trkpt>
   <trkpt lat="53.3420540" lon="-6.3080820">
    <ele>21.6</ele>
    <time>2025-11-08T12:41:30Z</time>
   </trkpt>
   <trkpt lat="53.3420910" lon="-6.3082150">
    <ele>22.1</ele>
    <time>2025-11-08T12:41:36Z</time>
   </trkpt>
   <trkpt lat="53.3421150" lon="-6.3083000">
    <ele>22.5</ele>
    <time>2025-11-08T12:41:41Z</time>
   </trkpt>
   <trkpt lat="53.3421180" lon="-6.3084290">
    <ele>22.9</ele>
    <time>2025-11-08T12:41:47Z</time>
   </trkpt>
   <trkpt lat="53.3421210" lon="-6.3085550">
    <ele>23.1</ele>
    <time>2025-11-08T12:41:52Z</time>
   </trkpt>
   <trkpt lat="53.3421310" lon="-6.3086610">
    <ele>23.2</ele>
    <time>2025-11-08T12:41:57Z</time>
   </trkpt>
   <trkpt lat="53.3421520" lon="-6.3087820">
    <ele>23.2</ele>
    <time>2025-11-08T12:42:03Z</time>
   </trkpt>
   <trkpt lat="53.3421750" lon="-6.3088780">
    <ele>23.3</ele>
    <time>2025-11-08T12:42:08Z</time>
   </trkpt>
   <trkpt lat="53.3421860" lon="-6.3090070">
    <ele>23.4</ele>
    <time>2025-11-08T12:42:13Z</time>
   </trkpt>
   <trkpt lat="53.3421530" lon="-6.3091470">
    <ele>23.7</ele>
    <time>2025-11-08T12:42:18Z</time>
   </trkpt>
   <trkpt lat="53.3421590" lon="-6.3092340">
    <ele>23.7</ele>
    <time>2025-11-08T12:42:24Z</time>
   </trkpt>
   <trkpt lat="53.3422770" lon="-6.3091360">
    <ele>22.1</ele>
    <time>2025-11-08T12:42:29Z</time>
   </trkpt>
   <trkpt lat="53.3423260" lon="-6.3092180">
    <ele>21.8</ele>
    <time>2025-11-08T12:42:35Z</time>
   </trkpt>
   <trkpt lat="53.3423490" lon="-6.3093480">
    <ele>23.0</ele>
    <time>2025-11-08T12:42:40Z</time>
   </trkpt>
   <trkpt lat="53.3422420" lon="-6.3095970">
    <ele>23.6</ele>
    <time>2025-11-08T12:42:46Z</time>
   </trkpt>
   <trkpt lat="53.3422340" lon="-6.3097400">
    <ele>24.0</ele>
    <time>2025-11-08T12:42:51Z</time>
   </trkpt>
   <trkpt lat="53.3422190" lon="-6.3098540">
    <ele>24.2</ele>
    <time>2025-11-08T12:42:57Z</time>
   </trkpt>
   <trkpt lat="53.3422230" lon="-6.3099630">
    <ele>24.1</ele>
    <time>2025-11-08T12:43:02Z</time>
   </trkpt>
   <trkpt lat="53.3422330" lon="-6.3100720">
    <ele>24.2</ele>
    <time>2025-11-08T12:43:08Z</time>
   </trkpt>
   <trkpt lat="53.3422820" lon="-6.3101720">
    <ele>24.4</ele>
    <time>2025-11-08T12:43:14Z</time>
   </trkpt>
   <trkpt lat="53.3423210" lon="-6.3102350">
    <ele>23.8</ele>
    <time>2025-11-08T12:43:19Z</time>
   </trkpt>
   <trkpt lat="53.3423670" lon="-6.3102330">
    <ele>20.0</ele>
    <time>2025-11-08T12:44:26Z</time>
   </trkpt>
   <trkpt lat="53.3423780" lon="-6.3101510">
    <ele>21.8</ele>
    <time>2025-11-08T12:44:47Z</time>
   </trkpt>
   <trkpt lat="53.3423260" lon="-6.3102170">
    <ele>22.7</ele>
    <time>2025-11-08T12:44:52Z</time>
   </trkpt>
   <trkpt lat="53.3422830" lon="-6.3102980">
    <ele>23.6</ele>
    <time>2025-11-08T12:44:58Z</time>
   </trkpt>
   <trkpt lat="53.3422600" lon="-6.3103970">
    <ele>24.3</ele>
    <time>2025-11-08T12:45:03Z</time>
   </trkpt>
   <trkpt lat="53.3422310" lon="-6.3104900">
    <ele>25.0</ele>
    <time>2025-11-08T12:45:08Z</time>
   </trkpt>
   <trkpt lat="53.3422220" lon="-6.3105930">
    <ele>24.7</ele>
    <time>2025-11-08T12:45:13Z</time>
   </trkpt>
   <trkpt lat="53.3422570" lon="-6.3106740">
    <ele>24.2</ele>
    <time>2025-11-08T12:45:20Z</time>
   </trkpt>
   <trkpt lat="53.3422770" lon="-6.3107910">
    <ele>24.0</ele>
    <time>2025-11-08T12:45:26Z</time>
   </trkpt>
   <trkpt lat="53.3422830" lon="-6.3109030">
    <ele>24.1</ele>
    <time>2025-11-08T12:45:31Z</time>
   </trkpt>
   <trkpt lat="53.3422930" lon="-6.3110460">
    <ele>23.8</ele>
    <time>2025-11-08T12:45:37Z</time>
   </trkpt>
   <trkpt lat="53.3423020" lon="-6.3111470">
    <ele>23.6</ele>
    <time>2025-11-08T12:45:42Z</time>
   </trkpt>
   <trkpt lat="53.3423210" lon="-6.3112350">
    <ele>23.4</ele>
    <time>2025-11-08T12:45:48Z</time>
   </trkpt>
   <trkpt lat="53.3423350" lon="-6.3113230">
    <ele>23.3</ele>
    <time>2025-11-08T12:45:54Z</time>
   </trkpt>
   <trkpt lat="53.3423510" lon="-6.3114340">
    <ele>23.2</ele>
    <time>2025-11-08T12:45:59Z</time>
   </trkpt>
   <trkpt lat="53.3423750" lon="-6.3115720">
    <ele>22.9</ele>
    <time>2025-11-08T12:46:05Z</time>
   </trkpt>
   <trkpt lat="53.3423380" lon="-6.3117510">
    <ele>22.9</ele>
    <time>2025-11-08T12:46:10Z</time>
   </trkpt>
   <trkpt lat="53.3423470" lon="-6.3118400">
    <ele>22.8</ele>
    <time>2025-11-08T12:46:16Z</time>
   </trkpt>
   <trkpt lat="53.3423550" lon="-6.3119220">
    <ele>22.9</ele>
    <time>2025-11-08T12:46:21Z</time>
   </trkpt>
   <trkpt lat="53.3423590" lon="-6.3120300">
    <ele>23.2</ele>
    <time>2025-11-08T12:46:26Z</time>
   </trkpt>
   <trkpt lat="53.3423730" lon="-6.3122150">
    <ele>22.9</ele>
    <time>2025-11-08T12:46:32Z</time>
   </trkpt>
   <trkpt lat="53.3424030" lon="-6.3123290">
    <ele>22.7</ele>
    <time>2025-11-08T12:46:37Z</time>
   </trkpt>
   <trkpt lat="53.3424180" lon="-6.3124300">
    <ele>22.6</ele>
    <time>2025-11-08T12:46:43Z</time>
   </trkpt>
   <trkpt lat="53.3424310" lon="-6.3125400">
    <ele>22.6</ele>
    <time>2025-11-08T12:46:48Z</time>
   </trkpt>
   <trkpt lat="53.3424350" lon="-6.3126550">
    <ele>22.6</ele>
    <time>2025-11-08T12:46:53Z</time>
   </trkpt>
   <trkpt lat="53.3424390" lon="-6.3127530">
    <ele>22.6</ele>
    <time>2025-11-08T12:46:59Z</time>
   </trkpt>
   <trkpt lat="53.3424410" lon="-6.3128560">
    <ele>22.6</ele>
    <time>2025-11-08T12:47:04Z</time>
   </trkpt>
   <trkpt lat="53.3424360" lon="-6.3129820">
    <ele>22.6</ele>
    <time>2025-11-08T12:47:09Z</time>
   </trkpt>
   <trkpt lat="53.3424430" lon="-6.3130850">
    <ele>22.6</ele>
    <time>2025-11-08T12:47:15Z</time>
   </trkpt>
   <trkpt lat="53.3424490" lon="-6.3131720">
    <ele>22.6</ele>
    <time>2025-11-08T12:47:20Z</time>
   </trkpt>
   <trkpt lat="53.3424380" lon="-6.3132920">
    <ele>22.6</ele>
    <time>2025-11-08T12:47:26Z</time>
   </trkpt>
   <trkpt lat="53.3424290" lon="-6.3134300">
    <ele>22.6</ele>
    <time>2025-11-08T12:47:31Z</time>
   </trkpt>
   <trkpt lat="53.3424150" lon="-6.3135870">
    <ele>22.6</ele>
    <time>2025-11-08T12:47:36Z</time>
   </trkpt>
   <trkpt lat="53.3424070" lon="-6.3136970">
    <ele>22.6</ele>
    <time>2025-11-08T12:47:41Z</time>
   </trkpt>
   <trkpt lat="53.3423880" lon="-6.3138330">
    <ele>22.9</ele>
    <time>2025-11-08T12:47:47Z</time>
   </trkpt>
   <trkpt lat="53.3423620" lon="-6.3139810">
    <ele>23.1</ele>
    <time>2025-11-08T12:47:52Z</time>
   </trkpt>
   <trkpt lat="53.3423450" lon="-6.3140760">
    <ele>23.3</ele>
    <time>2025-11-08T12:47:58Z</time>
   </trkpt>
   <trkpt lat="53.3423240" lon="-6.3141750">
    <ele>23.5</ele>
    <time>2025-11-08T12:48:03Z</time>
   </trkpt>
   <trkpt lat="53.3422850" lon="-6.3143160">
    <ele>23.6</ele>
    <time>2025-11-08T12:48:09Z</time>
   </trkpt>
   <trkpt lat="53.3422540" lon="-6.3144200">
    <ele>23.7</ele>
    <time>2025-11-08T12:48:15Z</time>
   </trkpt>
   <trkpt lat="53.3422240" lon="-6.3145360">
    <ele>23.7</ele>
    <time>2025-11-08T12:48:20Z</time>
   </trkpt>
   <trkpt lat="53.3422040" lon="-6.3146470">
    <ele>23.9</ele>
    <time>2025-11-08T12:48:25Z</time>
   </trkpt>
   <trkpt lat="53.3421790" lon="-6.3147750">
    <ele>24.1</ele>
    <time>2025-11-08T12:48:31Z</time>
   </trkpt>
   <trkpt lat="53.3421510" lon="-6.3148920">
    <ele>24.2</ele>
    <time>2025-11-08T12:48:36Z</time>
   </trkpt>
   <trkpt lat="53.3421200" lon="-6.3150410">
    <ele>24.3</ele>
    <time>2025-11-08T12:48:42Z</time>
   </trkpt>
   <trkpt lat="53.3421000" lon="-6.3151670">
    <ele>24.3</ele>
    <time>2025-11-08T12:48:47Z</time>
   </trkpt>
   <trkpt lat="53.3420800" lon="-6.3152460">
    <ele>24.3</ele>
    <time>2025-11-08T12:48:52Z</time>
   </trkpt>
   <trkpt lat="53.3420670" lon="-6.3153670">
    <ele>24.4</ele>
    <time>2025-11-08T12:48:57Z</time>
   </trkpt>
   <trkpt lat="53.3420460" lon="-6.3155020">
    <ele>24.4</ele>
    <time>2025-11-08T12:49:03Z</time>
   </trkpt>
   <trkpt lat="53.3420440" lon="-6.3155960">
    <ele>24.4</ele>
    <time>2025-11-08T12:49:08Z</time>
   </trkpt>
   <trkpt lat="53.3420310" lon="-6.3157180">
    <ele>24.5</ele>
    <time>2025-11-08T12:49:13Z</time>
   </trkpt>
   <trkpt lat="53.3420170" lon="-6.3158250">
    <ele>24.6</ele>
    <time>2025-11-08T12:49:18Z</time>
   </trkpt>
   <trkpt lat="53.3420030" lon="-6.3159450">
    <ele>24.6</ele>
    <time>2025-11-08T12:49:24Z</time>
   </trkpt>
   <trkpt lat="53.3419890" lon="-6.3160650">
    <ele>24.6</ele>
    <time>2025-11-08T12:49:29Z</time>
   </trkpt>
   <trkpt lat="53.3419780" lon="-6.3161560">
    <ele>24.7</ele>
    <time>2025-11-08T12:49:34Z</time>
   </trkpt>
   <trkpt lat="53.3419660" lon="-6.3162600">
    <ele>24.7</ele>
    <time>2025-11-08T12:49:39Z</time>
   </trkpt>
   <trkpt lat="53.3419530" lon="-6.3163890">
    <ele>24.7</ele>
    <time>2025-11-08T12:49:45Z</time>
   </trkpt>
   <trkpt lat="53.3419430" lon="-6.3164920">
    <ele>24.8</ele>
    <time>2025-11-08T12:49:50Z</time>
   </trkpt>
   <trkpt lat="53.3419360" lon="-6.3165880">
    <ele>24.8</ele>
    <time>2025-11-08T12:49:55Z</time>
   </trkpt>
   <trkpt lat="53.3419230" lon="-6.3166770">
    <ele>22.2</ele>
    <time>2025-11-08T12:50:08Z</time>
   </trkpt>
   <trkpt lat="53.3419350" lon="-6.3167520">
    <ele>21.1</ele>
    <time>2025-11-08T12:50:25Z</time>
   </trkpt>
   <trkpt lat="53.3420030" lon="-6.3167880">
    <ele>22.1</ele>
    <time>2025-11-08T12:50:30Z</time>
   </trkpt>
   <trkpt lat="53.3420820" lon="-6.3168010">
    <ele>23.6</ele>
    <time>2025-11-08T12:50:36Z</time>
   </trkpt>
   <trkpt lat="53.3421410" lon="-6.3168050">
    <ele>24.3</ele>
    <time>2025-11-08T12:50:41Z</time>
   </trkpt>
   <trkpt lat="53.3421910" lon="-6.3168010">
    <ele>25.0</ele>
    <time>2025-11-08T12:50:46Z</time>
   </trkpt>
   <trkpt lat="53.3422410" lon="-6.3167870">
    <ele>25.7</ele>
    <time>2025-11-08T12:50:52Z</time>
   </trkpt>
   <trkpt lat="53.3422950" lon="-6.3167920">
    <ele>26.0</ele>
    <time>2025-11-08T12:50:59Z</time>
   </trkpt>
   <trkpt lat="53.3423590" lon="-6.3168170">
    <ele>25.4</ele>
    <time>2025-11-08T12:51:04Z</time>
   </trkpt>
   <trkpt lat="53.3424130" lon="-6.3168320">
    <ele>25.3</ele>
    <time>2025-11-08T12:51:09Z</time>
   </trkpt>
   <trkpt lat="53.3424670" lon="-6.3168630">
    <ele>25.3</ele>
    <time>2025-11-08T12:51:16Z</time>
   </trkpt>
   <trkpt lat="53.3426110" lon="-6.3169100">
    <ele>25.7</ele>
    <time>2025-11-08T12:51:22Z</time>
   </trkpt>
   <trkpt lat="53.3426740" lon="-6.3169440">
    <ele>24.9</ele>
    <time>2025-11-08T12:51:27Z</time>
   </trkpt>
   <trkpt lat="53.3427490" lon="-6.3169210">
    <ele>23.6</ele>
    <time>2025-11-08T12:51:33Z</time>
   </trkpt>
   <trkpt lat="53.3428160" lon="-6.3169140">
    <ele>24.4</ele>
    <time>2025-11-08T12:51:38Z</time>
   </trkpt>
   <trkpt lat="53.3428390" lon="-6.3169970">
    <ele>24.6</ele>
    <time>2025-11-08T12:51:44Z</time>
   </trkpt>
   <trkpt lat="53.3428920" lon="-6.3170230">
    <ele>22.5</ele>
    <time>2025-11-08T12:52:20Z</time>
   </trkpt>
   <trkpt lat="53.3429370" lon="-6.3170020">
    <ele>25.1</ele>
    <time>2025-11-08T12:52:26Z</time>
   </trkpt>
   <trkpt lat="53.3430070" lon="-6.3170650">
    <ele>26.3</ele>
    <time>2025-11-08T12:52:32Z</time>
   </trkpt>
   <trkpt lat="53.3430560" lon="-6.3169910">
    <ele>26.7</ele>
    <time>2025-11-08T12:52:37Z</time>
   </trkpt>
   <trkpt lat="53.3430970" lon="-6.3169530">
    <ele>26.8</ele>
    <time>2025-11-08T12:52:43Z</time>
   </trkpt>
   <trkpt lat="53.3431160" lon="-6.3168610">
    <ele>26.3</ele>
    <time>2025-11-08T12:52:48Z</time>
   </trkpt>
   <trkpt lat="53.3431370" lon="-6.3167540">
    <ele>26.0</ele>
    <time>2025-11-08T12:52:53Z</time>
   </trkpt>
   <trkpt lat="53.3431930" lon="-6.3167600">
    <ele>25.7</ele>
    <time>2025-11-08T12:52:59Z</time>
   </trkpt>
   <trkpt lat="53.3432220" lon="-6.3168260">
    <ele>25.3</ele>
    <time>2025-11-08T12:53:08Z</time>
   </trkpt>
   <trkpt lat="53.3432270" lon="-6.3169030">
    <ele>23.8</ele>
    <time>2025-11-08T12:53:14Z</time>
   </trkpt>
   <trkpt lat="53.3432720" lon="-6.3169190">
    <ele>22.5</ele>
    <time>2025-11-08T12:53:20Z</time>
   </trkpt>
   <trkpt lat="53.3433210" lon="-6.3169190">
    <ele>22.0</ele>
    <time>2025-11-08T12:53:25Z</time>
   </trkpt>
   <trkpt lat="53.3433840" lon="-6.3169400">
    <ele>21.6</ele>
    <time>2025-11-08T12:53:31Z</time>
   </trkpt>
   <trkpt lat="53.3434480" lon="-6.3169250">
    <ele>21.1</ele>
    <time>2025-11-08T12:53:37Z</time>
   </trkpt>
   <trkpt lat="53.3435180" lon="-6.3168990">
    <ele>19.8</ele>
    <time>2025-11-08T12:53:42Z</time>
   </trkpt>
   <trkpt lat="53.3435840" lon="-6.3168610">
    <ele>18.2</ele>
    <time>2025-11-08T12:53:47Z</time>
   </trkpt>
   <trkpt lat="53.3436330" lon="-6.3168580">
    <ele>17.4</ele>
    <time>2025-11-08T12:53:52Z</time>
   </trkpt>
   <trkpt lat="53.3436800" lon="-6.3168510">
    <ele>16.5</ele>
    <time>2025-11-08T12:53:57Z</time>
   </trkpt>
   <trkpt lat="53.3437140" lon="-6.3169170">
    <ele>16.0</ele>
    <time>2025-11-08T12:54:04Z</time>
   </trkpt>
   <trkpt lat="53.3436880" lon="-6.3169790">
    <ele>14.0</ele>
    <time>2025-11-08T12:54:16Z</time>
   </trkpt>
   <trkpt lat="53.3436950" lon="-6.3170540">
    <ele>12.9</ele>
    <time>2025-11-08T12:54:33Z</time>
   </trkpt>
   <trkpt lat="53.3437540" lon="-6.3171260">
    <ele>13.0</ele>
    <time>2025-11-08T12:54:38Z</time>
   </trkpt>
   <trkpt lat="53.3438100" lon="-6.3171990">
    <ele>14.3</ele>
    <time>2025-11-08T12:54:44Z</time>
   </trkpt>
   <trkpt lat="53.3438520" lon="-6.3172960">
    <ele>15.9</ele>
    <time>2025-11-08T12:54:49Z</time>
   </trkpt>
   <trkpt lat="53.3438920" lon="-6.3173680">
    <ele>16.4</ele>
    <time>2025-11-08T12:54:54Z</time>
   </trkpt>
   <trkpt lat="53.3439250" lon="-6.3174680">
    <ele>16.5</ele>
    <time>2025-11-08T12:55:00Z</time>
   </trkpt>
   <trkpt lat="53.3439310" lon="-6.3175840">
    <ele>16.6</ele>
    <time>2025-11-08T12:55:06Z</time>
   </trkpt>
   <trkpt lat="53.3439420" lon="-6.3176740">
    <ele>16.6</ele>
    <time>2025-11-08T12:55:11Z</time>
   </trkpt>
   <trkpt lat="53.3439560" lon="-6.3177720">
    <ele>17.1</ele>
    <time>2025-11-08T12:55:17Z</time>
   </trkpt>
   <trkpt lat="53.3439650" lon="-6.3178700">
    <ele>17.3</ele>
    <time>2025-11-08T12:55:22Z</time>
   </trkpt>
   <trkpt lat="53.3440040" lon="-6.3179220">
    <ele>17.0</ele>
    <time>2025-11-08T12:55:28Z</time>
   </trkpt>
   <trkpt lat="53.3440690" lon="-6.3179660">
    <ele>16.7</ele>
    <time>2025-11-08T12:55:33Z</time>
   </trkpt>
   <trkpt lat="53.3441290" lon="-6.3180560">
    <ele>15.9</ele>
    <time>2025-11-08T12:55:39Z</time>
   </trkpt>
   <trkpt lat="53.3441520" lon="-6.3181920">
    <ele>15.4</ele>
    <time>2025-11-08T12:55:45Z</time>
   </trkpt>
   <trkpt lat="53.3441490" lon="-6.3183050">
    <ele>15.6</ele>
    <time>2025-11-08T12:55:50Z</time>
   </trkpt>
   <trkpt lat="53.3441240" lon="-6.3184260">
    <ele>15.4</ele>
    <time>2025-11-08T12:55:56Z</time>
   </trkpt>
   <trkpt lat="53.3440890" lon="-6.3184810">
    <ele>11.9</ele>
    <time>2025-11-08T12:56:23Z</time>
   </trkpt>
   <trkpt lat="53.3440710" lon="-6.3185500">
    <ele>11.9</ele>
    <time>2025-11-08T12:57:10Z</time>
   </trkpt>
   <trkpt lat="53.3441140" lon="-6.3186660">
    <ele>13.2</ele>
    <time>2025-11-08T12:57:16Z</time>
   </trkpt>
   <trkpt lat="53.3441870" lon="-6.3187280">
    <ele>14.4</ele>
    <time>2025-11-08T12:57:21Z</time>
   </trkpt>
   <trkpt lat="53.3442780" lon="-6.3187630">
    <ele>14.8</ele>
    <time>2025-11-08T12:57:27Z</time>
   </trkpt>
   <trkpt lat="53.3443550" lon="-6.3187970">
    <ele>14.9</ele>
    <time>2025-11-08T12:57:32Z</time>
   </trkpt>
   <trkpt lat="53.3444320" lon="-6.3188610">
    <ele>14.4</ele>
    <time>2025-11-08T12:57:38Z</time>
   </trkpt>
   <trkpt lat="53.3445090" lon="-6.3189280">
    <ele>14.1</ele>
    <time>2025-11-08T12:57:43Z</time>
   </trkpt>
   <trkpt lat="53.3445540" lon="-6.3189990">
    <ele>13.7</ele>
    <time>2025-11-08T12:57:48Z</time>
   </trkpt>
   <trkpt lat="53.3445860" lon="-6.3191160">
    <ele>13.7</ele>
    <time>2025-11-08T12:57:54Z</time>
   </trkpt>
   <trkpt lat="53.3446060" lon="-6.3192320">
    <ele>13.1</ele>
    <time>2025-11-08T12:57:59Z</time>
   </trkpt>
   <trkpt lat="53.3446270" lon="-6.3193190">
    <ele>12.1</ele>
    <time>2025-11-08T12:58:04Z</time>
   </trkpt>
   <trkpt lat="53.3446700" lon="-6.3193640">
    <ele>12.0</ele>
    <time>2025-11-08T12:58:10Z</time>
   </trkpt>
   <trkpt lat="53.3447180" lon="-6.3194050">
    <ele>12.6</ele>
    <time>2025-11-08T12:58:15Z</time>
   </trkpt>
   <trkpt lat="53.3447740" lon="-6.3194670">
    <ele>13.6</ele>
    <time>2025-11-08T12:58:21Z</time>
   </trkpt>
   <trkpt lat="53.3448370" lon="-6.3194920">
    <ele>13.9</ele>
    <time>2025-11-08T12:58:26Z</time>
   </trkpt>
   <trkpt lat="53.3449010" lon="-6.3195080">
    <ele>13.8</ele>
    <time>2025-11-08T12:58:31Z</time>
   </trkpt>
   <trkpt lat="53.3449780" lon="-6.3195280">
    <ele>12.5</ele>
    <time>2025-11-08T12:58:37Z</time>
   </trkpt>
   <trkpt lat="53.3450480" lon="-6.3195770">
    <ele>11.7</ele>
    <time>2025-11-08T12:58:43Z</time>
   </trkpt>
   <trkpt lat="53.3451190" lon="-6.3195910">
    <ele>11.8</ele>
    <time>2025-11-08T12:58:48Z</time>
   </trkpt>
   <trkpt lat="53.3451790" lon="-6.3195810">
    <ele>12.3</ele>
    <time>2025-11-08T12:58:53Z</time>
   </trkpt>
   <trkpt lat="53.3452480" lon="-6.3195940">
    <ele>12.5</ele>
    <time>2025-11-08T12:58:59Z</time>
   </trkpt>
   <trkpt lat="53.3453150" lon="-6.3196010">
    <ele>12.4</ele>
    <time>2025-11-08T12:59:05Z</time>
   </trkpt>
   <trkpt lat="53.3453580" lon="-6.3196850">
    <ele>12.1</ele>
    <time>2025-11-08T12:59:10Z</time>
   </trkpt>
   <trkpt lat="53.3453390" lon="-6.3198910">
    <ele>11.4</ele>
    <time>2025-11-08T12:59:16Z</time>
   </trkpt>
   <trkpt lat="53.3452910" lon="-6.3200620">
    <ele>11.0</ele>
    <time>2025-11-08T12:59:21Z</time>
   </trkpt>
   <trkpt lat="53.3452630" lon="-6.3202420">
    <ele>10.7</ele>
    <time>2025-11-08T12:59:27Z</time>
   </trkpt>
   <trkpt lat="53.3452300" lon="-6.3203980">
    <ele>10.6</ele>
    <time>2025-11-08T12:59:33Z</time>
   </trkpt>
   <trkpt lat="53.3452420" lon="-6.3205230">
    <ele>10.5</ele>
    <time>2025-11-08T12:59:39Z</time>
   </trkpt>
   <trkpt lat="53.3453150" lon="-6.3205510">
    <ele>9.1</ele>
    <time>2025-11-08T12:59:45Z</time>
   </trkpt>
   <trkpt lat="53.3454020" lon="-6.3205400">
    <ele>8.5</ele>
    <time>2025-11-08T12:59:51Z</time>
   </trkpt>
   <trkpt lat="53.3454950" lon="-6.3205430">
    <ele>8.1</ele>
    <time>2025-11-08T12:59:56Z</time>
   </trkpt>
   <trkpt lat="53.3455640" lon="-6.3205720">
    <ele>7.6</ele>
    <time>2025-11-08T13:00:02Z</time>
   </trkpt>
   <trkpt lat="53.3455800" lon="-6.3206820">
    <ele>7.0</ele>
    <time>2025-11-08T13:00:07Z</time>
   </trkpt>
   <trkpt lat="53.3455370" lon="-6.3207940">
    <ele>7.0</ele>
    <time>2025-11-08T13:00:12Z</time>
   </trkpt>
   <trkpt lat="53.3455010" lon="-6.3208480">
    <ele>4.8</ele>
    <time>2025-11-08T13:00:39Z</time>
   </trkpt>
   <trkpt lat="53.3454740" lon="-6.3209920">
    <ele>6.4</ele>
    <time>2025-11-08T13:00:45Z</time>
   </trkpt>
   <trkpt lat="53.3454480" lon="-6.3211270">
    <ele>7.9</ele>
    <time>2025-11-08T13:00:50Z</time>
   </trkpt>
   <trkpt lat="53.3454060" lon="-6.3212560">
    <ele>9.0</ele>
    <time>2025-11-08T13:00:56Z</time>
   </trkpt>
   <trkpt lat="53.3453800" lon="-6.3213580">
    <ele>9.4</ele>
    <time>2025-11-08T13:01:01Z</time>
   </trkpt>
   <trkpt lat="53.3453570" lon="-6.3214540">
    <ele>9.1</ele>
    <time>2025-11-08T13:01:07Z</time>
   </trkpt>
   <trkpt lat="53.3453200" lon="-6.3215710">
    <ele>8.7</ele>
    <time>2025-11-08T13:01:13Z</time>
   </trkpt>
   <trkpt lat="53.3452890" lon="-6.3216790">
    <ele>8.9</ele>
    <time>2025-11-08T13:01:18Z</time>
   </trkpt>
   <trkpt lat="53.3452590" lon="-6.3217820">
    <ele>8.8</ele>
    <time>2025-11-08T13:01:23Z</time>
   </trkpt>
   <trkpt lat="53.3452390" lon="-6.3218890">
    <ele>8.8</ele>
    <time>2025-11-08T13:01:29Z</time>
   </trkpt>
   <trkpt lat="53.3452220" lon="-6.3219750">
    <ele>8.5</ele>
    <time>2025-11-08T13:01:34Z</time>
   </trkpt>
   <trkpt lat="53.3452180" lon="-6.3220560">
    <ele>8.4</ele>
    <time>2025-11-08T13:01:40Z</time>
   </trkpt>
   <trkpt lat="53.3452040" lon="-6.3221440">
    <ele>6.6</ele>
    <time>2025-11-08T13:01:50Z</time>
   </trkpt>
   <trkpt lat="53.3451620" lon="-6.3222740">
    <ele>7.8</ele>
    <time>2025-11-08T13:01:55Z</time>
   </trkpt>
   <trkpt lat="53.3451260" lon="-6.3223900">
    <ele>8.4</ele>
    <time>2025-11-08T13:02:00Z</time>
   </trkpt>
   <trkpt lat="53.3450890" lon="-6.3225590">
    <ele>8.2</ele>
    <time>2025-11-08T13:02:06Z</time>
   </trkpt>
   <trkpt lat="53.3450710" lon="-6.3226620">
    <ele>7.8</ele>
    <time>2025-11-08T13:02:11Z</time>
   </trkpt>
   <trkpt lat="53.3450450" lon="-6.3227840">
    <ele>7.9</ele>
    <time>2025-11-08T13:02:17Z</time>
   </trkpt>
   <trkpt lat="53.3450110" lon="-6.3228840">
    <ele>8.2</ele>
    <time>2025-11-08T13:02:22Z</time>
   </trkpt>
   <trkpt lat="53.3449800" lon="-6.3229640">
    <ele>8.9</ele>
    <time>2025-11-08T13:02:27Z</time>
   </trkpt>
   <trkpt lat="53.3449850" lon="-6.3230450">
    <ele>8.5</ele>
    <time>2025-11-08T13:02:33Z</time>
   </trkpt>
   <trkpt lat="53.3449700" lon="-6.3231190">
    <ele>4.5</ele>
    <time>2025-11-08T13:03:21Z</time>
   </trkpt>
   <trkpt lat="53.3449660" lon="-6.3232070">
    <ele>5.4</ele>
    <time>2025-11-08T13:03:28Z</time>
   </trkpt>
   <trkpt lat="53.3448940" lon="-6.3233260">
    <ele>6.0</ele>
    <time>2025-11-08T13:03:34Z</time>
   </trkpt>
   <trkpt lat="53.3448530" lon="-6.3234470">
    <ele>6.8</ele>
    <time>2025-11-08T13:03:39Z</time>
   </trkpt>
   <trkpt lat="53.3448270" lon="-6.3235750">
    <ele>6.8</ele>
    <time>2025-11-08T13:03:45Z</time>
   </trkpt>
   <trkpt lat="53.3448230" lon="-6.3237050">
    <ele>6.8</ele>
    <time>2025-11-08T13:03:50Z</time>
   </trkpt>
   <trkpt lat="53.3447890" lon="-6.3237890">
    <ele>7.3</ele>
    <time>2025-11-08T13:03:55Z</time>
   </trkpt>
   <trkpt lat="53.3447540" lon="-6.3239070">
    <ele>7.8</ele>
    <time>2025-11-08T13:04:01Z</time>
   </trkpt>
   <trkpt lat="53.3447320" lon="-6.3240270">
    <ele>7.7</ele>
    <time>2025-11-08T13:04:06Z</time>
   </trkpt>
   <trkpt lat="53.3447260" lon="-6.3241550">
    <ele>7.7</ele>
    <time>2025-11-08T13:04:12Z</time>
   </trkpt>
   <trkpt lat="53.3447230" lon="-6.3242740">
    <ele>7.7</ele>
    <time>2025-11-08T13:04:17Z</time>
   </trkpt>
   <trkpt lat="53.3447260" lon="-6.3243870">
    <ele>7.6</ele>
    <time>2025-11-08T13:04:22Z</time>
   </trkpt>
   <trkpt lat="53.3446940" lon="-6.3245390">
    <ele>7.5</ele>
    <time>2025-11-08T13:04:28Z</time>
   </trkpt>
   <trkpt lat="53.3446610" lon="-6.3246760">
    <ele>7.3</ele>
    <time>2025-11-08T13:04:33Z</time>
   </trkpt>
   <trkpt lat="53.3446320" lon="-6.3248060">
    <ele>7.4</ele>
    <time>2025-11-08T13:04:38Z</time>
   </trkpt>
   <trkpt lat="53.3446230" lon="-6.3249250">
    <ele>7.0</ele>
    <time>2025-11-08T13:04:43Z</time>
   </trkpt>
   <trkpt lat="53.3446290" lon="-6.3250370">
    <ele>6.8</ele>
    <time>2025-11-08T13:04:49Z</time>
   </trkpt>
   <trkpt lat="53.3446160" lon="-6.3251290">
    <ele>6.7</ele>
    <time>2025-11-08T13:04:54Z</time>
   </trkpt>
   <trkpt lat="53.3446070" lon="-6.3252420">
    <ele>6.5</ele>
    <time>2025-11-08T13:04:59Z</time>
   </trkpt>
   <trkpt lat="53.3445790" lon="-6.3253490">
    <ele>6.5</ele>
    <time>2025-11-08T13:05:04Z</time>
   </trkpt>
   <trkpt lat="53.3445710" lon="-6.3254860">
    <ele>6.8</ele>
    <time>2025-11-08T13:05:10Z</time>
   </trkpt>
   <trkpt lat="53.3445620" lon="-6.3255970">
    <ele>6.9</ele>
    <time>2025-11-08T13:05:16Z</time>
   </trkpt>
   <trkpt lat="53.3445520" lon="-6.3256950">
    <ele>6.6</ele>
    <time>2025-11-08T13:05:22Z</time>
   </trkpt>
   <trkpt lat="53.3445460" lon="-6.3258070">
    <ele>6.3</ele>
    <time>2025-11-08T13:05:27Z</time>
   </trkpt>
   <trkpt lat="53.3445360" lon="-6.3259430">
    <ele>6.1</ele>
    <time>2025-11-08T13:05:33Z</time>
   </trkpt>
   <trkpt lat="53.3445380" lon="-6.3260650">
    <ele>6.4</ele>
    <time>2025-11-08T13:05:38Z</time>
   </trkpt>
   <trkpt lat="53.3445310" lon="-6.3261980">
    <ele>6.6</ele>
    <time>2025-11-08T13:05:43Z</time>
   </trkpt>
   <trkpt lat="53.3445410" lon="-6.3263270">
    <ele>7.1</ele>
    <time>2025-11-08T13:05:49Z</time>
   </trkpt>
   <trkpt lat="53.3445590" lon="-6.3264640">
    <ele>7.6</ele>
    <time>2025-11-08T13:05:55Z</time>
   </trkpt>
   <trkpt lat="53.3445640" lon="-6.3265580">
    <ele>7.5</ele>
    <time>2025-11-08T13:06:00Z</time>
   </trkpt>
   <trkpt lat="53.3445740" lon="-6.3266350">
    <ele>7.6</ele>
    <time>2025-11-08T13:06:06Z</time>
   </trkpt>
   <trkpt lat="53.3445910" lon="-6.3267520">
    <ele>8.1</ele>
    <time>2025-11-08T13:06:11Z</time>
   </trkpt>
   <trkpt lat="53.3446210" lon="-6.3268700">
    <ele>8.6</ele>
    <time>2025-11-08T13:06:17Z</time>
   </trkpt>
   <trkpt lat="53.3446390" lon="-6.3269700">
    <ele>8.8</ele>
    <time>2025-11-08T13:06:22Z</time>
   </trkpt>
   <trkpt lat="53.3446190" lon="-6.3270380">
    <ele>3.3</ele>
    <time>2025-11-08T13:06:44Z</time>
   </trkpt>
   <trkpt lat="53.3446130" lon="-6.3272160">
    <ele>4.2</ele>
    <time>2025-11-08T13:06:49Z</time>
   </trkpt>
   <trkpt lat="53.3446190" lon="-6.3273230">
    <ele>4.7</ele>
    <time>2025-11-08T13:06:54Z</time>
   </trkpt>
   <trkpt lat="53.3446510" lon="-6.3274320">
    <ele>4.9</ele>
    <time>2025-11-08T13:07:00Z</time>
   </trkpt>
   <trkpt lat="53.3446850" lon="-6.3275030">
    <ele>5.0</ele>
    <time>2025-11-08T13:07:05Z</time>
   </trkpt>
   <trkpt lat="53.3447360" lon="-6.3275880">
    <ele>5.4</ele>
    <time>2025-11-08T13:07:11Z</time>
   </trkpt>
   <trkpt lat="53.3447810" lon="-6.3277040">
    <ele>5.8</ele>
    <time>2025-11-08T13:07:16Z</time>
   </trkpt>
   <trkpt lat="53.3448210" lon="-6.3278190">
    <ele>5.6</ele>
    <time>2025-11-08T13:07:22Z</time>
   </trkpt>
   <trkpt lat="53.3448410" lon="-6.3279320">
    <ele>5.2</ele>
    <time>2025-11-08T13:07:27Z</time>
   </trkpt>
   <trkpt lat="53.3448950" lon="-6.3280750">
    <ele>5.1</ele>
    <time>2025-11-08T13:07:33Z</time>
   </trkpt>
   <trkpt lat="53.3449550" lon="-6.3281630">
    <ele>5.2</ele>
    <time>2025-11-08T13:07:38Z</time>
   </trkpt>
   <trkpt lat="53.3449980" lon="-6.3282580">
    <ele>5.3</ele>
    <time>2025-11-08T13:07:43Z</time>
   </trkpt>
   <trkpt lat="53.3450240" lon="-6.3283720">
    <ele>5.5</ele>
    <time>2025-11-08T13:07:49Z</time>
   </trkpt>
   <trkpt lat="53.3450510" lon="-6.3284720">
    <ele>5.7</ele>
    <time>2025-11-08T13:07:54Z</time>
   </trkpt>
   <trkpt lat="53.3450800" lon="-6.3285870">
    <ele>5.9</ele>
    <time>2025-11-08T13:08:00Z</time>
   </trkpt>
   <trkpt lat="53.3451020" lon="-6.3286820">
    <ele>6.0</ele>
    <time>2025-11-08T13:08:05Z</time>
   </trkpt>
   <trkpt lat="53.3451330" lon="-6.3287850">
    <ele>5.9</ele>
    <time>2025-11-08T13:08:11Z</time>
   </trkpt>
   <trkpt lat="53.3451580" lon="-6.3288770">
    <ele>5.7</ele>
    <time>2025-11-08T13:08:16Z</time>
   </trkpt>
   <trkpt lat="53.3451870" lon="-6.3290070">
    <ele>5.3</ele>
    <time>2025-11-08T13:08:22Z</time>
   </trkpt>
   <trkpt lat="53.3451970" lon="-6.3291340">
    <ele>5.4</ele>
    <time>2025-11-08T13:08:28Z</time>
   </trkpt>
   <trkpt lat="53.3452280" lon="-6.3292540">
    <ele>5.8</ele>
    <time>2025-11-08T13:08:33Z</time>
   </trkpt>
   <trkpt lat="53.3452540" lon="-6.3293730">
    <ele>6.0</ele>
    <time>2025-11-08T13:08:39Z</time>
   </trkpt>
   <trkpt lat="53.3452660" lon="-6.3294880">
    <ele>5.9</ele>
    <time>2025-11-08T13:08:44Z</time>
   </trkpt>
   <trkpt lat="53.3452700" lon="-6.3296270">
    <ele>5.5</ele>
    <time>2025-11-08T13:08:50Z</time>
   </trkpt>
   <trkpt lat="53.3452810" lon="-6.3297440">
    <ele>5.3</ele>
    <time>2025-11-08T13:08:55Z</time>
   </trkpt>
   <trkpt lat="53.3452920" lon="-6.3298670">
    <ele>5.3</ele>
    <time>2025-11-08T13:09:01Z</time>
   </trkpt>
   <trkpt lat="53.3452910" lon="-6.3299890">
    <ele>5.4</ele>
    <time>2025-11-08T13:09:06Z</time>
   </trkpt>
   <trkpt lat="53.3452980" lon="-6.3301250">
    <ele>5.1</ele>
    <time>2025-11-08T13:09:12Z</time>
   </trkpt>
   <trkpt lat="53.3453060" lon="-6.3302340">
    <ele>4.6</ele>
    <time>2025-11-08T13:09:17Z</time>
   </trkpt>
   <trkpt lat="53.3453180" lon="-6.3303530">
    <ele>4.5</ele>
    <time>2025-11-08T13:09:23Z</time>
   </trkpt>
   <trkpt lat="53.3453390" lon="-6.3304710">
    <ele>4.8</ele>
    <time>2025-11-08T13:09:29Z</time>
   </trkpt>
   <trkpt lat="53.3453610" lon="-6.3305750">
    <ele>5.2</ele>
    <time>2025-11-08T13:09:34Z</time>
   </trkpt>
   <trkpt lat="53.3453790" lon="-6.3306840">
    <ele>5.2</ele>
    <time>2025-11-08T13:09:40Z</time>
   </trkpt>
   <trkpt lat="53.3453860" lon="-6.3307700">
    <ele>5.1</ele>
    <time>2025-11-08T13:09:46Z</time>
   </trkpt>
   <trkpt lat="53.3454060" lon="-6.3308680">
    <ele>5.1</ele>
    <time>2025-11-08T13:09:52Z</time>
   </trkpt>
   <trkpt lat="53.3454300" lon="-6.3309500">
    <ele>5.2</ele>
    <time>2025-11-08T13:09:57Z</time>
   </trkpt>
   <trkpt lat="53.3454500" lon="-6.3310250">
    <ele>5.6</ele>
    <time>2025-11-08T13:10:03Z</time>
   </trkpt>
   <trkpt lat="53.3454430" lon="-6.3311570">
    <ele>5.9</ele>
    <time>2025-11-08T13:10:08Z</time>
   </trkpt>
   <trkpt lat="53.3454280" lon="-6.3313440">
    <ele>6.5</ele>
    <time>2025-11-08T13:10:14Z</time>
   </trkpt>
   <trkpt lat="53.3454300" lon="-6.3314830">
    <ele>7.0</ele>
    <time>2025-11-08T13:10:19Z</time>
   </trkpt>
   <trkpt lat="53.3454410" lon="-6.3316430">
    <ele>7.1</ele>
    <time>2025-11-08T13:10:25Z</time>
   </trkpt>
   <trkpt lat="53.3454620" lon="-6.3317410">
    <ele>6.9</ele>
    <time>2025-11-08T13:10:30Z</time>
   </trkpt>
   <trkpt lat="53.3454810" lon="-6.3318290">
    <ele>6.5</ele>
    <time>2025-11-08T13:10:35Z</time>
   </trkpt>
   <trkpt lat="53.3455130" lon="-6.3319040">
    <ele>6.4</ele>
    <time>2025-11-08T13:10:40Z</time>
   </trkpt>
   <trkpt lat="53.3455530" lon="-6.3319870">
    <ele>6.8</ele>
    <time>2025-11-08T13:10:46Z</time>
   </trkpt>
   <trkpt lat="53.3455510" lon="-6.3320950">
    <ele>7.0</ele>
    <time>2025-11-08T13:10:51Z</time>
   </trkpt>
   <trkpt lat="53.3455710" lon="-6.3321980">
    <ele>6.9</ele>
    <time>2025-11-08T13:10:56Z</time>
   </trkpt>
   <trkpt lat="53.3456190" lon="-6.3322830">
    <ele>6.9</ele>
    <time>2025-11-08T13:11:02Z</time>
   </trkpt>
   <trkpt lat="53.3456580" lon="-6.3323380">
    <ele>6.9</ele>
    <time>2025-11-08T13:11:07Z</time>
   </trkpt>
   <trkpt lat="53.3456820" lon="-6.3324490">
    <ele>6.4</ele>
    <time>2025-11-08T13:11:12Z</time>
   </trkpt>
   <trkpt lat="53.3456920" lon="-6.3326020">
    <ele>6.0</ele>
    <time>2025-11-08T13:11:18Z</time>
   </trkpt>
   <trkpt lat="53.3456650" lon="-6.3326910">
    <ele>4.9</ele>
    <time>2025-11-08T13:11:23Z</time>
   </trkpt>
   <trkpt lat="53.3456630" lon="-6.3327690">
    <ele>3.6</ele>
    <time>2025-11-08T13:11:29Z</time>
   </trkpt>
   <trkpt lat="53.3456600" lon="-6.3329250">
    <ele>4.3</ele>
    <time>2025-11-08T13:11:34Z</time>
   </trkpt>
   <trkpt lat="53.3456780" lon="-6.3330430">
    <ele>5.3</ele>
    <time>2025-11-08T13:11:39Z</time>
   </trkpt>
   <trkpt lat="53.3457060" lon="-6.3331380">
    <ele>5.6</ele>
    <time>2025-11-08T13:11:44Z</time>
   </trkpt>
   <trkpt lat="53.3457410" lon="-6.3332580">
    <ele>5.8</ele>
    <time>2025-11-08T13:11:50Z</time>
   </trkpt>
   <trkpt lat="53.3457710" lon="-6.3333720">
    <ele>5.8</ele>
    <time>2025-11-08T13:11:55Z</time>
   </trkpt>
   <trkpt lat="53.3457890" lon="-6.3335250">
    <ele>5.5</ele>
    <time>2025-11-08T13:12:01Z</time>
   </trkpt>
   <trkpt lat="53.3458010" lon="-6.3336360">
    <ele>4.6</ele>
    <time>2025-11-08T13:12:06Z</time>
   </trkpt>
   <trkpt lat="53.3458050" lon="-6.3337420">
    <ele>3.9</ele>
    <time>2025-11-08T13:12:11Z</time>
   </trkpt>
   <trkpt lat="53.3457870" lon="-6.3338670">
    <ele>4.3</ele>
    <time>2025-11-08T13:12:17Z</time>
   </trkpt>
   <trkpt lat="53.3457670" lon="-6.3339990">
    <ele>4.6</ele>
    <time>2025-11-08T13:12:22Z</time>
   </trkpt>
   <trkpt lat="53.3457490" lon="-6.3341160">
    <ele>4.8</ele>
    <time>2025-11-08T13:12:28Z</time>
   </trkpt>
   <trkpt lat="53.3457400" lon="-6.3342210">
    <ele>4.2</ele>
    <time>2025-11-08T13:12:33Z</time>
   </trkpt>
   <trkpt lat="53.3457270" lon="-6.3343540">
    <ele>3.3</ele>
    <time>2025-11-08T13:12:39Z</time>
   </trkpt>
   <trkpt lat="53.3457150" lon="-6.3344720">
    <ele>2.7</ele>
    <time>2025-11-08T13:12:45Z</time>
   </trkpt>
   <trkpt lat="53.3456890" lon="-6.3346120">
    <ele>2.7</ele>
    <time>2025-11-08T13:12:51Z</time>
   </trkpt>
   <trkpt lat="53.3456570" lon="-6.3347240">
    <ele>2.6</ele>
    <time>2025-11-08T13:12:56Z</time>
   </trkpt>
   <trkpt lat="53.3456240" lon="-6.3348160">
    <ele>2.3</ele>
    <time>2025-11-08T13:13:01Z</time>
   </trkpt>
   <trkpt lat="53.3455900" lon="-6.3349050">
    <ele>1.9</ele>
    <time>2025-11-08T13:13:06Z</time>
   </trkpt>
   <trkpt lat="53.3455510" lon="-6.3350320">
    <ele>1.7</ele>
    <time>2025-11-08T13:13:12Z</time>
   </trkpt>
   <trkpt lat="53.3455110" lon="-6.3351390">
    <ele>1.9</ele>
    <time>2025-11-08T13:13:18Z</time>
   </trkpt>
   <trkpt lat="53.3454830" lon="-6.3352560">
    <ele>1.5</ele>
    <time>2025-11-08T13:13:23Z</time>
   </trkpt>
   <trkpt lat="53.3454580" lon="-6.3353500">
    <ele>1.2</ele>
    <time>2025-11-08T13:13:28Z</time>
   </trkpt>
   <trkpt lat="53.3454320" lon="-6.3354640">
    <ele>0.9</ele>
    <time>2025-11-08T13:13:34Z</time>
   </trkpt>
   <trkpt lat="53.3454100" lon="-6.3355610">
    <ele>1.0</ele>
    <time>2025-11-08T13:13:39Z</time>
   </trkpt>
   <trkpt lat="53.3453660" lon="-6.3356700">
    <ele>1.0</ele>
    <time>2025-11-08T13:13:45Z</time>
   </trkpt>
   <trkpt lat="53.3453360" lon="-6.3357800">
    <ele>1.0</ele>
    <time>2025-11-08T13:13:50Z</time>
   </trkpt>
   <trkpt lat="53.3453040" lon="-6.3358730">
    <ele>0.9</ele>
    <time>2025-11-08T13:13:55Z</time>
   </trkpt>
   <trkpt lat="53.3452690" lon="-6.3359710">
    <ele>1.0</ele>
    <time>2025-11-08T13:14:01Z</time>
   </trkpt>
   <trkpt lat="53.3452340" lon="-6.3360670">
    <ele>1.2</ele>
    <time>2025-11-08T13:14:06Z</time>
   </trkpt>
   <trkpt lat="53.3452030" lon="-6.3361780">
    <ele>1.3</ele>
    <time>2025-11-08T13:14:12Z</time>
   </trkpt>
   <trkpt lat="53.3451710" lon="-6.3362830">
    <ele>1.2</ele>
    <time>2025-11-08T13:14:17Z</time>
   </trkpt>
   <trkpt lat="53.3451430" lon="-6.3364090">
    <ele>1.3</ele>
    <time>2025-11-08T13:14:23Z</time>
   </trkpt>
   <trkpt lat="53.3451250" lon="-6.3365100">
    <ele>1.5</ele>
    <time>2025-11-08T13:14:28Z</time>
   </trkpt>
   <trkpt lat="53.3451190" lon="-6.3366380">
    <ele>1.5</ele>
    <time>2025-11-08T13:14:34Z</time>
   </trkpt>
   <trkpt lat="53.3451140" lon="-6.3367650">
    <ele>1.6</ele>
    <time>2025-11-08T13:14:40Z</time>
   </trkpt>
   <trkpt lat="53.3450910" lon="-6.3368750">
    <ele>1.2</ele>
    <time>2025-11-08T13:14:45Z</time>
   </trkpt>
   <trkpt lat="53.3450660" lon="-6.3369840">
    <ele>1.1</ele>
    <time>2025-11-08T13:14:51Z</time>
   </trkpt>
   <trkpt lat="53.3450670" lon="-6.3370990">
    <ele>1.2</ele>
    <time>2025-11-08T13:14:57Z</time>
   </trkpt>
   <trkpt lat="53.3450590" lon="-6.3372070">
    <ele>1.0</ele>
    <time>2025-11-08T13:15:02Z</time>
   </trkpt>
   <trkpt lat="53.3450480" lon="-6.3373510">
    <ele>0.7</ele>
    <time>2025-11-08T13:15:08Z</time>
   </trkpt>
   <trkpt lat="53.3450300" lon="-6.3374730">
    <ele>0.4</ele>
    <time>2025-11-08T13:15:13Z</time>
   </trkpt>
   <trkpt lat="53.3450170" lon="-6.3376060">
    <ele>0.2</ele>
    <time>2025-11-08T13:15:19Z</time>
   </trkpt>
   <trkpt lat="53.3450130" lon="-6.3377130">
    <ele>0.1</ele>
    <time>2025-11-08T13:15:24Z</time>
   </trkpt>
   <trkpt lat="53.3450180" lon="-6.3378260">
    <ele>0.0</ele>
    <time>2025-11-08T13:15:30Z</time>
   </trkpt>
   <trkpt lat="53.3450240" lon="-6.3379270">
    <ele>0.4</ele>
    <time>2025-11-08T13:15:36Z</time>
   </trkpt>
   <trkpt lat="53.3450150" lon="-6.3380470">
    <ele>1.3</ele>
    <time>2025-11-08T13:15:41Z</time>
   </trkpt>
   <trkpt lat="53.3450090" lon="-6.3381750">
    <ele>1.9</ele>
    <time>2025-11-08T13:15:46Z</time>
   </trkpt>
   <trkpt lat="53.3450020" lon="-6.3383090">
    <ele>1.6</ele>
    <time>2025-11-08T13:15:52Z</time>
   </trkpt>
   <trkpt lat="53.3449890" lon="-6.3384270">
    <ele>1.5</ele>
    <time>2025-11-08T13:15:57Z</time>
   </trkpt>
   <trkpt lat="53.3449960" lon="-6.3385650">
    <ele>1.5</ele>
    <time>2025-11-08T13:16:03Z</time>
   </trkpt>
   <trkpt lat="53.3450080" lon="-6.3386690">
    <ele>1.5</ele>
    <time>2025-11-08T13:16:08Z</time>
   </trkpt>
   <trkpt lat="53.3450300" lon="-6.3387690">
    <ele>1.5</ele>
    <time>2025-11-08T13:16:13Z</time>
   </trkpt>
   <trkpt lat="53.3450570" lon="-6.3388410">
    <ele>1.5</ele>
    <time>2025-11-08T13:16:18Z</time>
   </trkpt>
   <trkpt lat="53.3450820" lon="-6.3389410">
    <ele>1.4</ele>
    <time>2025-11-08T13:16:23Z</time>
   </trkpt>
   <trkpt lat="53.3451090" lon="-6.3390120">
    <ele>2.0</ele>
    <time>2025-11-08T13:16:28Z</time>
   </trkpt>
   <trkpt lat="53.3451260" lon="-6.3391280">
    <ele>2.1</ele>
    <time>2025-11-08T13:16:34Z</time>
   </trkpt>
   <trkpt lat="53.3451430" lon="-6.3392780">
    <ele>1.9</ele>
    <time>2025-11-08T13:16:40Z</time>
   </trkpt>
   <trkpt lat="53.3451520" lon="-6.3394040">
    <ele>2.0</ele>
    <time>2025-11-08T13:16:45Z</time>
   </trkpt>
   <trkpt lat="53.3451610" lon="-6.3395290">
    <ele>2.2</ele>
    <time>2025-11-08T13:16:50Z</time>
   </trkpt>
   <trkpt lat="53.3451850" lon="-6.3396470">
    <ele>2.7</ele>
    <time>2025-11-08T13:16:56Z</time>
   </trkpt>
   <trkpt lat="53.3452090" lon="-6.3397670">
    <ele>2.7</ele>
    <time>2025-11-08T13:17:01Z</time>
   </trkpt>
   <trkpt lat="53.3452430" lon="-6.3398820">
    <ele>2.3</ele>
    <time>2025-11-08T13:17:07Z</time>
   </trkpt>
   <trkpt lat="53.3452710" lon="-6.3399970">
    <ele>2.2</ele>
    <time>2025-11-08T13:17:12Z</time>
   </trkpt>
   <trkpt lat="53.3452860" lon="-6.3400990">
    <ele>2.4</ele>
    <time>2025-11-08T13:17:17Z</time>
   </trkpt>
   <trkpt lat="53.3453290" lon="-6.3402030">
    <ele>2.7</ele>
    <time>2025-11-08T13:17:23Z</time>
   </trkpt>
   <trkpt lat="53.3453520" lon="-6.3403070">
    <ele>2.9</ele>
    <time>2025-11-08T13:17:29Z</time>
   </trkpt>
   <trkpt lat="53.3453650" lon="-6.3404250">
    <ele>3.3</ele>
    <time>2025-11-08T13:17:34Z</time>
   </trkpt>
   <trkpt lat="53.3454060" lon="-6.3405490">
    <ele>3.5</ele>
    <time>2025-11-08T13:17:40Z</time>
   </trkpt>
   <trkpt lat="53.3454360" lon="-6.3406560">
    <ele>3.2</ele>
    <time>2025-11-08T13:17:45Z</time>
   </trkpt>
   <trkpt lat="53.3454540" lon="-6.3407530">
    <ele>2.7</ele>
    <time>2025-11-08T13:17:50Z</time>
   </trkpt>
   <trkpt lat="53.3454930" lon="-6.3408570">
    <ele>3.0</ele>
    <time>2025-11-08T13:17:56Z</time>
   </trkpt>
   <trkpt lat="53.3455240" lon="-6.3409620">
    <ele>3.1</ele>
    <time>2025-11-08T13:18:01Z</time>
   </trkpt>
   <trkpt lat="53.3455460" lon="-6.3410840">
    <ele>3.0</ele>
    <time>2025-11-08T13:18:07Z</time>
   </trkpt>
   <trkpt lat="53.3455730" lon="-6.3411900">
    <ele>3.4</ele>
    <time>2025-11-08T13:18:13Z</time>
   </trkpt>
   <trkpt lat="53.3456040" lon="-6.3413020">
    <ele>3.8</ele>
    <time>2025-11-08T13:18:19Z</time>
   </trkpt>
   <trkpt lat="53.3456120" lon="-6.3414180">
    <ele>3.9</ele>
    <time>2025-11-08T13:18:24Z</time>
   </trkpt>
   <trkpt lat="53.3456070" lon="-6.3415470">
    <ele>4.4</ele>
    <time>2025-11-08T13:18:30Z</time>
   </trkpt>
   <trkpt lat="53.3455590" lon="-6.3416450">
    <ele>5.0</ele>
    <time>2025-11-08T13:18:36Z</time>
   </trkpt>
   <trkpt lat="53.3455160" lon="-6.3417340">
    <ele>5.2</ele>
    <time>2025-11-08T13:18:42Z</time>
   </trkpt>
   <trkpt lat="53.3455240" lon="-6.3418490">
    <ele>4.5</ele>
    <time>2025-11-08T13:18:48Z</time>
   </trkpt>
   <trkpt lat="53.3455800" lon="-6.3419080">
    <ele>4.1</ele>
    <time>2025-11-08T13:18:53Z</time>
   </trkpt>
   <trkpt lat="53.3456390" lon="-6.3419340">
    <ele>3.6</ele>
    <time>2025-11-08T13:18:58Z</time>
   </trkpt>
   <trkpt lat="53.3456740" lon="-6.3420240">
    <ele>3.6</ele>
    <time>2025-11-08T13:19:04Z</time>
   </trkpt>
   <trkpt lat="53.3457110" lon="-6.3421070">
    <ele>3.9</ele>
    <time>2025-11-08T13:19:09Z</time>
   </trkpt>
   <trkpt lat="53.3457630" lon="-6.3421980">
    <ele>4.4</ele>
    <time>2025-11-08T13:19:15Z</time>
   </trkpt>
   <trkpt lat="53.3458050" lon="-6.3423030">
    <ele>4.9</ele>
    <time>2025-11-08T13:19:20Z</time>
   </trkpt>
   <trkpt lat="53.3458390" lon="-6.3424210">
    <ele>4.9</ele>
    <time>2025-11-08T13:19:26Z</time>
   </trkpt>
   <trkpt lat="53.3458580" lon="-6.3425250">
    <ele>5.2</ele>
    <time>2025-11-08T13:19:31Z</time>
   </trkpt>
   <trkpt lat="53.3458730" lon="-6.3426440">
    <ele>5.6</ele>
    <time>2025-11-08T13:19:37Z</time>
   </trkpt>
   <trkpt lat="53.3458920" lon="-6.3427530">
    <ele>6.3</ele>
    <time>2025-11-08T13:19:42Z</time>
   </trkpt>
   <trkpt lat="53.3459200" lon="-6.3428300">
    <ele>4.0</ele>
    <time>2025-11-08T13:20:02Z</time>
   </trkpt>
   <trkpt lat="53.3459480" lon="-6.3429570">
    <ele>6.4</ele>
    <time>2025-11-08T13:20:07Z</time>
   </trkpt>
   <trkpt lat="53.3459610" lon="-6.3430840">
    <ele>8.1</ele>
    <time>2025-11-08T13:20:12Z</time>
   </trkpt>
   <trkpt lat="53.3459820" lon="-6.3431980">
    <ele>9.2</ele>
    <time>2025-11-08T13:20:18Z</time>
   </trkpt>
   <trkpt lat="53.3460170" lon="-6.3433080">
    <ele>9.7</ele>
    <time>2025-11-08T13:20:23Z</time>
   </trkpt>
   <trkpt lat="53.3460560" lon="-6.3434060">
    <ele>10.1</ele>
    <time>2025-11-08T13:20:28Z</time>
   </trkpt>
   <trkpt lat="53.3460940" lon="-6.3435240">
    <ele>10.4</ele>
    <time>2025-11-08T13:20:34Z</time>
   </trkpt>
   <trkpt lat="53.3461190" lon="-6.3436300">
    <ele>10.5</ele>
    <time>2025-11-08T13:20:39Z</time>
   </trkpt>
   <trkpt lat="53.3461450" lon="-6.3437380">
    <ele>10.5</ele>
    <time>2025-11-08T13:20:45Z</time>
   </trkpt>
   <trkpt lat="53.3461960" lon="-6.3438130">
    <ele>10.5</ele>
    <time>2025-11-08T13:20:51Z</time>
   </trkpt>
   <trkpt lat="53.3462540" lon="-6.3438670">
    <ele>10.5</ele>
    <time>2025-11-08T13:20:56Z</time>
   </trkpt>
   <trkpt lat="53.3463070" lon="-6.3439510">
    <ele>10.6</ele>
    <time>2025-11-08T13:21:02Z</time>
   </trkpt>
   <trkpt lat="53.3463690" lon="-6.3440140">
    <ele>10.6</ele>
    <time>2025-11-08T13:21:07Z</time>
   </trkpt>
   <trkpt lat="53.3464330" lon="-6.3440850">
    <ele>10.6</ele>
    <time>2025-11-08T13:21:13Z</time>
   </trkpt>
   <trkpt lat="53.3464680" lon="-6.3441550">
    <ele>7.3</ele>
    <time>2025-11-08T13:21:30Z</time>
   </trkpt>
   <trkpt lat="53.3465350" lon="-6.3442630">
    <ele>8.9</ele>
    <time>2025-11-08T13:21:35Z</time>
   </trkpt>
   <trkpt lat="53.3465840" lon="-6.3443740">
    <ele>9.9</ele>
    <time>2025-11-08T13:21:41Z</time>
   </trkpt>
   <trkpt lat="53.3466460" lon="-6.3444490">
    <ele>10.3</ele>
    <time>2025-11-08T13:21:47Z</time>
   </trkpt>
   <trkpt lat="53.3466970" lon="-6.3445010">
    <ele>8.7</ele>
    <time>2025-11-08T13:22:04Z</time>
   </trkpt>
   <trkpt lat="53.3467510" lon="-6.3445830">
    <ele>9.7</ele>
    <time>2025-11-08T13:22:09Z</time>
   </trkpt>
   <trkpt lat="53.3468160" lon="-6.3446840">
    <ele>10.3</ele>
    <time>2025-11-08T13:22:15Z</time>
   </trkpt>
   <trkpt lat="53.3468710" lon="-6.3447750">
    <ele>10.6</ele>
    <time>2025-11-08T13:22:21Z</time>
   </trkpt>
   <trkpt lat="53.3469200" lon="-6.3448860">
    <ele>10.7</ele>
    <time>2025-11-08T13:22:26Z</time>
   </trkpt>
   <trkpt lat="53.3469690" lon="-6.3449860">
    <ele>10.8</ele>
    <time>2025-11-08T13:22:32Z</time>
   </trkpt>
   <trkpt lat="53.3470110" lon="-6.3450590">
    <ele>10.8</ele>
    <time>2025-11-08T13:22:37Z</time>
   </trkpt>
   <trkpt lat="53.3470680" lon="-6.3451490">
    <ele>10.8</ele>
    <time>2025-11-08T13:22:43Z</time>
   </trkpt>
   <trkpt lat="53.3471180" lon="-6.3452220">
    <ele>11.0</ele>
    <time>2025-11-08T13:22:48Z</time>
   </trkpt>
   <trkpt lat="53.3471700" lon="-6.3453310">
    <ele>11.4</ele>
    <time>2025-11-08T13:22:54Z</time>
   </trkpt>
   <trkpt lat="53.3472220" lon="-6.3454250">
    <ele>11.2</ele>
    <time>2025-11-08T13:23:00Z</time>
   </trkpt>
   <trkpt lat="53.3472720" lon="-6.3454770">
    <ele>11.1</ele>
    <time>2025-11-08T13:23:05Z</time>
   </trkpt>
   <trkpt lat="53.3473260" lon="-6.3455270">
    <ele>11.1</ele>
    <time>2025-11-08T13:23:10Z</time>
   </trkpt>
   <trkpt lat="53.3473730" lon="-6.3455820">
    <ele>11.0</ele>
    <time>2025-11-08T13:23:15Z</time>
   </trkpt>
   <trkpt lat="53.3474320" lon="-6.3456700">
    <ele>11.0</ele>
    <time>2025-11-08T13:23:21Z</time>
   </trkpt>
   <trkpt lat="53.3474830" lon="-6.3457150">
    <ele>11.1</ele>
    <time>2025-11-08T13:23:27Z</time>
   </trkpt>
   <trkpt lat="53.3475520" lon="-6.3457990">
    <ele>11.1</ele>
    <time>2025-11-08T13:23:33Z</time>
   </trkpt>
   <trkpt lat="53.3476100" lon="-6.3458760">
    <ele>11.2</ele>
    <time>2025-11-08T13:23:38Z</time>
   </trkpt>
   <trkpt lat="53.3476640" lon="-6.3459600">
    <ele>11.3</ele>
    <time>2025-11-08T13:23:44Z</time>
   </trkpt>
   <trkpt lat="53.3477340" lon="-6.3460450">
    <ele>11.4</ele>
    <time>2025-11-08T13:23:50Z</time>
   </trkpt>
   <trkpt lat="53.3477830" lon="-6.3460300">
    <ele>11.6</ele>
    <time>2025-11-08T13:23:56Z</time>
   </trkpt>
   <trkpt lat="53.3477590" lon="-6.3459640">
    <ele>8.1</ele>
    <time>2025-11-08T13:24:37Z</time>
   </trkpt>
   <trkpt lat="53.3478120" lon="-6.3459970">
    <ele>8.2</ele>
    <time>2025-11-08T13:25:40Z</time>
   </trkpt>
   <trkpt lat="53.3478800" lon="-6.3459750">
    <ele>9.4</ele>
    <time>2025-11-08T13:25:45Z</time>
   </trkpt>
   <trkpt lat="53.3479010" lon="-6.3458860">
    <ele>10.6</ele>
    <time>2025-11-08T13:25:50Z</time>
   </trkpt>
   <trkpt lat="53.3479120" lon="-6.3457960">
    <ele>11.2</ele>
    <time>2025-11-08T13:25:55Z</time>
   </trkpt>
   <trkpt lat="53.3479370" lon="-6.3456900">
    <ele>11.5</ele>
    <time>2025-11-08T13:26:01Z</time>
   </trkpt>
   <trkpt lat="53.3479660" lon="-6.3456060">
    <ele>11.4</ele>
    <time>2025-11-08T13:26:06Z</time>
   </trkpt>
   <trkpt lat="53.3479800" lon="-6.3455210">
    <ele>8.5</ele>
    <time>2025-11-08T13:27:58Z</time>
   </trkpt>
   <trkpt lat="53.3479970" lon="-6.3453600">
    <ele>10.5</ele>
    <time>2025-11-08T13:28:04Z</time>
   </trkpt>
   <trkpt lat="53.3480220" lon="-6.3452700">
    <ele>11.1</ele>
    <time>2025-11-08T13:28:09Z</time>
   </trkpt>
   <trkpt lat="53.3480580" lon="-6.3451860">
    <ele>11.4</ele>
    <time>2025-11-08T13:28:14Z</time>
   </trkpt>
   <trkpt lat="53.3480930" lon="-6.3450810">
    <ele>11.5</ele>
    <time>2025-11-08T13:28:19Z</time>
   </trkpt>
   <trkpt lat="53.3481250" lon="-6.3449550">
    <ele>11.3</ele>
    <time>2025-11-08T13:28:25Z</time>
   </trkpt>
   <trkpt lat="53.3481430" lon="-6.3448650">
    <ele>11.1</ele>
    <time>2025-11-08T13:28:30Z</time>
   </trkpt>
   <trkpt lat="53.3481670" lon="-6.3447710">
    <ele>11.1</ele>
    <time>2025-11-08T13:28:35Z</time>
   </trkpt>
   <trkpt lat="53.3481840" lon="-6.3446480">
    <ele>11.1</ele>
    <time>2025-11-08T13:28:41Z</time>
   </trkpt>
   <trkpt lat="53.3482030" lon="-6.3445290">
    <ele>11.1</ele>
    <time>2025-11-08T13:28:46Z</time>
   </trkpt>
   <trkpt lat="53.3482270" lon="-6.3444040">
    <ele>11.0</ele>
    <time>2025-11-08T13:28:52Z</time>
   </trkpt>
   <trkpt lat="53.3482790" lon="-6.3443610">
    <ele>10.9</ele>
    <time>2025-11-08T13:28:57Z</time>
   </trkpt>
   <trkpt lat="53.3483600" lon="-6.3443610">
    <ele>10.6</ele>
    <time>2025-11-08T13:29:03Z</time>
   </trkpt>
   <trkpt lat="53.3484290" lon="-6.3443990">
    <ele>10.4</ele>
    <time>2025-11-08T13:29:08Z</time>
   </trkpt>
   <trkpt lat="53.3485070" lon="-6.3443910">
    <ele>10.2</ele>
    <time>2025-11-08T13:29:14Z</time>
   </trkpt>
   <trkpt lat="53.3485830" lon="-6.3443960">
    <ele>9.9</ele>
    <time>2025-11-08T13:29:19Z</time>
   </trkpt>
   <trkpt lat="53.3486580" lon="-6.3444190">
    <ele>9.6</ele>
    <time>2025-11-08T13:29:25Z</time>
   </trkpt>
   <trkpt lat="53.3487000" lon="-6.3445270">
    <ele>9.5</ele>
    <time>2025-11-08T13:29:31Z</time>
   </trkpt>
   <trkpt lat="53.3487660" lon="-6.3446120">
    <ele>9.4</ele>
    <time>2025-11-08T13:29:37Z</time>
   </trkpt>
   <trkpt lat="53.3488240" lon="-6.3446800">
    <ele>9.4</ele>
    <time>2025-11-08T13:29:42Z</time>
   </trkpt>
   <trkpt lat="53.3488700" lon="-6.3446830">
    <ele>9.2</ele>
    <time>2025-11-08T13:29:48Z</time>
   </trkpt>
   <trkpt lat="53.3489100" lon="-6.3446390">
    <ele>9.0</ele>
    <time>2025-11-08T13:29:54Z</time>
   </trkpt>
   <trkpt lat="53.3489600" lon="-6.3445960">
    <ele>9.6</ele>
    <time>2025-11-08T13:29:59Z</time>
   </trkpt>
   <trkpt lat="53.3490070" lon="-6.3445890">
    <ele>9.5</ele>
    <time>2025-11-08T13:30:04Z</time>
   </trkpt>
   <trkpt lat="53.3490570" lon="-6.3445040">
    <ele>9.8</ele>
    <time>2025-11-08T13:30:09Z</time>
   </trkpt>
   <trkpt lat="53.3491100" lon="-6.3444140">
    <ele>11.1</ele>
    <time>2025-11-08T13:30:14Z</time>
   </trkpt>
   <trkpt lat="53.3491630" lon="-6.3443190">
    <ele>10.4</ele>
    <time>2025-11-08T13:30:20Z</time>
   </trkpt>
   <trkpt lat="53.3491850" lon="-6.3442150">
    <ele>9.9</ele>
    <time>2025-11-08T13:30:26Z</time>
   </trkpt>
   <trkpt lat="53.3492150" lon="-6.3441230">
    <ele>10.8</ele>
    <time>2025-11-08T13:30:31Z</time>
   </trkpt>
   <trkpt lat="53.3491840" lon="-6.3440540">
    <ele>6.6</ele>
    <time>2025-11-08T13:31:27Z</time>
   </trkpt>
   <trkpt lat="53.3491590" lon="-6.3439870">
    <ele>6.9</ele>
    <time>2025-11-08T13:31:34Z</time>
   </trkpt>
   <trkpt lat="53.3491400" lon="-6.3438800">
    <ele>7.0</ele>
    <time>2025-11-08T13:31:39Z</time>
   </trkpt>
   <trkpt lat="53.3490860" lon="-6.3437890">
    <ele>7.3</ele>
    <time>2025-11-08T13:31:44Z</time>
   </trkpt>
   <trkpt lat="53.3491310" lon="-6.3437810">
    <ele>9.3</ele>
    <time>2025-11-08T13:32:00Z</time>
   </trkpt>
   <trkpt lat="53.3491630" lon="-6.3436700">
    <ele>11.5</ele>
    <time>2025-11-08T13:32:06Z</time>
   </trkpt>
   <trkpt lat="53.3492090" lon="-6.3436500">
    <ele>12.8</ele>
    <time>2025-11-08T13:32:11Z</time>
   </trkpt>
   <trkpt lat="53.3492650" lon="-6.3436030">
    <ele>13.9</ele>
    <time>2025-11-08T13:32:17Z</time>
   </trkpt>
   <trkpt lat="53.3493280" lon="-6.3435750">
    <ele>15.4</ele>
    <time>2025-11-08T13:32:22Z</time>
   </trkpt>
   <trkpt lat="53.3493830" lon="-6.3435380">
    <ele>15.5</ele>
    <time>2025-11-08T13:32:27Z</time>
   </trkpt>
   <trkpt lat="53.3494420" lon="-6.3434510">
    <ele>15.4</ele>
    <time>2025-11-08T13:32:33Z</time>
   </trkpt>
   <trkpt lat="53.3495080" lon="-6.3433960">
    <ele>15.0</ele>
    <time>2025-11-08T13:32:39Z</time>
   </trkpt>
   <trkpt lat="53.3495750" lon="-6.3433700">
    <ele>15.3</ele>
    <time>2025-11-08T13:32:44Z</time>
   </trkpt>
   <trkpt lat="53.3496400" lon="-6.3433600">
    <ele>15.5</ele>
    <time>2025-11-08T13:32:49Z</time>
   </trkpt>
   <trkpt lat="53.3497180" lon="-6.3433470">
    <ele>16.1</ele>
    <time>2025-11-08T13:32:55Z</time>
   </trkpt>
   <trkpt lat="53.3497820" lon="-6.3433060">
    <ele>15.9</ele>
    <time>2025-11-08T13:33:00Z</time>
   </trkpt>
   <trkpt lat="53.3498250" lon="-6.3432790">
    <ele>15.8</ele>
    <time>2025-11-08T13:33:05Z</time>
   </trkpt>
   <trkpt lat="53.3498580" lon="-6.3433400">
    <ele>13.5</ele>
    <time>2025-11-08T13:34:14Z</time>
   </trkpt>
   <trkpt lat="53.3499890" lon="-6.3434030">
    <ele>15.3</ele>
    <time>2025-11-08T13:34:20Z</time>
   </trkpt>
   <trkpt lat="53.3500620" lon="-6.3434640">
    <ele>15.6</ele>
    <time>2025-11-08T13:34:25Z</time>
   </trkpt>
   <trkpt lat="53.3501390" lon="-6.3435290">
    <ele>15.6</ele>
    <time>2025-11-08T13:34:31Z</time>
   </trkpt>
   <trkpt lat="53.3501910" lon="-6.3435980">
    <ele>15.8</ele>
    <time>2025-11-08T13:34:36Z</time>
   </trkpt>
   <trkpt lat="53.3502450" lon="-6.3436790">
    <ele>16.6</ele>
    <time>2025-11-08T13:34:42Z</time>
   </trkpt>
   <trkpt lat="53.3502970" lon="-6.3437680">
    <ele>17.9</ele>
    <time>2025-11-08T13:34:48Z</time>
   </trkpt>
   <trkpt lat="53.3503500" lon="-6.3438190">
    <ele>18.1</ele>
    <time>2025-11-08T13:34:53Z</time>
   </trkpt>
   <trkpt lat="53.3503890" lon="-6.3438830">
    <ele>16.8</ele>
    <time>2025-11-08T13:34:58Z</time>
   </trkpt>
   <trkpt lat="53.3504310" lon="-6.3439600">
    <ele>16.3</ele>
    <time>2025-11-08T13:35:04Z</time>
   </trkpt>
   <trkpt lat="53.3504750" lon="-6.3440200">
    <ele>17.4</ele>
    <time>2025-11-08T13:35:10Z</time>
   </trkpt>
   <trkpt lat="53.3505010" lon="-6.3441000">
    <ele>18.4</ele>
    <time>2025-11-08T13:35:15Z</time>
   </trkpt>
   <trkpt lat="53.3505310" lon="-6.3441860">
    <ele>19.1</ele>
    <time>2025-11-08T13:35:21Z</time>
   </trkpt>
   <trkpt lat="53.3505810" lon="-6.3442720">
    <ele>19.3</ele>
    <time>2025-11-08T13:35:27Z</time>
   </trkpt>
   <trkpt lat="53.3506080" lon="-6.3443380">
    <ele>19.0</ele>
    <time>2025-11-08T13:35:33Z</time>
   </trkpt>
   <trkpt lat="53.3506350" lon="-6.3444070">
    <ele>19.0</ele>
    <time>2025-11-08T13:35:38Z</time>
   </trkpt>
   <trkpt lat="53.3506710" lon="-6.3444680">
    <ele>15.5</ele>
    <time>2025-11-08T13:35:58Z</time>
   </trkpt>
   <trkpt lat="53.3507120" lon="-6.3445750">
    <ele>18.9</ele>
    <time>2025-11-08T13:36:04Z</time>
   </trkpt>
   <trkpt lat="53.3507430" lon="-6.3446720">
    <ele>22.1</ele>
    <time>2025-11-08T13:36:09Z</time>
   </trkpt>
   <trkpt lat="53.3507730" lon="-6.3447560">
    <ele>23.8</ele>
    <time>2025-11-08T13:36:15Z</time>
   </trkpt>
   <trkpt lat="53.3508150" lon="-6.3448280">
    <ele>24.8</ele>
    <time>2025-11-08T13:36:20Z</time>
   </trkpt>
   <trkpt lat="53.3508650" lon="-6.3448960">
    <ele>26.2</ele>
    <time>2025-11-08T13:36:26Z</time>
   </trkpt>
   <trkpt lat="53.3509190" lon="-6.3449510">
    <ele>27.3</ele>
    <time>2025-11-08T13:36:31Z</time>
   </trkpt>
   <trkpt lat="53.3509710" lon="-6.3450260">
    <ele>28.3</ele>
    <time>2025-11-08T13:36:36Z</time>
   </trkpt>
   <trkpt lat="53.3510270" lon="-6.3450910">
    <ele>28.9</ele>
    <time>2025-11-08T13:36:42Z</time>
   </trkpt>
   <trkpt lat="53.3510800" lon="-6.3451640">
    <ele>29.0</ele>
    <time>2025-11-08T13:36:47Z</time>
   </trkpt>
   <trkpt lat="53.3511460" lon="-6.3452290">
    <ele>29.0</ele>
    <time>2025-11-08T13:36:53Z</time>
   </trkpt>
   <trkpt lat="53.3512110" lon="-6.3452750">
    <ele>29.2</ele>
    <time>2025-11-08T13:36:59Z</time>
   </trkpt>
   <trkpt lat="53.3512590" lon="-6.3453410">
    <ele>29.3</ele>
    <time>2025-11-08T13:37:05Z</time>
   </trkpt>
   <trkpt lat="53.3512870" lon="-6.3454190">
    <ele>29.5</ele>
    <time>2025-11-08T13:37:10Z</time>
   </trkpt>
   <trkpt lat="53.3513140" lon="-6.3455120">
    <ele>29.3</ele>
    <time>2025-11-08T13:37:16Z</time>
   </trkpt>
   <trkpt lat="53.3513550" lon="-6.3455650">
    <ele>29.4</ele>
    <time>2025-11-08T13:37:21Z</time>
   </trkpt>
   <trkpt lat="53.3514100" lon="-6.3456170">
    <ele>29.6</ele>
    <time>2025-11-08T13:37:27Z</time>
   </trkpt>
   <trkpt lat="53.3514620" lon="-6.3456930">
    <ele>29.5</ele>
    <time>2025-11-08T13:37:32Z</time>
   </trkpt>
   <trkpt lat="53.3515260" lon="-6.3457740">
    <ele>29.3</ele>
    <time>2025-11-08T13:37:38Z</time>
   </trkpt>
   <trkpt lat="53.3516000" lon="-6.3458250">
    <ele>29.2</ele>
    <time>2025-11-08T13:37:43Z</time>
   </trkpt>
   <trkpt lat="53.3516660" lon="-6.3458490">
    <ele>29.2</ele>
    <time>2025-11-08T13:37:49Z</time>
   </trkpt>
   <trkpt lat="53.3517240" lon="-6.3458690">
    <ele>29.1</ele>
    <time>2025-11-08T13:37:54Z</time>
   </trkpt>
   <trkpt lat="53.3517690" lon="-6.3458980">
    <ele>29.1</ele>
    <time>2025-11-08T13:38:00Z</time>
   </trkpt>
   <trkpt lat="53.3518350" lon="-6.3459200">
    <ele>29.8</ele>
    <time>2025-11-08T13:38:05Z</time>
   </trkpt>
   <trkpt lat="53.3518960" lon="-6.3459600">
    <ele>30.8</ele>
    <time>2025-11-08T13:38:10Z</time>
   </trkpt>
   <trkpt lat="53.3519460" lon="-6.3460640">
    <ele>31.2</ele>
    <time>2025-11-08T13:38:16Z</time>
   </trkpt>
   <trkpt lat="53.3519950" lon="-6.3461420">
    <ele>31.2</ele>
    <time>2025-11-08T13:38:21Z</time>
   </trkpt>
   <trkpt lat="53.3520500" lon="-6.3462160">
    <ele>32.1</ele>
    <time>2025-11-08T13:38:27Z</time>
   </trkpt>
   <trkpt lat="53.3521010" lon="-6.3462540">
    <ele>32.7</ele>
    <time>2025-11-08T13:38:33Z</time>
   </trkpt>
   <trkpt lat="53.3521460" lon="-6.3463120">
    <ele>33.6</ele>
    <time>2025-11-08T13:38:39Z</time>
   </trkpt>
   <trkpt lat="53.3521830" lon="-6.3463890">
    <ele>32.3</ele>
    <time>2025-11-08T13:38:44Z</time>
   </trkpt>
   <trkpt lat="53.3522530" lon="-6.3464360">
    <ele>31.6</ele>
    <time>2025-11-08T13:38:50Z</time>
   </trkpt>
   <trkpt lat="53.3523100" lon="-6.3464910">
    <ele>31.5</ele>
    <time>2025-11-08T13:38:56Z</time>
   </trkpt>
   <trkpt lat="53.3523670" lon="-6.3465340">
    <ele>31.9</ele>
    <time>2025-11-08T13:39:01Z</time>
   </trkpt>
   <trkpt lat="53.3524260" lon="-6.3465920">
    <ele>32.5</ele>
    <time>2025-11-08T13:39:07Z</time>
   </trkpt>
   <trkpt lat="53.3524930" lon="-6.3466490">
    <ele>32.9</ele>
    <time>2025-11-08T13:39:12Z</time>
   </trkpt>
   <trkpt lat="53.3525500" lon="-6.3466840">
    <ele>32.9</ele>
    <time>2025-11-08T13:39:17Z</time>
   </trkpt>
   <trkpt lat="53.3526120" lon="-6.3467130">
    <ele>32.6</ele>
    <time>2025-11-08T13:39:22Z</time>
   </trkpt>
   <trkpt lat="53.3526710" lon="-6.3467690">
    <ele>32.7</ele>
    <time>2025-11-08T13:39:27Z</time>
   </trkpt>
   <trkpt lat="53.3527200" lon="-6.3468310">
    <ele>32.8</ele>
    <time>2025-11-08T13:39:32Z</time>
   </trkpt>
   <trkpt lat="53.3527890" lon="-6.3468780">
    <ele>33.6</ele>
    <time>2025-11-08T13:39:38Z</time>
   </trkpt>
   <trkpt lat="53.3528500" lon="-6.3469170">
    <ele>34.0</ele>
    <time>2025-11-08T13:39:43Z</time>
   </trkpt>
   <trkpt lat="53.3529150" lon="-6.3469900">
    <ele>34.1</ele>
    <time>2025-11-08T13:39:49Z</time>
   </trkpt>
   <trkpt lat="53.3529730" lon="-6.3470760">
    <ele>34.4</ele>
    <time>2025-11-08T13:39:54Z</time>
   </trkpt>
   <trkpt lat="53.3530390" lon="-6.3471200">
    <ele>34.4</ele>
    <time>2025-11-08T13:40:00Z</time>
   </trkpt>
   <trkpt lat="53.3530970" lon="-6.3471640">
    <ele>34.2</ele>
    <time>2025-11-08T13:40:06Z</time>
   </trkpt>
   <trkpt lat="53.3531610" lon="-6.3471920">
    <ele>34.0</ele>
    <time>2025-11-08T13:40:11Z</time>
   </trkpt>
   <trkpt lat="53.3532370" lon="-6.3471900">
    <ele>34.6</ele>
    <time>2025-11-08T13:40:17Z</time>
   </trkpt>
   <trkpt lat="53.3533080" lon="-6.3472930">
    <ele>34.7</ele>
    <time>2025-11-08T13:40:23Z</time>
   </trkpt>
   <trkpt lat="53.3533520" lon="-6.3473710">
    <ele>34.1</ele>
    <time>2025-11-08T13:40:28Z</time>
   </trkpt>
   <trkpt lat="53.3534160" lon="-6.3474780">
    <ele>33.2</ele>
    <time>2025-11-08T13:40:33Z</time>
   </trkpt>
   <trkpt lat="53.3534900" lon="-6.3475300">
    <ele>33.1</ele>
    <time>2025-11-08T13:40:39Z</time>
   </trkpt>
   <trkpt lat="53.3535600" lon="-6.3475770">
    <ele>33.0</ele>
    <time>2025-11-08T13:40:45Z</time>
   </trkpt>
   <trkpt lat="53.3536150" lon="-6.3476430">
    <ele>32.6</ele>
    <time>2025-11-08T13:40:51Z</time>
   </trkpt>
   <trkpt lat="53.3536730" lon="-6.3477410">
    <ele>32.3</ele>
    <time>2025-11-08T13:40:56Z</time>
   </trkpt>
   <trkpt lat="53.3537190" lon="-6.3478130">
    <ele>31.9</ele>
    <time>2025-11-08T13:41:01Z</time>
   </trkpt>
   <trkpt lat="53.3537680" lon="-6.3479070">
    <ele>31.8</ele>
    <time>2025-11-08T13:41:06Z</time>
   </trkpt>
   <trkpt lat="53.3538170" lon="-6.3479890">
    <ele>32.2</ele>
    <time>2025-11-08T13:41:11Z</time>
   </trkpt>
   <trkpt lat="53.3538870" lon="-6.3480730">
    <ele>32.0</ele>
    <time>2025-11-08T13:41:17Z</time>
   </trkpt>
   <trkpt lat="53.3539330" lon="-6.3481490">
    <ele>30.6</ele>
    <time>2025-11-08T13:41:22Z</time>
   </trkpt>
   <trkpt lat="53.3539740" lon="-6.3482470">
    <ele>29.9</ele>
    <time>2025-11-08T13:41:27Z</time>
   </trkpt>
   <trkpt lat="53.3540150" lon="-6.3483370">
    <ele>29.2</ele>
    <time>2025-11-08T13:41:33Z</time>
   </trkpt>
   <trkpt lat="53.3540650" lon="-6.3484160">
    <ele>29.2</ele>
    <time>2025-11-08T13:41:38Z</time>
   </trkpt>
   <trkpt lat="53.3541110" lon="-6.3485050">
    <ele>28.9</ele>
    <time>2025-11-08T13:41:44Z</time>
   </trkpt>
   <trkpt lat="53.3541480" lon="-6.3485850">
    <ele>28.6</ele>
    <time>2025-11-08T13:41:49Z</time>
   </trkpt>
   <trkpt lat="53.3541970" lon="-6.3486870">
    <ele>28.0</ele>
    <time>2025-11-08T13:41:55Z</time>
   </trkpt>
   <trkpt lat="53.3542320" lon="-6.3487710">
    <ele>27.0</ele>
    <time>2025-11-08T13:42:00Z</time>
   </trkpt>
   <trkpt lat="53.3542690" lon="-6.3488720">
    <ele>26.7</ele>
    <time>2025-11-08T13:42:05Z</time>
   </trkpt>
   <trkpt lat="53.3543100" lon="-6.3489570">
    <ele>26.6</ele>
    <time>2025-11-08T13:42:10Z</time>
   </trkpt>
   <trkpt lat="53.3543580" lon="-6.3490250">
    <ele>26.8</ele>
    <time>2025-11-08T13:42:15Z</time>
   </trkpt>
   <trkpt lat="53.3544010" lon="-6.3491380">
    <ele>26.7</ele>
    <time>2025-11-08T13:42:21Z</time>
   </trkpt>
   <trkpt lat="53.3544360" lon="-6.3492550">
    <ele>26.4</ele>
    <time>2025-11-08T13:42:26Z</time>
   </trkpt>
   <trkpt lat="53.3544750" lon="-6.3493790">
    <ele>25.7</ele>
    <time>2025-11-08T13:42:32Z</time>
   </trkpt>
   <trkpt lat="53.3545080" lon="-6.3494490">
    <ele>25.4</ele>
    <time>2025-11-08T13:42:37Z</time>
   </trkpt>
   <trkpt lat="53.3545810" lon="-6.3495050">
    <ele>25.6</ele>
    <time>2025-11-08T13:42:43Z</time>
   </trkpt>
   <trkpt lat="53.3545870" lon="-6.3495820">
    <ele>22.6</ele>
    <time>2025-11-08T13:42:59Z</time>
   </trkpt>
   <trkpt lat="53.3546160" lon="-6.3496750">
    <ele>22.6</ele>
    <time>2025-11-08T13:43:05Z</time>
   </trkpt>
   <trkpt lat="53.3546750" lon="-6.3497610">
    <ele>23.8</ele>
    <time>2025-11-08T13:43:11Z</time>
   </trkpt>
   <trkpt lat="53.3547370" lon="-6.3498140">
    <ele>24.2</ele>
    <time>2025-11-08T13:43:16Z</time>
   </trkpt>
   <trkpt lat="53.3548070" lon="-6.3498410">
    <ele>24.4</ele>
    <time>2025-11-08T13:43:22Z</time>
   </trkpt>
   <trkpt lat="53.3548800" lon="-6.3499030">
    <ele>24.5</ele>
    <time>2025-11-08T13:43:28Z</time>
   </trkpt>
   <trkpt lat="53.3549460" lon="-6.3500010">
    <ele>24.9</ele>
    <time>2025-11-08T13:43:33Z</time>
   </trkpt>
   <trkpt lat="53.3550100" lon="-6.3500770">
    <ele>24.9</ele>
    <time>2025-11-08T13:43:39Z</time>
   </trkpt>
   <trkpt lat="53.3550820" lon="-6.3501020">
    <ele>24.5</ele>
    <time>2025-11-08T13:43:44Z</time>
   </trkpt>
   <trkpt lat="53.3551690" lon="-6.3501170">
    <ele>24.2</ele>
    <time>2025-11-08T13:43:50Z</time>
   </trkpt>
   <trkpt lat="53.3552450" lon="-6.3501320">
    <ele>24.1</ele>
    <time>2025-11-08T13:43:55Z</time>
   </trkpt>
   <trkpt lat="53.3553320" lon="-6.3501860">
    <ele>24.3</ele>
    <time>2025-11-08T13:44:01Z</time>
   </trkpt>
   <trkpt lat="53.3553770" lon="-6.3502250">
    <ele>24.3</ele>
    <time>2025-11-08T13:44:06Z</time>
   </trkpt>
   <trkpt lat="53.3554480" lon="-6.3502810">
    <ele>24.0</ele>
    <time>2025-11-08T13:44:12Z</time>
   </trkpt>
   <trkpt lat="53.3555090" lon="-6.3502970">
    <ele>23.7</ele>
    <time>2025-11-08T13:44:18Z</time>
   </trkpt>
   <trkpt lat="53.3555770" lon="-6.3503270">
    <ele>23.4</ele>
    <time>2025-11-08T13:44:23Z</time>
   </trkpt>
   <trkpt lat="53.3556540" lon="-6.3503340">
    <ele>23.3</ele>
    <time>2025-11-08T13:44:29Z</time>
   </trkpt>
   <trkpt lat="53.3557240" lon="-6.3503590">
    <ele>23.1</ele>
    <time>2025-11-08T13:44:34Z</time>
   </trkpt>
   <trkpt lat="53.3557930" lon="-6.3504140">
    <ele>23.1</ele>
    <time>2025-11-08T13:44:40Z</time>
   </trkpt>
   <trkpt lat="53.3558550" lon="-6.3504690">
    <ele>23.0</ele>
    <time>2025-11-08T13:44:45Z</time>
   </trkpt>
   <trkpt lat="53.3559390" lon="-6.3505390">
    <ele>23.1</ele>
    <time>2025-11-08T13:44:51Z</time>
   </trkpt>
   <trkpt lat="53.3560040" lon="-6.3505850">
    <ele>23.1</ele>
    <time>2025-11-08T13:44:56Z</time>
   </trkpt>
   <trkpt lat="53.3560830" lon="-6.3505980">
    <ele>23.1</ele>
    <time>2025-11-08T13:45:02Z</time>
   </trkpt>
   <trkpt lat="53.3561590" lon="-6.3506060">
    <ele>23.1</ele>
    <time>2025-11-08T13:45:08Z</time>
   </trkpt>
   <trkpt lat="53.3562210" lon="-6.3506000">
    <ele>23.2</ele>
    <time>2025-11-08T13:45:13Z</time>
   </trkpt>
   <trkpt lat="53.3563100" lon="-6.3506160">
    <ele>23.0</ele>
    <time>2025-11-08T13:45:19Z</time>
   </trkpt>
   <trkpt lat="53.3563750" lon="-6.3506090">
    <ele>23.4</ele>
    <time>2025-11-08T13:45:25Z</time>
   </trkpt>
   <trkpt lat="53.3564340" lon="-6.3505700">
    <ele>23.9</ele>
    <time>2025-11-08T13:45:30Z</time>
   </trkpt>
   <trkpt lat="53.3564910" lon="-6.3504850">
    <ele>24.2</ele>
    <time>2025-11-08T13:45:36Z</time>
   </trkpt>
   <trkpt lat="53.3565460" lon="-6.3504140">
    <ele>24.6</ele>
    <time>2025-11-08T13:45:41Z</time>
   </trkpt>
   <trkpt lat="53.3566170" lon="-6.3503650">
    <ele>25.0</ele>
    <time>2025-11-08T13:45:47Z</time>
   </trkpt>
   <trkpt lat="53.3566740" lon="-6.3503220">
    <ele>25.0</ele>
    <time>2025-11-08T13:45:52Z</time>
   </trkpt>
   <trkpt lat="53.3567480" lon="-6.3503050">
    <ele>25.7</ele>
    <time>2025-11-08T13:45:58Z</time>
   </trkpt>
   <trkpt lat="53.3568240" lon="-6.3503280">
    <ele>25.2</ele>
    <time>2025-11-08T13:46:04Z</time>
   </trkpt>
   <trkpt lat="53.3568820" lon="-6.3503470">
    <ele>24.6</ele>
    <time>2025-11-08T13:46:10Z</time>
   </trkpt>
   <trkpt lat="53.3569390" lon="-6.3504520">
    <ele>25.4</ele>
    <time>2025-11-08T13:46:15Z</time>
   </trkpt>
   <trkpt lat="53.3569830" lon="-6.3505370">
    <ele>25.5</ele>
    <time>2025-11-08T13:46:20Z</time>
   </trkpt>
   <trkpt lat="53.3570190" lon="-6.3506360">
    <ele>26.3</ele>
    <time>2025-11-08T13:46:26Z</time>
   </trkpt>
   <trkpt lat="53.3570280" lon="-6.3507600">
    <ele>26.2</ele>
    <time>2025-11-08T13:46:32Z</time>
   </trkpt>
   <trkpt lat="53.3569800" lon="-6.3509180">
    <ele>27.1</ele>
    <time>2025-11-08T13:46:38Z</time>
   </trkpt>
   <trkpt lat="53.3569220" lon="-6.3510540">
    <ele>27.3</ele>
    <time>2025-11-08T13:46:43Z</time>
   </trkpt>
   <trkpt lat="53.3568730" lon="-6.3511510">
    <ele>27.1</ele>
    <time>2025-11-08T13:46:48Z</time>
   </trkpt>
   <trkpt lat="53.3568220" lon="-6.3512420">
    <ele>28.0</ele>
    <time>2025-11-08T13:46:53Z</time>
   </trkpt>
   <trkpt lat="53.3567550" lon="-6.3513270">
    <ele>28.2</ele>
    <time>2025-11-08T13:46:59Z</time>
   </trkpt>
   <trkpt lat="53.3566910" lon="-6.3513750">
    <ele>28.9</ele>
    <time>2025-11-08T13:47:04Z</time>
   </trkpt>
   <trkpt lat="53.3566210" lon="-6.3514180">
    <ele>28.8</ele>
    <time>2025-11-08T13:47:10Z</time>
   </trkpt>
   <trkpt lat="53.3565620" lon="-6.3514590">
    <ele>28.6</ele>
    <time>2025-11-08T13:47:15Z</time>
   </trkpt>
   <trkpt lat="53.3565080" lon="-6.3515070">
    <ele>28.8</ele>
    <time>2025-11-08T13:47:20Z</time>
   </trkpt>
   <trkpt lat="53.3564570" lon="-6.3515870">
    <ele>29.8</ele>
    <time>2025-11-08T13:47:26Z</time>
   </trkpt>
   <trkpt lat="53.3564060" lon="-6.3516330">
    <ele>30.0</ele>
    <time>2025-11-08T13:47:31Z</time>
   </trkpt>
   <trkpt lat="53.3563570" lon="-6.3516660">
    <ele>30.6</ele>
    <time>2025-11-08T13:47:36Z</time>
   </trkpt>
   <trkpt lat="53.3563030" lon="-6.3517030">
    <ele>31.2</ele>
    <time>2025-11-08T13:47:41Z</time>
   </trkpt>
   <trkpt lat="53.3562540" lon="-6.3517630">
    <ele>31.3</ele>
    <time>2025-11-08T13:47:46Z</time>
   </trkpt>
   <trkpt lat="53.3561990" lon="-6.3518170">
    <ele>31.9</ele>
    <time>2025-11-08T13:47:52Z</time>
   </trkpt>
   <trkpt lat="53.3561420" lon="-6.3518930">
    <ele>32.1</ele>
    <time>2025-11-08T13:47:57Z</time>
   </trkpt>
   <trkpt lat="53.3560850" lon="-6.3519930">
    <ele>32.1</ele>
    <time>2025-11-08T13:48:02Z</time>
   </trkpt>
   <trkpt lat="53.3560540" lon="-6.3521010">
    <ele>33.0</ele>
    <time>2025-11-08T13:48:08Z</time>
   </trkpt>
   <trkpt lat="53.3560350" lon="-6.3522110">
    <ele>33.0</ele>
    <time>2025-11-08T13:48:13Z</time>
   </trkpt>
   <trkpt lat="53.3560150" lon="-6.3523260">
    <ele>33.8</ele>
    <time>2025-11-08T13:48:18Z</time>
   </trkpt>
   <trkpt lat="53.3560180" lon="-6.3524200">
    <ele>34.4</ele>
    <time>2025-11-08T13:48:24Z</time>
   </trkpt>
   <trkpt lat="53.3560100" lon="-6.3525170">
    <ele>35.0</ele>
    <time>2025-11-08T13:48:29Z</time>
   </trkpt>
   <trkpt lat="53.3560260" lon="-6.3526150">
    <ele>35.8</ele>
    <time>2025-11-08T13:48:34Z</time>
   </trkpt>
   <trkpt lat="53.3560660" lon="-6.3527040">
    <ele>35.5</ele>
    <time>2025-11-08T13:48:39Z</time>
   </trkpt>
   <trkpt lat="53.3561180" lon="-6.3527920">
    <ele>35.7</ele>
    <time>2025-11-08T13:48:45Z</time>
   </trkpt>
   <trkpt lat="53.3561670" lon="-6.3528760">
    <ele>36.1</ele>
    <time>2025-11-08T13:48:50Z</time>
   </trkpt>
   <trkpt lat="53.3562110" lon="-6.3529540">
    <ele>36.0</ele>
    <time>2025-11-08T13:48:55Z</time>
   </trkpt>
   <trkpt lat="53.3562670" lon="-6.3530200">
    <ele>35.9</ele>
    <time>2025-11-08T13:49:00Z</time>
   </trkpt>
   <trkpt lat="53.3563320" lon="-6.3530710">
    <ele>36.0</ele>
    <time>2025-11-08T13:49:05Z</time>
   </trkpt>
   <trkpt lat="53.3563860" lon="-6.3531440">
    <ele>36.0</ele>
    <time>2025-11-08T13:49:11Z</time>
   </trkpt>
   <trkpt lat="53.3564510" lon="-6.3531930">
    <ele>35.9</ele>
    <time>2025-11-08T13:49:16Z</time>
   </trkpt>
   <trkpt lat="53.3565220" lon="-6.3532550">
    <ele>35.5</ele>
    <time>2025-11-08T13:49:22Z</time>
   </trkpt>
   <trkpt lat="53.3565780" lon="-6.3533240">
    <ele>35.3</ele>
    <time>2025-11-08T13:49:27Z</time>
   </trkpt>
   <trkpt lat="53.3566350" lon="-6.3533950">
    <ele>35.3</ele>
    <time>2025-11-08T13:49:32Z</time>
   </trkpt>
   <trkpt lat="53.3566770" lon="-6.3534740">
    <ele>35.1</ele>
    <time>2025-11-08T13:49:37Z</time>
   </trkpt>
   <trkpt lat="53.3567210" lon="-6.3535770">
    <ele>35.5</ele>
    <time>2025-11-08T13:49:43Z</time>
   </trkpt>
   <trkpt lat="53.3567840" lon="-6.3536960">
    <ele>35.8</ele>
    <time>2025-11-08T13:49:49Z</time>
   </trkpt>
   <trkpt lat="53.3568580" lon="-6.3537610">
    <ele>35.9</ele>
    <time>2025-11-08T13:49:54Z</time>
   </trkpt>
   <trkpt lat="53.3569470" lon="-6.3537970">
    <ele>35.8</ele>
    <time>2025-11-08T13:50:00Z</time>
   </trkpt>
   <trkpt lat="53.3570090" lon="-6.3538400">
    <ele>35.2</ele>
    <time>2025-11-08T13:50:05Z</time>
   </trkpt>
   <trkpt lat="53.3570630" lon="-6.3539330">
    <ele>35.1</ele>
    <time>2025-11-08T13:50:11Z</time>
   </trkpt>
   <trkpt lat="53.3571100" lon="-6.3540020">
    <ele>35.6</ele>
    <time>2025-11-08T13:50:16Z</time>
   </trkpt>
   <trkpt lat="53.3571830" lon="-6.3540740">
    <ele>35.7</ele>
    <time>2025-11-08T13:50:22Z</time>
   </trkpt>
   <trkpt lat="53.3572510" lon="-6.3541150">
    <ele>35.6</ele>
    <time>2025-11-08T13:50:27Z</time>
   </trkpt>
   <trkpt lat="53.3573040" lon="-6.3541650">
    <ele>35.3</ele>
    <time>2025-11-08T13:50:32Z</time>
   </trkpt>
   <trkpt lat="53.3573440" lon="-6.3542430">
    <ele>35.4</ele>
    <time>2025-11-08T13:50:37Z</time>
   </trkpt>
   <trkpt lat="53.3573920" lon="-6.3543340">
    <ele>35.7</ele>
    <time>2025-11-08T13:50:43Z</time>
   </trkpt>
   <trkpt lat="53.3574420" lon="-6.3544060">
    <ele>36.0</ele>
    <time>2025-11-08T13:50:48Z</time>
   </trkpt>
   <trkpt lat="53.3575090" lon="-6.3544460">
    <ele>36.3</ele>
    <time>2025-11-08T13:50:54Z</time>
   </trkpt>
   <trkpt lat="53.3575350" lon="-6.3545180">
    <ele>33.3</ele>
    <time>2025-11-08T13:51:08Z</time>
   </trkpt>
   <trkpt lat="53.3576170" lon="-6.3546010">
    <ele>34.2</ele>
    <time>2025-11-08T13:51:13Z</time>
   </trkpt>
   <trkpt lat="53.3576980" lon="-6.3546180">
    <ele>36.5</ele>
    <time>2025-11-08T13:51:18Z</time>
   </trkpt>
   <trkpt lat="53.3577730" lon="-6.3546620">
    <ele>38.2</ele>
    <time>2025-11-08T13:51:24Z</time>
   </trkpt>
   <trkpt lat="53.3578360" lon="-6.3547010">
    <ele>38.3</ele>
    <time>2025-11-08T13:51:29Z</time>
   </trkpt>
   <trkpt lat="53.3578910" lon="-6.3547510">
    <ele>38.9</ele>
    <time>2025-11-08T13:51:34Z</time>
   </trkpt>
   <trkpt lat="53.3579220" lon="-6.3548350">
    <ele>39.7</ele>
    <time>2025-11-08T13:51:39Z</time>
   </trkpt>
   <trkpt lat="53.3579580" lon="-6.3549160">
    <ele>40.1</ele>
    <time>2025-11-08T13:51:44Z</time>
   </trkpt>
   <trkpt lat="53.3580020" lon="-6.3549810">
    <ele>40.3</ele>
    <time>2025-11-08T13:51:49Z</time>
   </trkpt>
   <trkpt lat="53.3580730" lon="-6.3550420">
    <ele>40.8</ele>
    <time>2025-11-08T13:51:55Z</time>
   </trkpt>
   <trkpt lat="53.3581440" lon="-6.3551050">
    <ele>40.9</ele>
    <time>2025-11-08T13:52:00Z</time>
   </trkpt>
   <trkpt lat="53.3582020" lon="-6.3551460">
    <ele>41.0</ele>
    <time>2025-11-08T13:52:05Z</time>
   </trkpt>
   <trkpt lat="53.3582800" lon="-6.3551840">
    <ele>41.4</ele>
    <time>2025-11-08T13:52:11Z</time>
   </trkpt>
   <trkpt lat="53.3583440" lon="-6.3552140">
    <ele>41.4</ele>
    <time>2025-11-08T13:52:16Z</time>
   </trkpt>
   <trkpt lat="53.3584060" lon="-6.3552770">
    <ele>41.5</ele>
    <time>2025-11-08T13:52:22Z</time>
   </trkpt>
   <trkpt lat="53.3584680" lon="-6.3553600">
    <ele>41.1</ele>
    <time>2025-11-08T13:52:28Z</time>
   </trkpt>
   <trkpt lat="53.3585270" lon="-6.3554210">
    <ele>41.2</ele>
    <time>2025-11-08T13:52:33Z</time>
   </trkpt>
   <trkpt lat="53.3585750" lon="-6.3554720">
    <ele>41.9</ele>
    <time>2025-11-08T13:52:39Z</time>
   </trkpt>
   <trkpt lat="53.3585990" lon="-6.3555480">
    <ele>38.9</ele>
    <time>2025-11-08T13:52:55Z</time>
   </trkpt>
   <trkpt lat="53.3586460" lon="-6.3556180">
    <ele>41.3</ele>
    <time>2025-11-08T13:53:01Z</time>
   </trkpt>
   <trkpt lat="53.3587220" lon="-6.3556260">
    <ele>41.8</ele>
    <time>2025-11-08T13:53:06Z</time>
   </trkpt>
   <trkpt lat="53.3587890" lon="-6.3557040">
    <ele>42.3</ele>
    <time>2025-11-08T13:53:12Z</time>
   </trkpt>
   <trkpt lat="53.3588310" lon="-6.3558050">
    <ele>42.3</ele>
    <time>2025-11-08T13:53:18Z</time>
   </trkpt>
   <trkpt lat="53.3588860" lon="-6.3558470">
    <ele>42.7</ele>
    <time>2025-11-08T13:53:23Z</time>
   </trkpt>
   <trkpt lat="53.3589510" lon="-6.3558300">
    <ele>44.0</ele>
    <time>2025-11-08T13:53:28Z</time>
   </trkpt>
   <trkpt lat="53.3590100" lon="-6.3558110">
    <ele>44.9</ele>
    <time>2025-11-08T13:53:33Z</time>
   </trkpt>
   <trkpt lat="53.3590680" lon="-6.3557750">
    <ele>46.5</ele>
    <time>2025-11-08T13:53:39Z</time>
   </trkpt>
   <trkpt lat="53.3591210" lon="-6.3557140">
    <ele>47.5</ele>
    <time>2025-11-08T13:53:44Z</time>
   </trkpt>
   <trkpt lat="53.3591850" lon="-6.3556610">
    <ele>47.8</ele>
    <time>2025-11-08T13:53:50Z</time>
   </trkpt>
   <trkpt lat="53.3592500" lon="-6.3556120">
    <ele>47.3</ele>
    <time>2025-11-08T13:53:55Z</time>
   </trkpt>
   <trkpt lat="53.3593080" lon="-6.3555790">
    <ele>47.3</ele>
    <time>2025-11-08T13:54:01Z</time>
   </trkpt>
   <trkpt lat="53.3593660" lon="-6.3555480">
    <ele>47.8</ele>
    <time>2025-11-08T13:54:06Z</time>
   </trkpt>
   <trkpt lat="53.3594340" lon="-6.3554700">
    <ele>48.0</ele>
    <time>2025-11-08T13:54:12Z</time>
   </trkpt>
   <trkpt lat="53.3595040" lon="-6.3553960">
    <ele>47.5</ele>
    <time>2025-11-08T13:54:18Z</time>
   </trkpt>
   <trkpt lat="53.3595720" lon="-6.3553440">
    <ele>47.9</ele>
    <time>2025-11-08T13:54:23Z</time>
   </trkpt>
   <trkpt lat="53.3596350" lon="-6.3553060">
    <ele>48.2</ele>
    <time>2025-11-08T13:54:29Z</time>
   </trkpt>
   <trkpt lat="53.3597000" lon="-6.3552690">
    <ele>49.0</ele>
    <time>2025-11-08T13:54:34Z</time>
   </trkpt>
   <trkpt lat="53.3597620" lon="-6.3552430">
    <ele>49.9</ele>
    <time>2025-11-08T13:54:39Z</time>
   </trkpt>
   <trkpt lat="53.3598260" lon="-6.3552080">
    <ele>50.4</ele>
    <time>2025-11-08T13:54:45Z</time>
   </trkpt>
   <trkpt lat="53.3598620" lon="-6.3551560">
    <ele>50.5</ele>
    <time>2025-11-08T13:54:51Z</time>
   </trkpt>
   <trkpt lat="53.3599070" lon="-6.3550920">
    <ele>50.6</ele>
    <time>2025-11-08T13:54:56Z</time>
   </trkpt>
   <trkpt lat="53.3599570" lon="-6.3550400">
    <ele>50.7</ele>
    <time>2025-11-08T13:55:01Z</time>
   </trkpt>
   <trkpt lat="53.3600160" lon="-6.3550210">
    <ele>50.8</ele>
    <time>2025-11-08T13:55:06Z</time>
   </trkpt>
   <trkpt lat="53.3600790" lon="-6.3549970">
    <ele>51.1</ele>
    <time>2025-11-08T13:55:12Z</time>
   </trkpt>
   <trkpt lat="53.3601290" lon="-6.3549540">
    <ele>51.4</ele>
    <time>2025-11-08T13:55:17Z</time>
   </trkpt>
   <trkpt lat="53.3601930" lon="-6.3549120">
    <ele>51.2</ele>
    <time>2025-11-08T13:55:22Z</time>
   </trkpt>
   <trkpt lat="53.3602700" lon="-6.3548640">
    <ele>51.1</ele>
    <time>2025-11-08T13:55:28Z</time>
   </trkpt>
   <trkpt lat="53.3603400" lon="-6.3548350">
    <ele>51.1</ele>
    <time>2025-11-08T13:55:34Z</time>
   </trkpt>
   <trkpt lat="53.3604150" lon="-6.3547980">
    <ele>51.5</ele>
    <time>2025-11-08T13:55:39Z</time>
   </trkpt>
   <trkpt lat="53.3604970" lon="-6.3547530">
    <ele>51.6</ele>
    <time>2025-11-08T13:55:45Z</time>
   </trkpt>
   <trkpt lat="53.3605600" lon="-6.3547140">
    <ele>51.6</ele>
    <time>2025-11-08T13:55:50Z</time>
   </trkpt>
   <trkpt lat="53.3606200" lon="-6.3546720">
    <ele>52.5</ele>
    <time>2025-11-08T13:55:55Z</time>
   </trkpt>
   <trkpt lat="53.3606900" lon="-6.3546410">
    <ele>52.3</ele>
    <time>2025-11-08T13:56:01Z</time>
   </trkpt>
   <trkpt lat="53.3607490" lon="-6.3546030">
    <ele>52.1</ele>
    <time>2025-11-08T13:56:06Z</time>
   </trkpt>
   <trkpt lat="53.3608090" lon="-6.3545520">
    <ele>52.2</ele>
    <time>2025-11-08T13:56:12Z</time>
   </trkpt>
   <trkpt lat="53.3608700" lon="-6.3545290">
    <ele>51.8</ele>
    <time>2025-11-08T13:56:17Z</time>
   </trkpt>
   <trkpt lat="53.3609440" lon="-6.3544800">
    <ele>51.7</ele>
    <time>2025-11-08T13:56:23Z</time>
   </trkpt>
   <trkpt lat="53.3610140" lon="-6.3544300">
    <ele>50.6</ele>
    <time>2025-11-08T13:56:29Z</time>
   </trkpt>
   <trkpt lat="53.3610880" lon="-6.3543940">
    <ele>50.1</ele>
    <time>2025-11-08T13:56:35Z</time>
   </trkpt>
   <trkpt lat="53.3611560" lon="-6.3543580">
    <ele>49.9</ele>
    <time>2025-11-08T13:56:40Z</time>
   </trkpt>
   <trkpt lat="53.3612260" lon="-6.3543080">
    <ele>49.7</ele>
    <time>2025-11-08T13:56:46Z</time>
   </trkpt>
   <trkpt lat="53.3612910" lon="-6.3542740">
    <ele>49.7</ele>
    <time>2025-11-08T13:56:51Z</time>
   </trkpt>
   <trkpt lat="53.3613610" lon="-6.3542380">
    <ele>49.5</ele>
    <time>2025-11-08T13:56:57Z</time>
   </trkpt>
   <trkpt lat="53.3614290" lon="-6.3542010">
    <ele>49.3</ele>
    <time>2025-11-08T13:57:03Z</time>
   </trkpt>
   <trkpt lat="53.3615010" lon="-6.3541660">
    <ele>49.5</ele>
    <time>2025-11-08T13:57:09Z</time>
   </trkpt>
   <trkpt lat="53.3615610" lon="-6.3541190">
    <ele>49.2</ele>
    <time>2025-11-08T13:57:14Z</time>
   </trkpt>
   <trkpt lat="53.3616140" lon="-6.3540880">
    <ele>49.5</ele>
    <time>2025-11-08T13:57:19Z</time>
   </trkpt>
   <trkpt lat="53.3616770" lon="-6.3540470">
    <ele>49.8</ele>
    <time>2025-11-08T13:57:25Z</time>
   </trkpt>
   <trkpt lat="53.3617460" lon="-6.3540050">
    <ele>50.0</ele>
    <time>2025-11-08T13:57:30Z</time>
   </trkpt>
   <trkpt lat="53.3618130" lon="-6.3539690">
    <ele>49.9</ele>
    <time>2025-11-08T13:57:35Z</time>
   </trkpt>
   <trkpt lat="53.3618850" lon="-6.3539120">
    <ele>49.8</ele>
    <time>2025-11-08T13:57:41Z</time>
   </trkpt>
   <trkpt lat="53.3619480" lon="-6.3538740">
    <ele>49.5</ele>
    <time>2025-11-08T13:57:46Z</time>
   </trkpt>
   <trkpt lat="53.3620170" lon="-6.3538200">
    <ele>49.8</ele>
    <time>2025-11-08T13:57:52Z</time>
   </trkpt>
   <trkpt lat="53.3620830" lon="-6.3537550">
    <ele>49.9</ele>
    <time>2025-11-08T13:57:58Z</time>
   </trkpt>
   <trkpt lat="53.3621370" lon="-6.3537230">
    <ele>49.9</ele>
    <time>2025-11-08T13:58:03Z</time>
   </trkpt>
   <trkpt lat="53.3622070" lon="-6.3536760">
    <ele>50.4</ele>
    <time>2025-11-08T13:58:09Z</time>
   </trkpt>
   <trkpt lat="53.3622810" lon="-6.3536320">
    <ele>50.4</ele>
    <time>2025-11-08T13:58:15Z</time>
   </trkpt>
   <trkpt lat="53.3623550" lon="-6.3536020">
    <ele>50.4</ele>
    <time>2025-11-08T13:58:21Z</time>
   </trkpt>
   <trkpt lat="53.3624190" lon="-6.3535600">
    <ele>50.1</ele>
    <time>2025-11-08T13:58:26Z</time>
   </trkpt>
   <trkpt lat="53.3624880" lon="-6.3535250">
    <ele>49.9</ele>
    <time>2025-11-08T13:58:32Z</time>
   </trkpt>
   <trkpt lat="53.3625550" lon="-6.3534780">
    <ele>50.0</ele>
    <time>2025-11-08T13:58:37Z</time>
   </trkpt>
   <trkpt lat="53.3626190" lon="-6.3534250">
    <ele>49.7</ele>
    <time>2025-11-08T13:58:43Z</time>
   </trkpt>
   <trkpt lat="53.3626780" lon="-6.3533890">
    <ele>49.8</ele>
    <time>2025-11-08T13:58:48Z</time>
   </trkpt>
   <trkpt lat="53.3627310" lon="-6.3533440">
    <ele>49.8</ele>
    <time>2025-11-08T13:58:53Z</time>
   </trkpt>
   <trkpt lat="53.3627900" lon="-6.3532880">
    <ele>49.2</ele>
    <time>2025-11-08T13:58:59Z</time>
   </trkpt>
   <trkpt lat="53.3628580" lon="-6.3532720">
    <ele>49.2</ele>
    <time>2025-11-08T13:59:04Z</time>
   </trkpt>
   <trkpt lat="53.3629260" lon="-6.3532730">
    <ele>49.5</ele>
    <time>2025-11-08T13:59:10Z</time>
   </trkpt>
   <trkpt lat="53.3629910" lon="-6.3532320">
    <ele>49.6</ele>
    <time>2025-11-08T13:59:15Z</time>
   </trkpt>
   <trkpt lat="53.3630510" lon="-6.3531520">
    <ele>49.4</ele>
    <time>2025-11-08T13:59:21Z</time>
   </trkpt>
   <trkpt lat="53.3630990" lon="-6.3531250">
    <ele>49.0</ele>
    <time>2025-11-08T13:59:26Z</time>
   </trkpt>
   <trkpt lat="53.3631730" lon="-6.3531040">
    <ele>48.8</ele>
    <time>2025-11-08T13:59:32Z</time>
   </trkpt>
   <trkpt lat="53.3632190" lon="-6.3530920">
    <ele>48.4</ele>
    <time>2025-11-08T13:59:38Z</time>
   </trkpt>
   <trkpt lat="53.3632710" lon="-6.3530960">
    <ele>45.3</ele>
    <time>2025-11-08T14:00:01Z</time>
   </trkpt>
   <trkpt lat="53.3633090" lon="-6.3530510">
    <ele>44.9</ele>
    <time>2025-11-08T14:00:12Z</time>
   </trkpt>
   <trkpt lat="53.3633450" lon="-6.3529940">
    <ele>44.3</ele>
    <time>2025-11-08T14:00:35Z</time>
   </trkpt>
   <trkpt lat="53.3634120" lon="-6.3529300">
    <ele>46.4</ele>
    <time>2025-11-08T14:00:41Z</time>
   </trkpt>
   <trkpt lat="53.3634690" lon="-6.3528860">
    <ele>47.8</ele>
    <time>2025-11-08T14:00:46Z</time>
   </trkpt>
   <trkpt lat="53.3635220" lon="-6.3528560">
    <ele>48.2</ele>
    <time>2025-11-08T14:00:52Z</time>
   </trkpt>
   <trkpt lat="53.3635780" lon="-6.3528170">
    <ele>47.9</ele>
    <time>2025-11-08T14:00:57Z</time>
   </trkpt>
   <trkpt lat="53.3636330" lon="-6.3527510">
    <ele>47.7</ele>
    <time>2025-11-08T14:01:03Z</time>
   </trkpt>
   <trkpt lat="53.3636760" lon="-6.3526890">
    <ele>48.2</ele>
    <time>2025-11-08T14:01:09Z</time>
   </trkpt>
   <trkpt lat="53.3637480" lon="-6.3526390">
    <ele>48.5</ele>
    <time>2025-11-08T14:01:14Z</time>
   </trkpt>
   <trkpt lat="53.3638060" lon="-6.3526010">
    <ele>48.7</ele>
    <time>2025-11-08T14:01:19Z</time>
   </trkpt>
   <trkpt lat="53.3638490" lon="-6.3525690">
    <ele>48.5</ele>
    <time>2025-11-08T14:01:24Z</time>
   </trkpt>
   <trkpt lat="53.3639130" lon="-6.3525450">
    <ele>48.2</ele>
    <time>2025-11-08T14:01:30Z</time>
   </trkpt>
   <trkpt lat="53.3639780" lon="-6.3525130">
    <ele>48.7</ele>
    <time>2025-11-08T14:01:35Z</time>
   </trkpt>
   <trkpt lat="53.3640380" lon="-6.3524850">
    <ele>49.6</ele>
    <time>2025-11-08T14:01:40Z</time>
   </trkpt>
   <trkpt lat="53.3640900" lon="-6.3524750">
    <ele>50.4</ele>
    <time>2025-11-08T14:01:46Z</time>
   </trkpt>
   <trkpt lat="53.3641370" lon="-6.3524400">
    <ele>50.3</ele>
    <time>2025-11-08T14:01:52Z</time>
   </trkpt>
   <trkpt lat="53.3641980" lon="-6.3524060">
    <ele>50.0</ele>
    <time>2025-11-08T14:01:57Z</time>
   </trkpt>
   <trkpt lat="53.3642420" lon="-6.3523880">
    <ele>47.0</ele>
    <time>2025-11-08T14:02:08Z</time>
   </trkpt>
   <trkpt lat="53.3642900" lon="-6.3523650">
    <ele>45.5</ele>
    <time>2025-11-08T14:02:26Z</time>
   </trkpt>
   <trkpt lat="53.3643750" lon="-6.3522830">
    <ele>46.6</ele>
    <time>2025-11-08T14:02:32Z</time>
   </trkpt>
   <trkpt lat="53.3644410" lon="-6.3522450">
    <ele>48.6</ele>
    <time>2025-11-08T14:02:37Z</time>
   </trkpt>
   <trkpt lat="53.3645190" lon="-6.3522120">
    <ele>49.9</ele>
    <time>2025-11-08T14:02:43Z</time>
   </trkpt>
   <trkpt lat="53.3645910" lon="-6.3521760">
    <ele>50.4</ele>
    <time>2025-11-08T14:02:48Z</time>
   </trkpt>
   <trkpt lat="53.3646790" lon="-6.3521270">
    <ele>50.5</ele>
    <time>2025-11-08T14:02:54Z</time>
   </trkpt>
   <trkpt lat="53.3647670" lon="-6.3520800">
    <ele>51.2</ele>
    <time>2025-11-08T14:02:59Z</time>
   </trkpt>
   <trkpt lat="53.3648380" lon="-6.3520300">
    <ele>51.5</ele>
    <time>2025-11-08T14:03:04Z</time>
   </trkpt>
   <trkpt lat="53.3649020" lon="-6.3519910">
    <ele>51.9</ele>
    <time>2025-11-08T14:03:10Z</time>
   </trkpt>
   <trkpt lat="53.3649660" lon="-6.3519530">
    <ele>51.9</ele>
    <time>2025-11-08T14:03:16Z</time>
   </trkpt>
   <trkpt lat="53.3650390" lon="-6.3519250">
    <ele>51.5</ele>
    <time>2025-11-08T14:03:21Z</time>
   </trkpt>
   <trkpt lat="53.3651060" lon="-6.3518900">
    <ele>51.5</ele>
    <time>2025-11-08T14:03:26Z</time>
   </trkpt>
   <trkpt lat="53.3651580" lon="-6.3518790">
    <ele>51.5</ele>
    <time>2025-11-08T14:03:31Z</time>
   </trkpt>
   <trkpt lat="53.3652090" lon="-6.3518460">
    <ele>51.7</ele>
    <time>2025-11-08T14:03:37Z</time>
   </trkpt>
   <trkpt lat="53.3652650" lon="-6.3518160">
    <ele>51.7</ele>
    <time>2025-11-08T14:03:42Z</time>
   </trkpt>
   <trkpt lat="53.3653360" lon="-6.3517530">
    <ele>51.8</ele>
    <time>2025-11-08T14:03:47Z</time>
   </trkpt>
   <trkpt lat="53.3654180" lon="-6.3517110">
    <ele>52.4</ele>
    <time>2025-11-08T14:03:53Z</time>
   </trkpt>
   <trkpt lat="53.3654820" lon="-6.3516810">
    <ele>52.5</ele>
    <time>2025-11-08T14:03:58Z</time>
   </trkpt>
   <trkpt lat="53.3655190" lon="-6.3516020">
    <ele>51.8</ele>
    <time>2025-11-08T14:04:04Z</time>
   </trkpt>
   <trkpt lat="53.3655710" lon="-6.3515450">
    <ele>52.3</ele>
    <time>2025-11-08T14:04:10Z</time>
   </trkpt>
   <trkpt lat="53.3656390" lon="-6.3514940">
    <ele>53.0</ele>
    <time>2025-11-08T14:04:15Z</time>
   </trkpt>
   <trkpt lat="53.3656930" lon="-6.3514590">
    <ele>52.0</ele>
    <time>2025-11-08T14:04:21Z</time>
   </trkpt>
   <trkpt lat="53.3657500" lon="-6.3514300">
    <ele>51.2</ele>
    <time>2025-11-08T14:04:26Z</time>
   </trkpt>
   <trkpt lat="53.3658070" lon="-6.3514120">
    <ele>51.2</ele>
    <time>2025-11-08T14:04:32Z</time>
   </trkpt>
   <trkpt lat="53.3658550" lon="-6.3513980">
    <ele>52.1</ele>
    <time>2025-11-08T14:04:39Z</time>
   </trkpt>
   <trkpt lat="53.3659020" lon="-6.3513790">
    <ele>52.5</ele>
    <time>2025-11-08T14:04:45Z</time>
   </trkpt>
   <trkpt lat="53.3659570" lon="-6.3513650">
    <ele>53.0</ele>
    <time>2025-11-08T14:04:51Z</time>
   </trkpt>
   <trkpt lat="53.3660110" lon="-6.3513570">
    <ele>53.0</ele>
    <time>2025-11-08T14:04:56Z</time>
   </trkpt>
   <trkpt lat="53.3660780" lon="-6.3513980">
    <ele>53.2</ele>
    <time>2025-11-08T14:05:02Z</time>
   </trkpt>
   <trkpt lat="53.3660880" lon="-6.3514750">
    <ele>53.2</ele>
    <time>2025-11-08T14:05:07Z</time>
   </trkpt>
   <trkpt lat="53.3660720" lon="-6.3515510">
    <ele>53.3</ele>
    <time>2025-11-08T14:05:13Z</time>
   </trkpt>
   <trkpt lat="53.3660450" lon="-6.3516130">
    <ele>53.4</ele>
    <time>2025-11-08T14:05:20Z</time>
   </trkpt>
   <trkpt lat="53.3660560" lon="-6.3516940">
    <ele>53.5</ele>
    <time>2025-11-08T14:05:25Z</time>
   </trkpt>
   <trkpt lat="53.3660520" lon="-6.3517920">
    <ele>53.6</ele>
    <time>2025-11-08T14:05:31Z</time>
   </trkpt>
   <trkpt lat="53.3660080" lon="-6.3519130">
    <ele>53.6</ele>
    <time>2025-11-08T14:05:36Z</time>
   </trkpt>
   <trkpt lat="53.3659490" lon="-6.3520460">
    <ele>53.6</ele>
    <time>2025-11-08T14:05:42Z</time>
   </trkpt>
   <trkpt lat="53.3659120" lon="-6.3521710">
    <ele>53.6</ele>
    <time>2025-11-08T14:05:47Z</time>
   </trkpt>
   <trkpt lat="53.3658840" lon="-6.3523120">
    <ele>53.6</ele>
    <time>2025-11-08T14:05:53Z</time>
   </trkpt>
   <trkpt lat="53.3658550" lon="-6.3524310">
    <ele>53.6</ele>
    <time>2025-11-08T14:05:59Z</time>
   </trkpt>
   <trkpt lat="53.3658340" lon="-6.3525430">
    <ele>53.6</ele>
    <time>2025-11-08T14:06:04Z</time>
   </trkpt>
   <trkpt lat="53.3658170" lon="-6.3526580">
    <ele>53.6</ele>
    <time>2025-11-08T14:06:09Z</time>
   </trkpt>
   <trkpt lat="53.3657770" lon="-6.3527830">
    <ele>53.6</ele>
    <time>2025-11-08T14:06:15Z</time>
   </trkpt>
   <trkpt lat="53.3657360" lon="-6.3528850">
    <ele>53.6</ele>
    <time>2025-11-08T14:06:21Z</time>
   </trkpt>
   <trkpt lat="53.3657080" lon="-6.3529870">
    <ele>53.6</ele>
    <time>2025-11-08T14:06:26Z</time>
   </trkpt>
   <trkpt lat="53.3656870" lon="-6.3531040">
    <ele>53.6</ele>
    <time>2025-11-08T14:06:32Z</time>
   </trkpt>
   <trkpt lat="53.3656660" lon="-6.3532270">
    <ele>53.6</ele>
    <time>2025-11-08T14:06:37Z</time>
   </trkpt>
   <trkpt lat="53.3656400" lon="-6.3533370">
    <ele>53.6</ele>
    <time>2025-11-08T14:06:42Z</time>
   </trkpt>
   <trkpt lat="53.3656210" lon="-6.3534450">
    <ele>53.4</ele>
    <time>2025-11-08T14:06:48Z</time>
   </trkpt>
   <trkpt lat="53.3655980" lon="-6.3535470">
    <ele>53.5</ele>
    <time>2025-11-08T14:06:53Z</time>
   </trkpt>
   <trkpt lat="53.3655470" lon="-6.3536490">
    <ele>53.6</ele>
    <time>2025-11-08T14:06:59Z</time>
   </trkpt>
   <trkpt lat="53.3655100" lon="-6.3537600">
    <ele>53.6</ele>
    <time>2025-11-08T14:07:04Z</time>
   </trkpt>
   <trkpt lat="53.3654740" lon="-6.3538640">
    <ele>53.6</ele>
    <time>2025-11-08T14:07:09Z</time>
   </trkpt>
   <trkpt lat="53.3654330" lon="-6.3539810">
    <ele>54.0</ele>
    <time>2025-11-08T14:07:15Z</time>
   </trkpt>
   <trkpt lat="53.3654110" lon="-6.3541120">
    <ele>53.9</ele>
    <time>2025-11-08T14:07:21Z</time>
   </trkpt>
   <trkpt lat="53.3653930" lon="-6.3542060">
    <ele>53.4</ele>
    <time>2025-11-08T14:07:26Z</time>
   </trkpt>
   <trkpt lat="53.3653760" lon="-6.3542920">
    <ele>52.9</ele>
    <time>2025-11-08T14:07:31Z</time>
   </trkpt>
   <trkpt lat="53.3653560" lon="-6.3544060">
    <ele>53.1</ele>
    <time>2025-11-08T14:07:37Z</time>
   </trkpt>
   <trkpt lat="53.3653180" lon="-6.3545180">
    <ele>53.0</ele>
    <time>2025-11-08T14:07:42Z</time>
   </trkpt>
   <trkpt lat="53.3652730" lon="-6.3546330">
    <ele>52.6</ele>
    <time>2025-11-08T14:07:48Z</time>
   </trkpt>
   <trkpt lat="53.3652440" lon="-6.3547400">
    <ele>52.8</ele>
    <time>2025-11-08T14:07:53Z</time>
   </trkpt>
   <trkpt lat="53.3652240" lon="-6.3548440">
    <ele>53.2</ele>
    <time>2025-11-08T14:07:59Z</time>
   </trkpt>
   <trkpt lat="53.3652130" lon="-6.3549260">
    <ele>53.4</ele>
    <time>2025-11-08T14:08:04Z</time>
   </trkpt>
   <trkpt lat="53.3652090" lon="-6.3550070">
    <ele>53.1</ele>
    <time>2025-11-08T14:08:09Z</time>
   </trkpt>
   <trkpt lat="53.3651880" lon="-6.3551170">
    <ele>53.0</ele>
    <time>2025-11-08T14:08:15Z</time>
   </trkpt>
   <trkpt lat="53.3651760" lon="-6.3552190">
    <ele>52.9</ele>
    <time>2025-11-08T14:08:20Z</time>
   </trkpt>
   <trkpt lat="53.3651670" lon="-6.3553250">
    <ele>52.4</ele>
    <time>2025-11-08T14:08:25Z</time>
   </trkpt>
   <trkpt lat="53.3651650" lon="-6.3554620">
    <ele>52.1</ele>
    <time>2025-11-08T14:08:31Z</time>
   </trkpt>
   <trkpt lat="53.3651640" lon="-6.3555770">
    <ele>52.7</ele>
    <time>2025-11-08T14:08:36Z</time>
   </trkpt>
   <trkpt lat="53.3651630" lon="-6.3556910">
    <ele>52.5</ele>
    <time>2025-11-08T14:08:42Z</time>
   </trkpt>
   <trkpt lat="53.3651560" lon="-6.3557790">
    <ele>52.3</ele>
    <time>2025-11-08T14:08:47Z</time>
   </trkpt>
   <trkpt lat="53.3651450" lon="-6.3558890">
    <ele>52.7</ele>
    <time>2025-11-08T14:08:52Z</time>
   </trkpt>
   <trkpt lat="53.3651350" lon="-6.3559970">
    <ele>53.2</ele>
    <time>2025-11-08T14:08:58Z</time>
   </trkpt>
   <trkpt lat="53.3651320" lon="-6.3560740">
    <ele>53.9</ele>
    <time>2025-11-08T14:09:03Z</time>
   </trkpt>
   <trkpt lat="53.3651290" lon="-6.3561830">
    <ele>54.1</ele>
    <time>2025-11-08T14:09:09Z</time>
   </trkpt>
   <trkpt lat="53.3651320" lon="-6.3562920">
    <ele>53.7</ele>
    <time>2025-11-08T14:09:15Z</time>
   </trkpt>
   <trkpt lat="53.3651240" lon="-6.3563920">
    <ele>53.8</ele>
    <time>2025-11-08T14:09:21Z</time>
   </trkpt>
   <trkpt lat="53.3651140" lon="-6.3564830">
    <ele>53.8</ele>
    <time>2025-11-08T14:09:27Z</time>
   </trkpt>
   <trkpt lat="53.3651050" lon="-6.3566140">
    <ele>54.3</ele>
    <time>2025-11-08T14:09:32Z</time>
   </trkpt>
   <trkpt lat="53.3651140" lon="-6.3567300">
    <ele>54.9</ele>
    <time>2025-11-08T14:09:37Z</time>
   </trkpt>
   <trkpt lat="53.3651350" lon="-6.3568280">
    <ele>55.6</ele>
    <time>2025-11-08T14:09:42Z</time>
   </trkpt>
   <trkpt lat="53.3651490" lon="-6.3569490">
    <ele>56.1</ele>
    <time>2025-11-08T14:09:48Z</time>
   </trkpt>
   <trkpt lat="53.3651660" lon="-6.3570480">
    <ele>56.0</ele>
    <time>2025-11-08T14:09:53Z</time>
   </trkpt>
   <trkpt lat="53.3651940" lon="-6.3571120">
    <ele>56.9</ele>
    <time>2025-11-08T14:10:00Z</time>
   </trkpt>
   <trkpt lat="53.3652350" lon="-6.3571610">
    <ele>57.8</ele>
    <time>2025-11-08T14:10:05Z</time>
   </trkpt>
   <trkpt lat="53.3652750" lon="-6.3572540">
    <ele>58.2</ele>
    <time>2025-11-08T14:10:10Z</time>
   </trkpt>
   <trkpt lat="53.3652920" lon="-6.3573530">
    <ele>58.3</ele>
    <time>2025-11-08T14:10:15Z</time>
   </trkpt>
   <trkpt lat="53.3653300" lon="-6.3574010">
    <ele>58.5</ele>
    <time>2025-11-08T14:10:21Z</time>
   </trkpt>
   <trkpt lat="53.3653680" lon="-6.3574510">
    <ele>58.4</ele>
    <time>2025-11-08T14:10:27Z</time>
   </trkpt>
   <trkpt lat="53.3653920" lon="-6.3575150">
    <ele>57.5</ele>
    <time>2025-11-08T14:10:33Z</time>
   </trkpt>
   <trkpt lat="53.3653870" lon="-6.3576000">
    <ele>56.4</ele>
    <time>2025-11-08T14:10:39Z</time>
   </trkpt>
   <trkpt lat="53.3653980" lon="-6.3576770">
    <ele>55.5</ele>
    <time>2025-11-08T14:10:47Z</time>
   </trkpt>
   <trkpt lat="53.3654230" lon="-6.3577410">
    <ele>54.9</ele>
    <time>2025-11-08T14:11:05Z</time>
   </trkpt>
   <trkpt lat="53.3654450" lon="-6.3578950">
    <ele>55.1</ele>
    <time>2025-11-08T14:11:29Z</time>
   </trkpt>
   <trkpt lat="53.3653990" lon="-6.3578280">
    <ele>55.9</ele>
    <time>2025-11-08T14:11:43Z</time>
   </trkpt>
   <trkpt lat="53.3653490" lon="-6.3578170">
    <ele>56.5</ele>
    <time>2025-11-08T14:13:54Z</time>
   </trkpt>
   <trkpt lat="53.3653950" lon="-6.3578940">
    <ele>56.8</ele>
    <time>2025-11-08T14:14:04Z</time>
   </trkpt>
   <trkpt lat="53.3654960" lon="-6.3580270">
    <ele>57.5</ele>
    <time>2025-11-08T14:14:09Z</time>
   </trkpt>
   <trkpt lat="53.3653310" lon="-6.3577870">
    <ele>58.6</ele>
    <time>2025-11-08T14:19:26Z</time>
   </trkpt>
   <trkpt lat="53.3653180" lon="-6.3578840">
    <ele>58.6</ele>
    <time>2025-11-08T14:19:32Z</time>
   </trkpt>
   <trkpt lat="53.3653250" lon="-6.3578100">
    <ele>58.7</ele>
    <time>2025-11-08T14:20:16Z</time>
   </trkpt>
   <trkpt lat="53.3653730" lon="-6.3577780">
    <ele>58.7</ele>
    <time>2025-11-08T14:21:37Z</time>
   </trkpt>
   <trkpt lat="53.3654180" lon="-6.3577710">
    <ele>58.6</ele>
    <time>2025-11-08T14:21:46Z</time>
   </trkpt>
   <trkpt lat="53.3655040" lon="-6.3577510">
    <ele>58.8</ele>
    <time>2025-11-08T14:21:52Z</time>
   </trkpt>
   <trkpt lat="53.3654690" lon="-6.3576970">
    <ele>57.9</ele>
    <time>2025-11-08T14:22:27Z</time>
   </trkpt>
   <trkpt lat="53.3655170" lon="-6.3577030">
    <ele>58.4</ele>
    <time>2025-11-08T14:22:41Z</time>
   </trkpt>
   <trkpt lat="53.3654690" lon="-6.3577070">
    <ele>58.6</ele>
    <time>2025-11-08T14:23:39Z</time>
   </trkpt>
   <trkpt lat="53.3654200" lon="-6.3576810">
    <ele>58.5</ele>
    <time>2025-11-08T14:23:46Z</time>
   </trkpt>
   <trkpt lat="53.3654670" lon="-6.3576480">
    <ele>58.6</ele>
    <time>2025-11-08T14:24:12Z</time>
   </trkpt>
   <trkpt lat="53.3655060" lon="-6.3576930">
    <ele>58.6</ele>
    <time>2025-11-08T14:25:58Z</time>
   </trkpt>
   <trkpt lat="53.3654570" lon="-6.3576830">
    <ele>58.6</ele>
    <time>2025-11-08T14:26:18Z</time>
   </trkpt>
   <trkpt lat="53.3655030" lon="-6.3576850">
    <ele>58.6</ele>
    <time>2025-11-08T14:27:00Z</time>
   </trkpt>
   <trkpt lat="53.3654830" lon="-6.3576160">
    <ele>58.6</ele>
    <time>2025-11-08T14:27:28Z</time>
   </trkpt>
   <trkpt lat="53.3654420" lon="-6.3575760">
    <ele>58.5</ele>
    <time>2025-11-08T14:27:52Z</time>
   </trkpt>
   <trkpt lat="53.3654860" lon="-6.3576150">
    <ele>58.6</ele>
    <time>2025-11-08T14:28:08Z</time>
   </trkpt>
   <trkpt lat="53.3655340" lon="-6.3576720">
    <ele>58.6</ele>
    <time>2025-11-08T14:28:14Z</time>
   </trkpt>
   <trkpt lat="53.3655750" lon="-6.3577120">
    <ele>58.6</ele>
    <time>2025-11-08T14:28:21Z</time>
   </trkpt>
   <trkpt lat="53.3655960" lon="-6.3577800">
    <ele>58.6</ele>
    <time>2025-11-08T14:29:05Z</time>
   </trkpt>
   <trkpt lat="53.3655470" lon="-6.3577630">
    <ele>58.5</ele>
    <time>2025-11-08T14:29:29Z</time>
   </trkpt>
   <trkpt lat="53.3655920" lon="-6.3577810">
    <ele>58.6</ele>
    <time>2025-11-08T14:30:08Z</time>
   </trkpt>
   <trkpt lat="53.3656260" lon="-6.3578300">
    <ele>58.6</ele>
    <time>2025-11-08T14:31:25Z</time>
   </trkpt>
   <trkpt lat="53.3656710" lon="-6.3578460">
    <ele>58.5</ele>
    <time>2025-11-08T14:31:48Z</time>
   </trkpt>
   <trkpt lat="53.3656120" lon="-6.3577480">
    <ele>58.5</ele>
    <time>2025-11-08T14:32:02Z</time>
   </trkpt>
   <trkpt lat="53.3655220" lon="-6.3577460">
    <ele>58.5</ele>
    <time>2025-11-08T14:32:10Z</time>
   </trkpt>
   <trkpt lat="53.3656260" lon="-6.3578460">
    <ele>58.5</ele>
    <time>2025-11-08T14:32:34Z</time>
   </trkpt>
   <trkpt lat="53.3656650" lon="-6.3578840">
    <ele>58.5</ele>
    <time>2025-11-08T14:32:44Z</time>
   </trkpt>
   <trkpt lat="53.3656330" lon="-6.3578030">
    <ele>58.5</ele>
    <time>2025-11-08T14:32:50Z</time>
   </trkpt>
   <trkpt lat="53.3655870" lon="-6.3577840">
    <ele>58.6</ele>
    <time>2025-11-08T14:33:16Z</time>
   </trkpt>
   <trkpt lat="53.3655490" lon="-6.3576980">
    <ele>58.6</ele>
    <time>2025-11-08T14:33:32Z</time>
   </trkpt>
   <trkpt lat="53.3655980" lon="-6.3577250">
    <ele>58.5</ele>
    <time>2025-11-08T14:34:14Z</time>
   </trkpt>
   <trkpt lat="53.3655720" lon="-6.3576550">
    <ele>58.5</ele>
    <time>2025-11-08T14:34:21Z</time>
   </trkpt>
   <trkpt lat="53.3654830" lon="-6.3576990">
    <ele>58.5</ele>
    <time>2025-11-08T14:34:26Z</time>
   </trkpt>
   <trkpt lat="53.3654300" lon="-6.3576360">
    <ele>58.5</ele>
    <time>2025-11-08T14:34:46Z</time>
   </trkpt>
   <trkpt lat="53.3654640" lon="-6.3576850">
    <ele>58.5</ele>
    <time>2025-11-08T14:34:52Z</time>
   </trkpt>
   <trkpt lat="53.3655440" lon="-6.3576830">
    <ele>58.6</ele>
    <time>2025-11-08T14:35:13Z</time>
   </trkpt>
   <trkpt lat="53.3656230" lon="-6.3577240">
    <ele>58.5</ele>
    <time>2025-11-08T14:35:27Z</time>
   </trkpt>
   <trkpt lat="53.3656120" lon="-6.3578030">
    <ele>58.5</ele>
    <time>2025-11-08T14:35:39Z</time>
   </trkpt>
   <trkpt lat="53.3655700" lon="-6.3578390">
    <ele>58.5</ele>
    <time>2025-11-08T14:35:47Z</time>
   </trkpt>
   <trkpt lat="53.3655380" lon="-6.3577810">
    <ele>58.5</ele>
    <time>2025-11-08T14:36:29Z</time>
   </trkpt>
   <trkpt lat="53.3654790" lon="-6.3577220">
    <ele>58.6</ele>
    <time>2025-11-08T14:37:44Z</time>
   </trkpt>
   <trkpt lat="53.3654790" lon="-6.3576420">
    <ele>58.6</ele>
    <time>2025-11-08T14:37:59Z</time>
   </trkpt>
   <trkpt lat="53.3655530" lon="-6.3577830">
    <ele>58.6</ele>
    <time>2025-11-08T14:38:44Z</time>
   </trkpt>
   <trkpt lat="53.3655040" lon="-6.3577990">
    <ele>58.6</ele>
    <time>2025-11-08T14:39:13Z</time>
   </trkpt>
   <trkpt lat="53.3655670" lon="-6.3580410">
    <ele>58.5</ele>
    <time>2025-11-08T14:39:21Z</time>
   </trkpt>
   <trkpt lat="53.3655330" lon="-6.3578640">
    <ele>58.5</ele>
    <time>2025-11-08T14:39:26Z</time>
   </trkpt>
   <trkpt lat="53.3654850" lon="-6.3577620">
    <ele>58.8</ele>
    <time>2025-11-08T14:42:07Z</time>
   </trkpt>
   <trkpt lat="53.3655440" lon="-6.3577770">
    <ele>58.6</ele>
    <time>2025-11-08T14:42:30Z</time>
   </trkpt>
   <trkpt lat="53.3655060" lon="-6.3578180">
    <ele>59.7</ele>
    <time>2025-11-08T14:43:42Z</time>
   </trkpt>
   <trkpt lat="53.3654580" lon="-6.3578300">
    <ele>60.1</ele>
    <time>2025-11-08T14:43:57Z</time>
   </trkpt>
   <trkpt lat="53.3654270" lon="-6.3579120">
    <ele>60.2</ele>
    <time>2025-11-08T14:44:03Z</time>
   </trkpt>
   <trkpt lat="53.3653980" lon="-6.3580260">
    <ele>60.3</ele>
    <time>2025-11-08T14:44:08Z</time>
   </trkpt>
   <trkpt lat="53.3653550" lon="-6.3580920">
    <ele>61.1</ele>
    <time>2025-11-08T14:44:13Z</time>
   </trkpt>
   <trkpt lat="53.3653420" lon="-6.3581680">
    <ele>61.5</ele>
    <time>2025-11-08T14:44:19Z</time>
   </trkpt>
   <trkpt lat="53.3653700" lon="-6.3582490">
    <ele>61.4</ele>
    <time>2025-11-08T14:44:25Z</time>
   </trkpt>
   <trkpt lat="53.3654280" lon="-6.3581920">
    <ele>63.3</ele>
    <time>2025-11-08T14:44:30Z</time>
   </trkpt>
   <trkpt lat="53.3654680" lon="-6.3581360">
    <ele>64.1</ele>
    <time>2025-11-08T14:44:35Z</time>
   </trkpt>
   <trkpt lat="53.3655150" lon="-6.3581420">
    <ele>64.3</ele>
    <time>2025-11-08T14:44:42Z</time>
   </trkpt>
   <trkpt lat="53.3655620" lon="-6.3581120">
    <ele>58.9</ele>
    <time>2025-11-08T14:45:10Z</time>
   </trkpt>
   <trkpt lat="53.3656110" lon="-6.3580020">
    <ele>60.9</ele>
    <time>2025-11-08T14:45:15Z</time>
   </trkpt>
   <trkpt lat="53.3656690" lon="-6.3579030">
    <ele>62.8</ele>
    <time>2025-11-08T14:45:21Z</time>
   </trkpt>
   <trkpt lat="53.3657180" lon="-6.3578190">
    <ele>64.1</ele>
    <time>2025-11-08T14:45:26Z</time>
   </trkpt>
   <trkpt lat="53.3657410" lon="-6.3577400">
    <ele>65.1</ele>
    <time>2025-11-08T14:45:32Z</time>
   </trkpt>
   <trkpt lat="53.3657630" lon="-6.3576460">
    <ele>66.1</ele>
    <time>2025-11-08T14:45:37Z</time>
   </trkpt>
   <trkpt lat="53.3657690" lon="-6.3575530">
    <ele>65.7</ele>
    <time>2025-11-08T14:45:43Z</time>
   </trkpt>
   <trkpt lat="53.3658030" lon="-6.3574910">
    <ele>65.2</ele>
    <time>2025-11-08T14:45:48Z</time>
   </trkpt>
   <trkpt lat="53.3658480" lon="-6.3574510">
    <ele>65.8</ele>
    <time>2025-11-08T14:45:53Z</time>
   </trkpt>
   <trkpt lat="53.3658810" lon="-6.3573990">
    <ele>67.1</ele>
    <time>2025-11-08T14:46:00Z</time>
   </trkpt>
   <trkpt lat="53.3659360" lon="-6.3573650">
    <ele>67.9</ele>
    <time>2025-11-08T14:46:06Z</time>
   </trkpt>
   <trkpt lat="53.3659830" lon="-6.3573400">
    <ele>68.3</ele>
    <time>2025-11-08T14:46:11Z</time>
   </trkpt>
   <trkpt lat="53.3660440" lon="-6.3573360">
    <ele>68.4</ele>
    <time>2025-11-08T14:46:17Z</time>
   </trkpt>
   <trkpt lat="53.3661020" lon="-6.3572840">
    <ele>68.5</ele>
    <time>2025-11-08T14:46:22Z</time>
   </trkpt>
   <trkpt lat="53.3661400" lon="-6.3572030">
    <ele>68.8</ele>
    <time>2025-11-08T14:46:27Z</time>
   </trkpt>
   <trkpt lat="53.3661870" lon="-6.3572070">
    <ele>64.7</ele>
    <time>2025-11-08T14:46:39Z</time>
   </trkpt>
   <trkpt lat="53.3662240" lon="-6.3571400">
    <ele>62.9</ele>
    <time>2025-11-08T14:46:49Z</time>
   </trkpt>
   <trkpt lat="53.3662710" lon="-6.3570170">
    <ele>64.4</ele>
    <time>2025-11-08T14:46:54Z</time>
   </trkpt>
   <trkpt lat="53.3663330" lon="-6.3569500">
    <ele>65.8</ele>
    <time>2025-11-08T14:47:00Z</time>
   </trkpt>
   <trkpt lat="53.3664040" lon="-6.3568980">
    <ele>66.3</ele>
    <time>2025-11-08T14:47:05Z</time>
   </trkpt>
   <trkpt lat="53.3664390" lon="-6.3568190">
    <ele>66.2</ele>
    <time>2025-11-08T14:47:10Z</time>
   </trkpt>
   <trkpt lat="53.3664530" lon="-6.3567180">
    <ele>65.9</ele>
    <time>2025-11-08T14:47:16Z</time>
   </trkpt>
   <trkpt lat="53.3664440" lon="-6.3566320">
    <ele>65.8</ele>
    <time>2025-11-08T14:47:22Z</time>
   </trkpt>
   <trkpt lat="53.3664310" lon="-6.3565290">
    <ele>65.6</ele>
    <time>2025-11-08T14:47:27Z</time>
   </trkpt>
   <trkpt lat="53.3664110" lon="-6.3564040">
    <ele>65.5</ele>
    <time>2025-11-08T14:47:33Z</time>
   </trkpt>
   <trkpt lat="53.3663680" lon="-6.3562900">
    <ele>65.1</ele>
    <time>2025-11-08T14:47:39Z</time>
   </trkpt>
   <trkpt lat="53.3663330" lon="-6.3561770">
    <ele>64.9</ele>
    <time>2025-11-08T14:47:44Z</time>
   </trkpt>
   <trkpt lat="53.3663110" lon="-6.3560460">
    <ele>64.6</ele>
    <time>2025-11-08T14:47:50Z</time>
   </trkpt>
   <trkpt lat="53.3662930" lon="-6.3559240">
    <ele>64.3</ele>
    <time>2025-11-08T14:47:56Z</time>
   </trkpt>
   <trkpt lat="53.3662920" lon="-6.3558090">
    <ele>63.6</ele>
    <time>2025-11-08T14:48:01Z</time>
   </trkpt>
   <trkpt lat="53.3663010" lon="-6.3556690">
    <ele>62.9</ele>
    <time>2025-11-08T14:48:07Z</time>
   </trkpt>
   <trkpt lat="53.3663160" lon="-6.3555250">
    <ele>62.0</ele>
    <time>2025-11-08T14:48:13Z</time>
   </trkpt>
   <trkpt lat="53.3663000" lon="-6.3553830">
    <ele>61.8</ele>
    <time>2025-11-08T14:48:18Z</time>
   </trkpt>
   <trkpt lat="53.3662870" lon="-6.3552450">
    <ele>61.3</ele>
    <time>2025-11-08T14:48:23Z</time>
   </trkpt>
   <trkpt lat="53.3662690" lon="-6.3550940">
    <ele>61.5</ele>
    <time>2025-11-08T14:48:29Z</time>
   </trkpt>
   <trkpt lat="53.3662780" lon="-6.3549540">
    <ele>61.5</ele>
    <time>2025-11-08T14:48:34Z</time>
   </trkpt>
   <trkpt lat="53.3662870" lon="-6.3548220">
    <ele>61.3</ele>
    <time>2025-11-08T14:48:40Z</time>
   </trkpt>
   <trkpt lat="53.3662900" lon="-6.3547420">
    <ele>61.3</ele>
    <time>2025-11-08T14:48:45Z</time>
   </trkpt>
   <trkpt lat="53.3662960" lon="-6.3546490">
    <ele>61.0</ele>
    <time>2025-11-08T14:48:50Z</time>
   </trkpt>
   <trkpt lat="53.3663060" lon="-6.3545540">
    <ele>60.7</ele>
    <time>2025-11-08T14:48:56Z</time>
   </trkpt>
   <trkpt lat="53.3663080" lon="-6.3544770">
    <ele>60.8</ele>
    <time>2025-11-08T14:49:02Z</time>
   </trkpt>
   <trkpt lat="53.3662840" lon="-6.3543590">
    <ele>60.8</ele>
    <time>2025-11-08T14:49:07Z</time>
   </trkpt>
   <trkpt lat="53.3662360" lon="-6.3542030">
    <ele>60.5</ele>
    <time>2025-11-08T14:49:13Z</time>
   </trkpt>
   <trkpt lat="53.3662240" lon="-6.3540770">
    <ele>60.2</ele>
    <time>2025-11-08T14:49:18Z</time>
   </trkpt>
   <trkpt lat="53.3662190" lon="-6.3539400">
    <ele>60.0</ele>
    <time>2025-11-08T14:49:25Z</time>
   </trkpt>
   <trkpt lat="53.3662390" lon="-6.3538320">
    <ele>59.3</ele>
    <time>2025-11-08T14:49:31Z</time>
   </trkpt>
   <trkpt lat="53.3662560" lon="-6.3537030">
    <ele>58.3</ele>
    <time>2025-11-08T14:49:37Z</time>
   </trkpt>
   <trkpt lat="53.3662200" lon="-6.3535740">
    <ele>57.8</ele>
    <time>2025-11-08T14:49:42Z</time>
   </trkpt>
   <trkpt lat="53.3661730" lon="-6.3534840">
    <ele>56.1</ele>
    <time>2025-11-08T14:49:48Z</time>
   </trkpt>
   <trkpt lat="53.3661510" lon="-6.3534070">
    <ele>54.4</ele>
    <time>2025-11-08T14:50:02Z</time>
   </trkpt>
   <trkpt lat="53.3661080" lon="-6.3532760">
    <ele>54.1</ele>
    <time>2025-11-08T14:50:08Z</time>
   </trkpt>
   <trkpt lat="53.3661600" lon="-6.3532650">
    <ele>53.8</ele>
    <time>2025-11-08T14:50:22Z</time>
   </trkpt>
   <trkpt lat="53.3662100" lon="-6.3532410">
    <ele>54.0</ele>
    <time>2025-11-08T14:50:33Z</time>
   </trkpt>
   <trkpt lat="53.3662130" lon="-6.3531540">
    <ele>55.5</ele>
    <time>2025-11-08T14:50:57Z</time>
   </trkpt>
   <trkpt lat="53.3662120" lon="-6.3530220">
    <ele>56.4</ele>
    <time>2025-11-08T14:51:02Z</time>
   </trkpt>
   <trkpt lat="53.3662120" lon="-6.3529060">
    <ele>55.8</ele>
    <time>2025-11-08T14:51:14Z</time>
   </trkpt>
   <trkpt lat="53.3662710" lon="-6.3527450">
    <ele>56.3</ele>
    <time>2025-11-08T14:51:20Z</time>
   </trkpt>
   <trkpt lat="53.3662700" lon="-6.3526580">
    <ele>55.4</ele>
    <time>2025-11-08T14:51:29Z</time>
   </trkpt>
   <trkpt lat="53.3662840" lon="-6.3525730">
    <ele>55.2</ele>
    <time>2025-11-08T14:51:34Z</time>
   </trkpt>
   <trkpt lat="53.3662770" lon="-6.3524820">
    <ele>55.3</ele>
    <time>2025-11-08T14:51:39Z</time>
   </trkpt>
   <trkpt lat="53.3662510" lon="-6.3523830">
    <ele>54.9</ele>
    <time>2025-11-08T14:51:45Z</time>
   </trkpt>
   <trkpt lat="53.3662310" lon="-6.3522990">
    <ele>54.5</ele>
    <time>2025-11-08T14:51:50Z</time>
   </trkpt>
   <trkpt lat="53.3661850" lon="-6.3522070">
    <ele>54.6</ele>
    <time>2025-11-08T14:51:55Z</time>
   </trkpt>
   <trkpt lat="53.3661170" lon="-6.3521320">
    <ele>54.5</ele>
    <time>2025-11-08T14:52:01Z</time>
   </trkpt>
   <trkpt lat="53.3660910" lon="-6.3519640">
    <ele>54.6</ele>
    <time>2025-11-08T14:52:06Z</time>
   </trkpt>
   <trkpt lat="53.3661180" lon="-6.3518180">
    <ele>54.3</ele>
    <time>2025-11-08T14:52:11Z</time>
   </trkpt>
   <trkpt lat="53.3661230" lon="-6.3516330">
    <ele>54.2</ele>
    <time>2025-11-08T14:52:17Z</time>
   </trkpt>
   <trkpt lat="53.3661500" lon="-6.3515650">
    <ele>50.4</ele>
    <time>2025-11-08T14:52:37Z</time>
   </trkpt>
   <trkpt lat="53.3661770" lon="-6.3514420">
    <ele>51.0</ele>
    <time>2025-11-08T14:52:42Z</time>
   </trkpt>
   <trkpt lat="53.3662420" lon="-6.3513270">
    <ele>52.2</ele>
    <time>2025-11-08T14:52:48Z</time>
   </trkpt>
   <trkpt lat="53.3662960" lon="-6.3512190">
    <ele>52.6</ele>
    <time>2025-11-08T14:52:53Z</time>
   </trkpt>
   <trkpt lat="53.3663750" lon="-6.3511340">
    <ele>52.9</ele>
    <time>2025-11-08T14:52:59Z</time>
   </trkpt>
   <trkpt lat="53.3664500" lon="-6.3510880">
    <ele>53.1</ele>
    <time>2025-11-08T14:53:05Z</time>
   </trkpt>
   <trkpt lat="53.3665150" lon="-6.3510510">
    <ele>53.2</ele>
    <time>2025-11-08T14:53:10Z</time>
   </trkpt>
   <trkpt lat="53.3665700" lon="-6.3510160">
    <ele>53.2</ele>
    <time>2025-11-08T14:53:15Z</time>
   </trkpt>
   <trkpt lat="53.3666100" lon="-6.3509720">
    <ele>53.2</ele>
    <time>2025-11-08T14:53:20Z</time>
   </trkpt>
   <trkpt lat="53.3666610" lon="-6.3509340">
    <ele>53.2</ele>
    <time>2025-11-08T14:53:26Z</time>
   </trkpt>
   <trkpt lat="53.3667060" lon="-6.3509080">
    <ele>53.2</ele>
    <time>2025-11-08T14:53:32Z</time>
   </trkpt>
   <trkpt lat="53.3667440" lon="-6.3508650">
    <ele>53.2</ele>
    <time>2025-11-08T14:53:40Z</time>
   </trkpt>
   <trkpt lat="53.3667760" lon="-6.3508020">
    <ele>53.2</ele>
    <time>2025-11-08T14:53:47Z</time>
   </trkpt>
   <trkpt lat="53.3668300" lon="-6.3507700">
    <ele>53.2</ele>
    <time>2025-11-08T14:53:52Z</time>
   </trkpt>
   <trkpt lat="53.3669210" lon="-6.3507270">
    <ele>53.2</ele>
    <time>2025-11-08T14:53:58Z</time>
   </trkpt>
   <trkpt lat="53.3669880" lon="-6.3506860">
    <ele>53.2</ele>
    <time>2025-11-08T14:54:03Z</time>
   </trkpt>
   <trkpt lat="53.3670540" lon="-6.3506510">
    <ele>53.2</ele>
    <time>2025-11-08T14:54:08Z</time>
   </trkpt>
   <trkpt lat="53.3671280" lon="-6.3505760">
    <ele>53.2</ele>
    <time>2025-11-08T14:54:14Z</time>
   </trkpt>
   <trkpt lat="53.3671860" lon="-6.3505050">
    <ele>53.2</ele>
    <time>2025-11-08T14:54:19Z</time>
   </trkpt>
   <trkpt lat="53.3672500" lon="-6.3504560">
    <ele>53.2</ele>
    <time>2025-11-08T14:54:25Z</time>
   </trkpt>
   <trkpt lat="53.3672880" lon="-6.3504120">
    <ele>53.2</ele>
    <time>2025-11-08T14:54:30Z</time>
   </trkpt>
   <trkpt lat="53.3673270" lon="-6.3503460">
    <ele>53.7</ele>
    <time>2025-11-08T14:54:35Z</time>
   </trkpt>
   <trkpt lat="53.3673700" lon="-6.3502790">
    <ele>54.0</ele>
    <time>2025-11-08T14:54:41Z</time>
   </trkpt>
   <trkpt lat="53.3673900" lon="-6.3502100">
    <ele>53.8</ele>
    <time>2025-11-08T14:54:47Z</time>
   </trkpt>
   <trkpt lat="53.3674300" lon="-6.3501590">
    <ele>53.6</ele>
    <time>2025-11-08T14:54:52Z</time>
   </trkpt>
   <trkpt lat="53.3674980" lon="-6.3501390">
    <ele>53.2</ele>
    <time>2025-11-08T14:54:57Z</time>
   </trkpt>
   <trkpt lat="53.3675770" lon="-6.3500790">
    <ele>53.3</ele>
    <time>2025-11-08T14:55:03Z</time>
   </trkpt>
   <trkpt lat="53.3676420" lon="-6.3500220">
    <ele>54.0</ele>
    <time>2025-11-08T14:55:08Z</time>
   </trkpt>
   <trkpt lat="53.3677180" lon="-6.3499920">
    <ele>54.3</ele>
    <time>2025-11-08T14:55:14Z</time>
   </trkpt>
   <trkpt lat="53.3677910" lon="-6.3499480">
    <ele>54.6</ele>
    <time>2025-11-08T14:55:19Z</time>
   </trkpt>
   <trkpt lat="53.3678690" lon="-6.3498630">
    <ele>54.9</ele>
    <time>2025-11-08T14:55:25Z</time>
   </trkpt>
   <trkpt lat="53.3679340" lon="-6.3497990">
    <ele>54.9</ele>
    <time>2025-11-08T14:55:30Z</time>
   </trkpt>
   <trkpt lat="53.3679980" lon="-6.3497580">
    <ele>54.8</ele>
    <time>2025-11-08T14:55:36Z</time>
   </trkpt>
   <trkpt lat="53.3680600" lon="-6.3497250">
    <ele>54.9</ele>
    <time>2025-11-08T14:55:42Z</time>
   </trkpt>
   <trkpt lat="53.3681150" lon="-6.3496900">
    <ele>54.8</ele>
    <time>2025-11-08T14:55:48Z</time>
   </trkpt>
   <trkpt lat="53.3681790" lon="-6.3496550">
    <ele>54.6</ele>
    <time>2025-11-08T14:55:54Z</time>
   </trkpt>
   <trkpt lat="53.3682430" lon="-6.3496060">
    <ele>54.5</ele>
    <time>2025-11-08T14:55:59Z</time>
   </trkpt>
   <trkpt lat="53.3683200" lon="-6.3495460">
    <ele>54.7</ele>
    <time>2025-11-08T14:56:05Z</time>
   </trkpt>
   <trkpt lat="53.3683990" lon="-6.3494820">
    <ele>54.6</ele>
    <time>2025-11-08T14:56:11Z</time>
   </trkpt>
   <trkpt lat="53.3684940" lon="-6.3494190">
    <ele>54.4</ele>
    <time>2025-11-08T14:56:17Z</time>
   </trkpt>
   <trkpt lat="53.3685650" lon="-6.3493700">
    <ele>54.7</ele>
    <time>2025-11-08T14:56:22Z</time>
   </trkpt>
   <trkpt lat="53.3686370" lon="-6.3493230">
    <ele>54.7</ele>
    <time>2025-11-08T14:56:28Z</time>
   </trkpt>
   <trkpt lat="53.3686830" lon="-6.3492430">
    <ele>54.7</ele>
    <time>2025-11-08T14:56:34Z</time>
   </trkpt>
   <trkpt lat="53.3687420" lon="-6.3491610">
    <ele>54.8</ele>
    <time>2025-11-08T14:56:40Z</time>
   </trkpt>
   <trkpt lat="53.3688030" lon="-6.3490930">
    <ele>55.0</ele>
    <time>2025-11-08T14:56:45Z</time>
   </trkpt>
   <trkpt lat="53.3688670" lon="-6.3490320">
    <ele>55.0</ele>
    <time>2025-11-08T14:56:50Z</time>
   </trkpt>
   <trkpt lat="53.3689170" lon="-6.3489440">
    <ele>55.0</ele>
    <time>2025-11-08T14:56:56Z</time>
   </trkpt>
   <trkpt lat="53.3689590" lon="-6.3488520">
    <ele>54.8</ele>
    <time>2025-11-08T14:57:02Z</time>
   </trkpt>
   <trkpt lat="53.3690050" lon="-6.3487670">
    <ele>54.8</ele>
    <time>2025-11-08T14:57:07Z</time>
   </trkpt>
   <trkpt lat="53.3690470" lon="-6.3486750">
    <ele>55.0</ele>
    <time>2025-11-08T14:57:12Z</time>
   </trkpt>
   <trkpt lat="53.3690920" lon="-6.3486090">
    <ele>54.8</ele>
    <time>2025-11-08T14:57:17Z</time>
   </trkpt>
   <trkpt lat="53.3691460" lon="-6.3485360">
    <ele>54.7</ele>
    <time>2025-11-08T14:57:23Z</time>
   </trkpt>
   <trkpt lat="53.3692220" lon="-6.3485250">
    <ele>54.8</ele>
    <time>2025-11-08T14:57:28Z</time>
   </trkpt>
   <trkpt lat="53.3693110" lon="-6.3485200">
    <ele>55.3</ele>
    <time>2025-11-08T14:57:34Z</time>
   </trkpt>
   <trkpt lat="53.3693850" lon="-6.3485150">
    <ele>55.4</ele>
    <time>2025-11-08T14:57:39Z</time>
   </trkpt>
   <trkpt lat="53.3694570" lon="-6.3485040">
    <ele>55.4</ele>
    <time>2025-11-08T14:57:45Z</time>
   </trkpt>
   <trkpt lat="53.3695240" lon="-6.3484500">
    <ele>56.1</ele>
    <time>2025-11-08T14:57:51Z</time>
   </trkpt>
   <trkpt lat="53.3695690" lon="-6.3484300">
    <ele>55.5</ele>
    <time>2025-11-08T14:57:56Z</time>
   </trkpt>
   <trkpt lat="53.3695230" lon="-6.3484640">
    <ele>52.5</ele>
    <time>2025-11-08T14:58:14Z</time>
   </trkpt>
   <trkpt lat="53.3695620" lon="-6.3484090">
    <ele>51.9</ele>
    <time>2025-11-08T14:58:30Z</time>
   </trkpt>
   <trkpt lat="53.3696460" lon="-6.3483330">
    <ele>53.3</ele>
    <time>2025-11-08T14:58:35Z</time>
   </trkpt>
   <trkpt lat="53.3696590" lon="-6.3482120">
    <ele>54.6</ele>
    <time>2025-11-08T14:58:41Z</time>
   </trkpt>
   <trkpt lat="53.3696350" lon="-6.3480780">
    <ele>55.2</ele>
    <time>2025-11-08T14:58:46Z</time>
   </trkpt>
   <trkpt lat="53.3696250" lon="-6.3479540">
    <ele>55.3</ele>
    <time>2025-11-08T14:58:52Z</time>
   </trkpt>
   <trkpt lat="53.3696180" lon="-6.3478480">
    <ele>55.5</ele>
    <time>2025-11-08T14:58:57Z</time>
   </trkpt>
   <trkpt lat="53.3696470" lon="-6.3477420">
    <ele>55.5</ele>
    <time>2025-11-08T14:59:03Z</time>
   </trkpt>
   <trkpt lat="53.3696580" lon="-6.3476580">
    <ele>55.6</ele>
    <time>2025-11-08T14:59:09Z</time>
   </trkpt>
   <trkpt lat="53.3696710" lon="-6.3475680">
    <ele>55.6</ele>
    <time>2025-11-08T14:59:14Z</time>
   </trkpt>
   <trkpt lat="53.3696940" lon="-6.3474900">
    <ele>55.6</ele>
    <time>2025-11-08T14:59:19Z</time>
   </trkpt>
   <trkpt lat="53.3697330" lon="-6.3474090">
    <ele>55.3</ele>
    <time>2025-11-08T14:59:25Z</time>
   </trkpt>
   <trkpt lat="53.3697670" lon="-6.3473090">
    <ele>55.0</ele>
    <time>2025-11-08T14:59:31Z</time>
   </trkpt>
   <trkpt lat="53.3697920" lon="-6.3472050">
    <ele>54.9</ele>
    <time>2025-11-08T14:59:36Z</time>
   </trkpt>
   <trkpt lat="53.3698240" lon="-6.3471030">
    <ele>54.8</ele>
    <time>2025-11-08T14:59:41Z</time>
   </trkpt>
   <trkpt lat="53.3698440" lon="-6.3469760">
    <ele>54.8</ele>
    <time>2025-11-08T14:59:47Z</time>
   </trkpt>
   <trkpt lat="53.3698340" lon="-6.3468370">
    <ele>54.7</ele>
    <time>2025-11-08T14:59:52Z</time>
   </trkpt>
   <trkpt lat="53.3698460" lon="-6.3466830">
    <ele>54.7</ele>
    <time>2025-11-08T14:59:57Z</time>
   </trkpt>
   <trkpt lat="53.3698660" lon="-6.3465410">
    <ele>54.7</ele>
    <time>2025-11-08T15:00:03Z</time>
   </trkpt>
   <trkpt lat="53.3698730" lon="-6.3464370">
    <ele>54.7</ele>
    <time>2025-11-08T15:00:08Z</time>
   </trkpt>
   <trkpt lat="53.3698820" lon="-6.3463270">
    <ele>54.6</ele>
    <time>2025-11-08T15:00:14Z</time>
   </trkpt>
   <trkpt lat="53.3698900" lon="-6.3462330">
    <ele>54.6</ele>
    <time>2025-11-08T15:00:20Z</time>
   </trkpt>
   <trkpt lat="53.3699070" lon="-6.3461030">
    <ele>54.8</ele>
    <time>2025-11-08T15:00:25Z</time>
   </trkpt>
   <trkpt lat="53.3699100" lon="-6.3459650">
    <ele>54.9</ele>
    <time>2025-11-08T15:00:31Z</time>
   </trkpt>
   <trkpt lat="53.3699000" lon="-6.3458150">
    <ele>55.0</ele>
    <time>2025-11-08T15:00:36Z</time>
   </trkpt>
   <trkpt lat="53.3699120" lon="-6.3456690">
    <ele>55.0</ele>
    <time>2025-11-08T15:00:41Z</time>
   </trkpt>
   <trkpt lat="53.3699290" lon="-6.3455180">
    <ele>55.1</ele>
    <time>2025-11-08T15:00:47Z</time>
   </trkpt>
   <trkpt lat="53.3699360" lon="-6.3453940">
    <ele>55.1</ele>
    <time>2025-11-08T15:00:52Z</time>
   </trkpt>
   <trkpt lat="53.3699340" lon="-6.3452350">
    <ele>55.1</ele>
    <time>2025-11-08T15:00:58Z</time>
   </trkpt>
   <trkpt lat="53.3699010" lon="-6.3450940">
    <ele>55.0</ele>
    <time>2025-11-08T15:01:04Z</time>
   </trkpt>
   <trkpt lat="53.3698670" lon="-6.3449900">
    <ele>55.1</ele>
    <time>2025-11-08T15:01:09Z</time>
   </trkpt>
   <trkpt lat="53.3698410" lon="-6.3448950">
    <ele>55.1</ele>
    <time>2025-11-08T15:01:14Z</time>
   </trkpt>
   <trkpt lat="53.3698540" lon="-6.3448110">
    <ele>55.0</ele>
    <time>2025-11-08T15:01:20Z</time>
   </trkpt>
   <trkpt lat="53.3698480" lon="-6.3447160">
    <ele>55.0</ele>
    <time>2025-11-08T15:01:26Z</time>
   </trkpt>
   <trkpt lat="53.3698440" lon="-6.3445940">
    <ele>55.0</ele>
    <time>2025-11-08T15:01:31Z</time>
   </trkpt>
   <trkpt lat="53.3698210" lon="-6.3444930">
    <ele>55.0</ele>
    <time>2025-11-08T15:01:37Z</time>
   </trkpt>
   <trkpt lat="53.3698010" lon="-6.3443690">
    <ele>55.1</ele>
    <time>2025-11-08T15:01:42Z</time>
   </trkpt>
   <trkpt lat="53.3698010" lon="-6.3442750">
    <ele>55.0</ele>
    <time>2025-11-08T15:01:47Z</time>
   </trkpt>
   <trkpt lat="53.3697790" lon="-6.3441770">
    <ele>54.9</ele>
    <time>2025-11-08T15:01:52Z</time>
   </trkpt>
   <trkpt lat="53.3697740" lon="-6.3440770">
    <ele>54.3</ele>
    <time>2025-11-08T15:01:58Z</time>
   </trkpt>
   <trkpt lat="53.3698050" lon="-6.3440010">
    <ele>54.2</ele>
    <time>2025-11-08T15:02:03Z</time>
   </trkpt>
   <trkpt lat="53.3698320" lon="-6.3439310">
    <ele>54.6</ele>
    <time>2025-11-08T15:02:09Z</time>
   </trkpt>
   <trkpt lat="53.3698680" lon="-6.3438670">
    <ele>54.7</ele>
    <time>2025-11-08T15:02:14Z</time>
   </trkpt>
   <trkpt lat="53.3698950" lon="-6.3437730">
    <ele>55.0</ele>
    <time>2025-11-08T15:02:20Z</time>
   </trkpt>
   <trkpt lat="53.3699220" lon="-6.3437050">
    <ele>55.0</ele>
    <time>2025-11-08T15:02:25Z</time>
   </trkpt>
   <trkpt lat="53.3699580" lon="-6.3436240">
    <ele>55.2</ele>
    <time>2025-11-08T15:02:31Z</time>
   </trkpt>
   <trkpt lat="53.3699920" lon="-6.3435330">
    <ele>55.0</ele>
    <time>2025-11-08T15:02:37Z</time>
   </trkpt>
   <trkpt lat="53.3700310" lon="-6.3434410">
    <ele>54.5</ele>
    <time>2025-11-08T15:02:43Z</time>
   </trkpt>
   <trkpt lat="53.3700730" lon="-6.3433700">
    <ele>54.9</ele>
    <time>2025-11-08T15:02:49Z</time>
   </trkpt>
   <trkpt lat="53.3701000" lon="-6.3433060">
    <ele>54.5</ele>
    <time>2025-11-08T15:02:55Z</time>
   </trkpt>
   <trkpt lat="53.3701330" lon="-6.3432180">
    <ele>54.8</ele>
    <time>2025-11-08T15:03:00Z</time>
   </trkpt>
   <trkpt lat="53.3701330" lon="-6.3431000">
    <ele>55.5</ele>
    <time>2025-11-08T15:03:06Z</time>
   </trkpt>
   <trkpt lat="53.3701040" lon="-6.3430040">
    <ele>55.8</ele>
    <time>2025-11-08T15:03:11Z</time>
   </trkpt>
   <trkpt lat="53.3700940" lon="-6.3429210">
    <ele>56.0</ele>
    <time>2025-11-08T15:03:16Z</time>
   </trkpt>
   <trkpt lat="53.3701340" lon="-6.3428700">
    <ele>56.0</ele>
    <time>2025-11-08T15:03:22Z</time>
   </trkpt>
   <trkpt lat="53.3701680" lon="-6.3427660">
    <ele>55.8</ele>
    <time>2025-11-08T15:03:27Z</time>
   </trkpt>
   <trkpt lat="53.3701980" lon="-6.3426770">
    <ele>55.9</ele>
    <time>2025-11-08T15:03:32Z</time>
   </trkpt>
   <trkpt lat="53.3702180" lon="-6.3425660">
    <ele>56.0</ele>
    <time>2025-11-08T15:03:38Z</time>
   </trkpt>
   <trkpt lat="53.3702210" lon="-6.3424580">
    <ele>56.1</ele>
    <time>2025-11-08T15:03:43Z</time>
   </trkpt>
   <trkpt lat="53.3702180" lon="-6.3423280">
    <ele>56.3</ele>
    <time>2025-11-08T15:03:49Z</time>
   </trkpt>
   <trkpt lat="53.3702210" lon="-6.3422280">
    <ele>56.3</ele>
    <time>2025-11-08T15:03:54Z</time>
   </trkpt>
   <trkpt lat="53.3702420" lon="-6.3421520">
    <ele>56.1</ele>
    <time>2025-11-08T15:03:59Z</time>
   </trkpt>
   <trkpt lat="53.3702560" lon="-6.3420670">
    <ele>56.3</ele>
    <time>2025-11-08T15:04:04Z</time>
   </trkpt>
   <trkpt lat="53.3702560" lon="-6.3419850">
    <ele>56.3</ele>
    <time>2025-11-08T15:04:10Z</time>
   </trkpt>
   <trkpt lat="53.3702240" lon="-6.3419270">
    <ele>56.4</ele>
    <time>2025-11-08T15:04:15Z</time>
   </trkpt>
   <trkpt lat="53.3701850" lon="-6.3418760">
    <ele>56.4</ele>
    <time>2025-11-08T15:04:22Z</time>
   </trkpt>
   <trkpt lat="53.3701750" lon="-6.3417930">
    <ele>56.4</ele>
    <time>2025-11-08T15:04:28Z</time>
   </trkpt>
   <trkpt lat="53.3701430" lon="-6.3417240">
    <ele>56.4</ele>
    <time>2025-11-08T15:04:33Z</time>
   </trkpt>
   <trkpt lat="53.3701110" lon="-6.3416370">
    <ele>56.4</ele>
    <time>2025-11-08T15:04:39Z</time>
   </trkpt>
   <trkpt lat="53.3700530" lon="-6.3415520">
    <ele>56.4</ele>
    <time>2025-11-08T15:04:44Z</time>
   </trkpt>
   <trkpt lat="53.3700130" lon="-6.3415020">
    <ele>56.4</ele>
    <time>2025-11-08T15:04:49Z</time>
   </trkpt>
   <trkpt lat="53.3699650" lon="-6.3414170">
    <ele>56.4</ele>
    <time>2025-11-08T15:04:55Z</time>
   </trkpt>
   <trkpt lat="53.3699510" lon="-6.3413260">
    <ele>54.7</ele>
    <time>2025-11-08T15:05:00Z</time>
   </trkpt>
   <trkpt lat="53.3698640" lon="-6.3412920">
    <ele>52.8</ele>
    <time>2025-11-08T15:05:06Z</time>
   </trkpt>
   <trkpt lat="53.3698030" lon="-6.3412230">
    <ele>54.0</ele>
    <time>2025-11-08T15:05:11Z</time>
   </trkpt>
   <trkpt lat="53.3697570" lon="-6.3411680">
    <ele>55.1</ele>
    <time>2025-11-08T15:05:16Z</time>
   </trkpt>
   <trkpt lat="53.3697010" lon="-6.3410930">
    <ele>55.9</ele>
    <time>2025-11-08T15:05:22Z</time>
   </trkpt>
   <trkpt lat="53.3696670" lon="-6.3410100">
    <ele>56.2</ele>
    <time>2025-11-08T15:05:28Z</time>
   </trkpt>
   <trkpt lat="53.3696230" lon="-6.3409580">
    <ele>56.3</ele>
    <time>2025-11-08T15:05:33Z</time>
   </trkpt>
   <trkpt lat="53.3695850" lon="-6.3409120">
    <ele>56.4</ele>
    <time>2025-11-08T15:05:39Z</time>
   </trkpt>
   <trkpt lat="53.3695680" lon="-6.3408210">
    <ele>56.6</ele>
    <time>2025-11-08T15:05:44Z</time>
   </trkpt>
   <trkpt lat="53.3695850" lon="-6.3407220">
    <ele>57.5</ele>
    <time>2025-11-08T15:05:50Z</time>
   </trkpt>
   <trkpt lat="53.3695840" lon="-6.3406190">
    <ele>57.5</ele>
    <time>2025-11-08T15:05:55Z</time>
   </trkpt>
   <trkpt lat="53.3695710" lon="-6.3404840">
    <ele>56.9</ele>
    <time>2025-11-08T15:06:00Z</time>
   </trkpt>
   <trkpt lat="53.3695640" lon="-6.3403020">
    <ele>56.4</ele>
    <time>2025-11-08T15:06:06Z</time>
   </trkpt>
   <trkpt lat="53.3695640" lon="-6.3401030">
    <ele>55.9</ele>
    <time>2025-11-08T15:06:12Z</time>
   </trkpt>
   <trkpt lat="53.3695430" lon="-6.3399480">
    <ele>55.8</ele>
    <time>2025-11-08T15:06:18Z</time>
   </trkpt>
   <trkpt lat="53.3695430" lon="-6.3398260">
    <ele>56.6</ele>
    <time>2025-11-08T15:06:23Z</time>
   </trkpt>
   <trkpt lat="53.3695520" lon="-6.3397400">
    <ele>56.8</ele>
    <time>2025-11-08T15:06:28Z</time>
   </trkpt>
   <trkpt lat="53.3695570" lon="-6.3396460">
    <ele>56.7</ele>
    <time>2025-11-08T15:06:33Z</time>
   </trkpt>
   <trkpt lat="53.3695700" lon="-6.3395600">
    <ele>57.3</ele>
    <time>2025-11-08T15:06:38Z</time>
   </trkpt>
   <trkpt lat="53.3695720" lon="-6.3394440">
    <ele>57.6</ele>
    <time>2025-11-08T15:06:44Z</time>
   </trkpt>
   <trkpt lat="53.3695730" lon="-6.3393300">
    <ele>57.6</ele>
    <time>2025-11-08T15:06:49Z</time>
   </trkpt>
   <trkpt lat="53.3695850" lon="-6.3392150">
    <ele>58.1</ele>
    <time>2025-11-08T15:06:55Z</time>
   </trkpt>
   <trkpt lat="53.3696020" lon="-6.3391210">
    <ele>58.2</ele>
    <time>2025-11-08T15:07:00Z</time>
   </trkpt>
   <trkpt lat="53.3696100" lon="-6.3390300">
    <ele>58.0</ele>
    <time>2025-11-08T15:07:06Z</time>
   </trkpt>
   <trkpt lat="53.3696100" lon="-6.3389200">
    <ele>57.6</ele>
    <time>2025-11-08T15:07:11Z</time>
   </trkpt>
   <trkpt lat="53.3696160" lon="-6.3388250">
    <ele>57.5</ele>
    <time>2025-11-08T15:07:16Z</time>
   </trkpt>
   <trkpt lat="53.3696080" lon="-6.3387410">
    <ele>58.2</ele>
    <time>2025-11-08T15:07:22Z</time>
   </trkpt>
   <trkpt lat="53.3695930" lon="-6.3386600">
    <ele>54.5</ele>
    <time>2025-11-08T15:07:36Z</time>
   </trkpt>
   <trkpt lat="53.3695780" lon="-6.3385420">
    <ele>55.5</ele>
    <time>2025-11-08T15:07:41Z</time>
   </trkpt>
   <trkpt lat="53.3695800" lon="-6.3384260">
    <ele>56.8</ele>
    <time>2025-11-08T15:07:46Z</time>
   </trkpt>
   <trkpt lat="53.3696410" lon="-6.3383450">
    <ele>57.7</ele>
    <time>2025-11-08T15:07:52Z</time>
   </trkpt>
   <trkpt lat="53.3696960" lon="-6.3383360">
    <ele>57.5</ele>
    <time>2025-11-08T15:07:57Z</time>
   </trkpt>
   <trkpt lat="53.3696530" lon="-6.3383050">
    <ele>54.1</ele>
    <time>2025-11-08T15:08:07Z</time>
   </trkpt>
   <trkpt lat="53.3696600" lon="-6.3381710">
    <ele>55.2</ele>
    <time>2025-11-08T15:08:13Z</time>
   </trkpt>
   <trkpt lat="53.3697020" lon="-6.3381020">
    <ele>56.3</ele>
    <time>2025-11-08T15:08:18Z</time>
   </trkpt>
   <trkpt lat="53.3697440" lon="-6.3380480">
    <ele>56.3</ele>
    <time>2025-11-08T15:08:23Z</time>
   </trkpt>
   <trkpt lat="53.3697770" lon="-6.3379740">
    <ele>56.3</ele>
    <time>2025-11-08T15:08:29Z</time>
   </trkpt>
   <trkpt lat="53.3698220" lon="-6.3378930">
    <ele>56.9</ele>
    <time>2025-11-08T15:08:35Z</time>
   </trkpt>
   <trkpt lat="53.3698550" lon="-6.3378200">
    <ele>56.8</ele>
    <time>2025-11-08T15:08:41Z</time>
   </trkpt>
   <trkpt lat="53.3698990" lon="-6.3377690">
    <ele>56.9</ele>
    <time>2025-11-08T15:08:46Z</time>
   </trkpt>
   <trkpt lat="53.3699370" lon="-6.3377110">
    <ele>57.1</ele>
    <time>2025-11-08T15:08:51Z</time>
   </trkpt>
   <trkpt lat="53.3699610" lon="-6.3376370">
    <ele>57.0</ele>
    <time>2025-11-08T15:08:56Z</time>
   </trkpt>
   <trkpt lat="53.3700180" lon="-6.3375640">
    <ele>57.0</ele>
    <time>2025-11-08T15:09:02Z</time>
   </trkpt>
   <trkpt lat="53.3700800" lon="-6.3374940">
    <ele>56.8</ele>
    <time>2025-11-08T15:09:08Z</time>
   </trkpt>
   <trkpt lat="53.3701500" lon="-6.3374650">
    <ele>56.2</ele>
    <time>2025-11-08T15:09:14Z</time>
   </trkpt>
   <trkpt lat="53.3702250" lon="-6.3374580">
    <ele>55.9</ele>
    <time>2025-11-08T15:09:20Z</time>
   </trkpt>
   <trkpt lat="53.3703020" lon="-6.3374250">
    <ele>56.3</ele>
    <time>2025-11-08T15:09:25Z</time>
   </trkpt>
   <trkpt lat="53.3703630" lon="-6.3373560">
    <ele>56.5</ele>
    <time>2025-11-08T15:09:31Z</time>
   </trkpt>
   <trkpt lat="53.3704040" lon="-6.3373080">
    <ele>56.6</ele>
    <time>2025-11-08T15:09:36Z</time>
   </trkpt>
   <trkpt lat="53.3704380" lon="-6.3372460">
    <ele>56.6</ele>
    <time>2025-11-08T15:09:41Z</time>
   </trkpt>
   <trkpt lat="53.3704860" lon="-6.3372470">
    <ele>56.6</ele>
    <time>2025-11-08T15:09:46Z</time>
   </trkpt>
   <trkpt lat="53.3705370" lon="-6.3372410">
    <ele>56.6</ele>
    <time>2025-11-08T15:09:51Z</time>
   </trkpt>
   <trkpt lat="53.3706010" lon="-6.3372020">
    <ele>56.6</ele>
    <time>2025-11-08T15:09:56Z</time>
   </trkpt>
   <trkpt lat="53.3706430" lon="-6.3371210">
    <ele>56.7</ele>
    <time>2025-11-08T15:10:02Z</time>
   </trkpt>
   <trkpt lat="53.3706910" lon="-6.3370430">
    <ele>57.3</ele>
    <time>2025-11-08T15:10:07Z</time>
   </trkpt>
   <trkpt lat="53.3707240" lon="-6.3369550">
    <ele>57.3</ele>
    <time>2025-11-08T15:10:12Z</time>
   </trkpt>
   <trkpt lat="53.3707510" lon="-6.3368650">
    <ele>57.2</ele>
    <time>2025-11-08T15:10:17Z</time>
   </trkpt>
   <trkpt lat="53.3707850" lon="-6.3367630">
    <ele>57.6</ele>
    <time>2025-11-08T15:10:23Z</time>
   </trkpt>
   <trkpt lat="53.3708320" lon="-6.3366680">
    <ele>57.8</ele>
    <time>2025-11-08T15:10:29Z</time>
   </trkpt>
   <trkpt lat="53.3708410" lon="-6.3365470">
    <ele>57.3</ele>
    <time>2025-11-08T15:10:34Z</time>
   </trkpt>
   <trkpt lat="53.3708150" lon="-6.3364050">
    <ele>56.2</ele>
    <time>2025-11-08T15:10:40Z</time>
   </trkpt>
   <trkpt lat="53.3708180" lon="-6.3362950">
    <ele>56.3</ele>
    <time>2025-11-08T15:10:45Z</time>
   </trkpt>
   <trkpt lat="53.3708280" lon="-6.3361950">
    <ele>56.2</ele>
    <time>2025-11-08T15:10:50Z</time>
   </trkpt>
   <trkpt lat="53.3708270" lon="-6.3361090">
    <ele>56.5</ele>
    <time>2025-11-08T15:10:55Z</time>
   </trkpt>
   <trkpt lat="53.3708040" lon="-6.3359800">
    <ele>55.4</ele>
    <time>2025-11-08T15:11:01Z</time>
   </trkpt>
   <trkpt lat="53.3707920" lon="-6.3358650">
    <ele>55.2</ele>
    <time>2025-11-08T15:11:06Z</time>
   </trkpt>
   <trkpt lat="53.3707850" lon="-6.3357370">
    <ele>55.7</ele>
    <time>2025-11-08T15:11:11Z</time>
   </trkpt>
   <trkpt lat="53.3707850" lon="-6.3356190">
    <ele>56.0</ele>
    <time>2025-11-08T15:11:17Z</time>
   </trkpt>
   <trkpt lat="53.3707710" lon="-6.3355280">
    <ele>56.1</ele>
    <time>2025-11-08T15:11:22Z</time>
   </trkpt>
   <trkpt lat="53.3707470" lon="-6.3354030">
    <ele>56.1</ele>
    <time>2025-11-08T15:11:28Z</time>
   </trkpt>
   <trkpt lat="53.3707350" lon="-6.3353200">
    <ele>56.1</ele>
    <time>2025-11-08T15:11:33Z</time>
   </trkpt>
   <trkpt lat="53.3707250" lon="-6.3352350">
    <ele>56.2</ele>
    <time>2025-11-08T15:11:39Z</time>
   </trkpt>
   <trkpt lat="53.3707120" lon="-6.3351170">
    <ele>56.3</ele>
    <time>2025-11-08T15:11:44Z</time>
   </trkpt>
   <trkpt lat="53.3707000" lon="-6.3350060">
    <ele>56.3</ele>
    <time>2025-11-08T15:11:50Z</time>
   </trkpt>
   <trkpt lat="53.3706870" lon="-6.3349230">
    <ele>56.3</ele>
    <time>2025-11-08T15:11:55Z</time>
   </trkpt>
   <trkpt lat="53.3706580" lon="-6.3348150">
    <ele>55.8</ele>
    <time>2025-11-08T15:12:01Z</time>
   </trkpt>
   <trkpt lat="53.3706310" lon="-6.3347010">
    <ele>56.0</ele>
    <time>2025-11-08T15:12:06Z</time>
   </trkpt>
   <trkpt lat="53.3706120" lon="-6.3345840">
    <ele>56.1</ele>
    <time>2025-11-08T15:12:11Z</time>
   </trkpt>
   <trkpt lat="53.3705950" lon="-6.3344960">
    <ele>56.2</ele>
    <time>2025-11-08T15:12:17Z</time>
   </trkpt>
   <trkpt lat="53.3705710" lon="-6.3343950">
    <ele>55.9</ele>
    <time>2025-11-08T15:12:22Z</time>
   </trkpt>
   <trkpt lat="53.3705730" lon="-6.3342770">
    <ele>55.9</ele>
    <time>2025-11-08T15:12:28Z</time>
   </trkpt>
   <trkpt lat="53.3705560" lon="-6.3341860">
    <ele>56.0</ele>
    <time>2025-11-08T15:12:33Z</time>
   </trkpt>
   <trkpt lat="53.3705830" lon="-6.3340450">
    <ele>56.1</ele>
    <time>2025-11-08T15:12:39Z</time>
   </trkpt>
   <trkpt lat="53.3705860" lon="-6.3339330">
    <ele>55.8</ele>
    <time>2025-11-08T15:12:44Z</time>
   </trkpt>
   <trkpt lat="53.3705920" lon="-6.3338520">
    <ele>52.6</ele>
    <time>2025-11-08T15:13:05Z</time>
   </trkpt>
   <trkpt lat="53.3705740" lon="-6.3337690">
    <ele>51.3</ele>
    <time>2025-11-08T15:13:30Z</time>
   </trkpt>
   <trkpt lat="53.3705660" lon="-6.3336850">
    <ele>51.8</ele>
    <time>2025-11-08T15:13:36Z</time>
   </trkpt>
   <trkpt lat="53.3705150" lon="-6.3335930">
    <ele>53.3</ele>
    <time>2025-11-08T15:13:41Z</time>
   </trkpt>
   <trkpt lat="53.3704450" lon="-6.3335130">
    <ele>54.4</ele>
    <time>2025-11-08T15:13:46Z</time>
   </trkpt>
   <trkpt lat="53.3704050" lon="-6.3334360">
    <ele>55.1</ele>
    <time>2025-11-08T15:13:52Z</time>
   </trkpt>
   <trkpt lat="53.3703600" lon="-6.3333340">
    <ele>55.5</ele>
    <time>2025-11-08T15:13:57Z</time>
   </trkpt>
   <trkpt lat="53.3702870" lon="-6.3332320">
    <ele>55.7</ele>
    <time>2025-11-08T15:14:03Z</time>
   </trkpt>
   <trkpt lat="53.3702590" lon="-6.3331370">
    <ele>55.7</ele>
    <time>2025-11-08T15:14:08Z</time>
   </trkpt>
   <trkpt lat="53.3702500" lon="-6.3330390">
    <ele>55.8</ele>
    <time>2025-11-08T15:14:13Z</time>
   </trkpt>
   <trkpt lat="53.3702400" lon="-6.3329310">
    <ele>55.8</ele>
    <time>2025-11-08T15:14:19Z</time>
   </trkpt>
   <trkpt lat="53.3702250" lon="-6.3328200">
    <ele>55.7</ele>
    <time>2025-11-08T15:14:24Z</time>
   </trkpt>
   <trkpt lat="53.3701910" lon="-6.3327000">
    <ele>55.3</ele>
    <time>2025-11-08T15:14:29Z</time>
   </trkpt>
   <trkpt lat="53.3701550" lon="-6.3326030">
    <ele>55.0</ele>
    <time>2025-11-08T15:14:35Z</time>
   </trkpt>
   <trkpt lat="53.3701330" lon="-6.3325290">
    <ele>54.5</ele>
    <time>2025-11-08T15:14:40Z</time>
   </trkpt>
   <trkpt lat="53.3701050" lon="-6.3324670">
    <ele>51.2</ele>
    <time>2025-11-08T15:14:51Z</time>
   </trkpt>
   <trkpt lat="53.3700630" lon="-6.3323240">
    <ele>52.7</ele>
    <time>2025-11-08T15:14:56Z</time>
   </trkpt>
   <trkpt lat="53.3700170" lon="-6.3322140">
    <ele>53.7</ele>
    <time>2025-11-08T15:15:02Z</time>
   </trkpt>
   <trkpt lat="53.3700270" lon="-6.3321080">
    <ele>53.9</ele>
    <time>2025-11-08T15:15:07Z</time>
   </trkpt>
   <trkpt lat="53.3700200" lon="-6.3320200">
    <ele>54.2</ele>
    <time>2025-11-08T15:15:12Z</time>
   </trkpt>
   <trkpt lat="53.3699750" lon="-6.3319070">
    <ele>54.3</ele>
    <time>2025-11-08T15:15:18Z</time>
   </trkpt>
   <trkpt lat="53.3699270" lon="-6.3318230">
    <ele>54.3</ele>
    <time>2025-11-08T15:15:23Z</time>
   </trkpt>
   <trkpt lat="53.3698690" lon="-6.3317360">
    <ele>54.3</ele>
    <time>2025-11-08T15:15:29Z</time>
   </trkpt>
   <trkpt lat="53.3698440" lon="-6.3316240">
    <ele>54.2</ele>
    <time>2025-11-08T15:15:34Z</time>
   </trkpt>
   <trkpt lat="53.3698180" lon="-6.3315210">
    <ele>54.2</ele>
    <time>2025-11-08T15:15:39Z</time>
   </trkpt>
   <trkpt lat="53.3698190" lon="-6.3313660">
    <ele>53.9</ele>
    <time>2025-11-08T15:15:45Z</time>
   </trkpt>
   <trkpt lat="53.3698010" lon="-6.3312550">
    <ele>53.8</ele>
    <time>2025-11-08T15:15:51Z</time>
   </trkpt>
   <trkpt lat="53.3697760" lon="-6.3311510">
    <ele>54.0</ele>
    <time>2025-11-08T15:15:57Z</time>
   </trkpt>
   <trkpt lat="53.3697350" lon="-6.3310750">
    <ele>53.9</ele>
    <time>2025-11-08T15:16:02Z</time>
   </trkpt>
   <trkpt lat="53.3696920" lon="-6.3309770">
    <ele>53.9</ele>
    <time>2025-11-08T15:16:08Z</time>
   </trkpt>
   <trkpt lat="53.3696580" lon="-6.3308880">
    <ele>54.2</ele>
    <time>2025-11-08T15:16:14Z</time>
   </trkpt>
   <trkpt lat="53.3696360" lon="-6.3308050">
    <ele>53.7</ele>
    <time>2025-11-08T15:16:19Z</time>
   </trkpt>
   <trkpt lat="53.3695960" lon="-6.3307220">
    <ele>53.5</ele>
    <time>2025-11-08T15:16:24Z</time>
   </trkpt>
   <trkpt lat="53.3695510" lon="-6.3306000">
    <ele>53.2</ele>
    <time>2025-11-08T15:16:30Z</time>
   </trkpt>
   <trkpt lat="53.3695280" lon="-6.3304810">
    <ele>53.0</ele>
    <time>2025-11-08T15:16:35Z</time>
   </trkpt>
   <trkpt lat="53.3694650" lon="-6.3304240">
    <ele>52.5</ele>
    <time>2025-11-08T15:16:41Z</time>
   </trkpt>
   <trkpt lat="53.3694510" lon="-6.3303440">
    <ele>52.5</ele>
    <time>2025-11-08T15:16:47Z</time>
   </trkpt>
   <trkpt lat="53.3694330" lon="-6.3302340">
    <ele>52.5</ele>
    <time>2025-11-08T15:16:53Z</time>
   </trkpt>
   <trkpt lat="53.3694380" lon="-6.3301270">
    <ele>52.8</ele>
    <time>2025-11-08T15:16:58Z</time>
   </trkpt>
   <trkpt lat="53.3694220" lon="-6.3300400">
    <ele>52.8</ele>
    <time>2025-11-08T15:17:04Z</time>
   </trkpt>
   <trkpt lat="53.3693970" lon="-6.3299690">
    <ele>52.6</ele>
    <time>2025-11-08T15:17:09Z</time>
   </trkpt>
   <trkpt lat="53.3693320" lon="-6.3299100">
    <ele>52.7</ele>
    <time>2025-11-08T15:17:15Z</time>
   </trkpt>
   <trkpt lat="53.3692610" lon="-6.3298650">
    <ele>52.5</ele>
    <time>2025-11-08T15:17:20Z</time>
   </trkpt>
   <trkpt lat="53.3691900" lon="-6.3298030">
    <ele>52.4</ele>
    <time>2025-11-08T15:17:26Z</time>
   </trkpt>
   <trkpt lat="53.3691490" lon="-6.3297060">
    <ele>52.4</ele>
    <time>2025-11-08T15:17:31Z</time>
   </trkpt>
   <trkpt lat="53.3691110" lon="-6.3296050">
    <ele>51.5</ele>
    <time>2025-11-08T15:17:37Z</time>
   </trkpt>
   <trkpt lat="53.3691050" lon="-6.3295300">
    <ele>48.4</ele>
    <time>2025-11-08T15:17:48Z</time>
   </trkpt>
   <trkpt lat="53.3690630" lon="-6.3293860">
    <ele>48.0</ele>
    <time>2025-11-08T15:17:53Z</time>
   </trkpt>
   <trkpt lat="53.3690010" lon="-6.3292820">
    <ele>47.5</ele>
    <time>2025-11-08T15:17:59Z</time>
   </trkpt>
   <trkpt lat="53.3689760" lon="-6.3291880">
    <ele>47.3</ele>
    <time>2025-11-08T15:18:04Z</time>
   </trkpt>
   <trkpt lat="53.3688880" lon="-6.3290940">
    <ele>49.5</ele>
    <time>2025-11-08T15:18:10Z</time>
   </trkpt>
   <trkpt lat="53.3688280" lon="-6.3290050">
    <ele>50.5</ele>
    <time>2025-11-08T15:18:16Z</time>
   </trkpt>
   <trkpt lat="53.3687740" lon="-6.3289790">
    <ele>51.0</ele>
    <time>2025-11-08T15:18:21Z</time>
   </trkpt>
   <trkpt lat="53.3687320" lon="-6.3289330">
    <ele>51.4</ele>
    <time>2025-11-08T15:18:27Z</time>
   </trkpt>
   <trkpt lat="53.3686750" lon="-6.3288600">
    <ele>51.4</ele>
    <time>2025-11-08T15:18:32Z</time>
   </trkpt>
   <trkpt lat="53.3686060" lon="-6.3287740">
    <ele>51.4</ele>
    <time>2025-11-08T15:18:37Z</time>
   </trkpt>
   <trkpt lat="53.3685390" lon="-6.3286800">
    <ele>51.4</ele>
    <time>2025-11-08T15:18:43Z</time>
   </trkpt>
   <trkpt lat="53.3684860" lon="-6.3285800">
    <ele>51.4</ele>
    <time>2025-11-08T15:18:48Z</time>
   </trkpt>
   <trkpt lat="53.3684300" lon="-6.3284900">
    <ele>51.4</ele>
    <time>2025-11-08T15:18:53Z</time>
   </trkpt>
   <trkpt lat="53.3683830" lon="-6.3283940">
    <ele>51.4</ele>
    <time>2025-11-08T15:18:59Z</time>
   </trkpt>
   <trkpt lat="53.3683460" lon="-6.3283040">
    <ele>51.3</ele>
    <time>2025-11-08T15:19:04Z</time>
   </trkpt>
   <trkpt lat="53.3683020" lon="-6.3282280">
    <ele>51.1</ele>
    <time>2025-11-08T15:19:09Z</time>
   </trkpt>
   <trkpt lat="53.3682450" lon="-6.3281340">
    <ele>51.0</ele>
    <time>2025-11-08T15:19:15Z</time>
   </trkpt>
   <trkpt lat="53.3681780" lon="-6.3280470">
    <ele>51.1</ele>
    <time>2025-11-08T15:19:20Z</time>
   </trkpt>
   <trkpt lat="53.3681200" lon="-6.3280460">
    <ele>51.3</ele>
    <time>2025-11-08T15:19:26Z</time>
   </trkpt>
   <trkpt lat="53.3680760" lon="-6.3279970">
    <ele>51.3</ele>
    <time>2025-11-08T15:19:31Z</time>
   </trkpt>
   <trkpt lat="53.3680390" lon="-6.3279540">
    <ele>51.1</ele>
    <time>2025-11-08T15:19:37Z</time>
   </trkpt>
   <trkpt lat="53.3680040" lon="-6.3278940">
    <ele>51.0</ele>
    <time>2025-11-08T15:19:43Z</time>
   </trkpt>
   <trkpt lat="53.3679890" lon="-6.3277870">
    <ele>51.1</ele>
    <time>2025-11-08T15:19:48Z</time>
   </trkpt>
   <trkpt lat="53.3679500" lon="-6.3277290">
    <ele>51.2</ele>
    <time>2025-11-08T15:19:53Z</time>
   </trkpt>
   <trkpt lat="53.3679120" lon="-6.3276820">
    <ele>51.3</ele>
    <time>2025-11-08T15:19:59Z</time>
   </trkpt>
   <trkpt lat="53.3678720" lon="-6.3276190">
    <ele>51.3</ele>
    <time>2025-11-08T15:20:05Z</time>
   </trkpt>
   <trkpt lat="53.3678410" lon="-6.3275410">
    <ele>50.7</ele>
    <time>2025-11-08T15:20:10Z</time>
   </trkpt>
   <trkpt lat="53.3677880" lon="-6.3274210">
    <ele>50.4</ele>
    <time>2025-11-08T15:20:16Z</time>
   </trkpt>
   <trkpt lat="53.3677460" lon="-6.3273150">
    <ele>50.3</ele>
    <time>2025-11-08T15:20:21Z</time>
   </trkpt>
   <trkpt lat="53.3676940" lon="-6.3271900">
    <ele>50.2</ele>
    <time>2025-11-08T15:20:27Z</time>
   </trkpt>
   <trkpt lat="53.3676390" lon="-6.3271000">
    <ele>49.7</ele>
    <time>2025-11-08T15:20:33Z</time>
   </trkpt>
   <trkpt lat="53.3675880" lon="-6.3270300">
    <ele>49.9</ele>
    <time>2025-11-08T15:20:38Z</time>
   </trkpt>
   <trkpt lat="53.3675470" lon="-6.3269060">
    <ele>50.0</ele>
    <time>2025-11-08T15:20:44Z</time>
   </trkpt>
   <trkpt lat="53.3675090" lon="-6.3268020">
    <ele>50.1</ele>
    <time>2025-11-08T15:20:50Z</time>
   </trkpt>
   <trkpt lat="53.3674750" lon="-6.3267210">
    <ele>49.6</ele>
    <time>2025-11-08T15:20:55Z</time>
   </trkpt>
   <trkpt lat="53.3674230" lon="-6.3266290">
    <ele>49.5</ele>
    <time>2025-11-08T15:21:01Z</time>
   </trkpt>
   <trkpt lat="53.3673650" lon="-6.3265740">
    <ele>49.5</ele>
    <time>2025-11-08T15:21:07Z</time>
   </trkpt>
   <trkpt lat="53.3673110" lon="-6.3265200">
    <ele>49.9</ele>
    <time>2025-11-08T15:21:12Z</time>
   </trkpt>
   <trkpt lat="53.3672880" lon="-6.3264530">
    <ele>45.2</ele>
    <time>2025-11-08T15:21:27Z</time>
   </trkpt>
   <trkpt lat="53.3671930" lon="-6.3264030">
    <ele>46.0</ele>
    <time>2025-11-08T15:21:32Z</time>
   </trkpt>
   <trkpt lat="53.3671300" lon="-6.3263330">
    <ele>47.5</ele>
    <time>2025-11-08T15:21:38Z</time>
   </trkpt>
   <trkpt lat="53.3670860" lon="-6.3262320">
    <ele>48.2</ele>
    <time>2025-11-08T15:21:44Z</time>
   </trkpt>
   <trkpt lat="53.3670390" lon="-6.3261260">
    <ele>47.9</ele>
    <time>2025-11-08T15:21:49Z</time>
   </trkpt>
   <trkpt lat="53.3669820" lon="-6.3260130">
    <ele>49.0</ele>
    <time>2025-11-08T15:21:55Z</time>
   </trkpt>
   <trkpt lat="53.3669190" lon="-6.3259120">
    <ele>48.5</ele>
    <time>2025-11-08T15:22:00Z</time>
   </trkpt>
   <trkpt lat="53.3668490" lon="-6.3258030">
    <ele>48.1</ele>
    <time>2025-11-08T15:22:06Z</time>
   </trkpt>
   <trkpt lat="53.3668090" lon="-6.3257220">
    <ele>48.4</ele>
    <time>2025-11-08T15:22:12Z</time>
   </trkpt>
   <trkpt lat="53.3667590" lon="-6.3256620">
    <ele>48.3</ele>
    <time>2025-11-08T15:22:17Z</time>
   </trkpt>
   <trkpt lat="53.3667080" lon="-6.3255960">
    <ele>48.1</ele>
    <time>2025-11-08T15:22:22Z</time>
   </trkpt>
   <trkpt lat="53.3666520" lon="-6.3255010">
    <ele>47.8</ele>
    <time>2025-11-08T15:22:28Z</time>
   </trkpt>
   <trkpt lat="53.3666220" lon="-6.3254140">
    <ele>47.7</ele>
    <time>2025-11-08T15:22:34Z</time>
   </trkpt>
   <trkpt lat="53.3665540" lon="-6.3253450">
    <ele>47.6</ele>
    <time>2025-11-08T15:22:39Z</time>
   </trkpt>
   <trkpt lat="53.3664880" lon="-6.3253040">
    <ele>47.4</ele>
    <time>2025-11-08T15:22:44Z</time>
   </trkpt>
   <trkpt lat="53.3664550" lon="-6.3252140">
    <ele>47.1</ele>
    <time>2025-11-08T15:22:50Z</time>
   </trkpt>
   <trkpt lat="53.3663920" lon="-6.3251390">
    <ele>47.0</ele>
    <time>2025-11-08T15:22:55Z</time>
   </trkpt>
   <trkpt lat="53.3663590" lon="-6.3250160">
    <ele>47.0</ele>
    <time>2025-11-08T15:23:01Z</time>
   </trkpt>
   <trkpt lat="53.3663430" lon="-6.3248500">
    <ele>47.0</ele>
    <time>2025-11-08T15:23:06Z</time>
   </trkpt>
   <trkpt lat="53.3663140" lon="-6.3247140">
    <ele>47.0</ele>
    <time>2025-11-08T15:23:11Z</time>
   </trkpt>
   <trkpt lat="53.3663290" lon="-6.3246130">
    <ele>46.8</ele>
    <time>2025-11-08T15:23:17Z</time>
   </trkpt>
   <trkpt lat="53.3662770" lon="-6.3245410">
    <ele>46.9</ele>
    <time>2025-11-08T15:23:23Z</time>
   </trkpt>
   <trkpt lat="53.3662180" lon="-6.3244750">
    <ele>46.9</ele>
    <time>2025-11-08T15:23:28Z</time>
   </trkpt>
   <trkpt lat="53.3661660" lon="-6.3244200">
    <ele>46.9</ele>
    <time>2025-11-08T15:23:33Z</time>
   </trkpt>
   <trkpt lat="53.3661140" lon="-6.3243450">
    <ele>46.9</ele>
    <time>2025-11-08T15:23:38Z</time>
   </trkpt>
   <trkpt lat="53.3660680" lon="-6.3242320">
    <ele>46.7</ele>
    <time>2025-11-08T15:23:44Z</time>
   </trkpt>
   <trkpt lat="53.3660090" lon="-6.3241580">
    <ele>46.7</ele>
    <time>2025-11-08T15:23:49Z</time>
   </trkpt>
   <trkpt lat="53.3659800" lon="-6.3240920">
    <ele>46.7</ele>
    <time>2025-11-08T15:23:54Z</time>
   </trkpt>
   <trkpt lat="53.3659890" lon="-6.3239690">
    <ele>46.5</ele>
    <time>2025-11-08T15:23:59Z</time>
   </trkpt>
   <trkpt lat="53.3659640" lon="-6.3238640">
    <ele>46.4</ele>
    <time>2025-11-08T15:24:04Z</time>
   </trkpt>
   <trkpt lat="53.3659270" lon="-6.3237410">
    <ele>46.4</ele>
    <time>2025-11-08T15:24:10Z</time>
   </trkpt>
   <trkpt lat="53.3658880" lon="-6.3236600">
    <ele>46.3</ele>
    <time>2025-11-08T15:24:15Z</time>
   </trkpt>
   <trkpt lat="53.3658480" lon="-6.3235670">
    <ele>46.0</ele>
    <time>2025-11-08T15:24:20Z</time>
   </trkpt>
   <trkpt lat="53.3658180" lon="-6.3234800">
    <ele>45.9</ele>
    <time>2025-11-08T15:24:25Z</time>
   </trkpt>
   <trkpt lat="53.3657760" lon="-6.3234370">
    <ele>45.9</ele>
    <time>2025-11-08T15:24:30Z</time>
   </trkpt>
   <trkpt lat="53.3657270" lon="-6.3233920">
    <ele>45.7</ele>
    <time>2025-11-08T15:24:35Z</time>
   </trkpt>
   <trkpt lat="53.3656980" lon="-6.3232980">
    <ele>45.4</ele>
    <time>2025-11-08T15:24:41Z</time>
   </trkpt>
   <trkpt lat="53.3656580" lon="-6.3231980">
    <ele>45.2</ele>
    <time>2025-11-08T15:24:46Z</time>
   </trkpt>
   <trkpt lat="53.3656420" lon="-6.3231190">
    <ele>43.4</ele>
    <time>2025-11-08T15:24:52Z</time>
   </trkpt>
   <trkpt lat="53.3656740" lon="-6.3230550">
    <ele>41.5</ele>
    <time>2025-11-08T15:24:58Z</time>
   </trkpt>
   <trkpt lat="53.3656850" lon="-6.3229800">
    <ele>40.0</ele>
    <time>2025-11-08T15:25:21Z</time>
   </trkpt>
   <trkpt lat="53.3656070" lon="-6.3229100">
    <ele>41.6</ele>
    <time>2025-11-08T15:25:27Z</time>
   </trkpt>
   <trkpt lat="53.3655290" lon="-6.3228700">
    <ele>43.6</ele>
    <time>2025-11-08T15:25:32Z</time>
   </trkpt>
   <trkpt lat="53.3655540" lon="-6.3227980">
    <ele>40.8</ele>
    <time>2025-11-08T15:25:44Z</time>
   </trkpt>
   <trkpt lat="53.3655730" lon="-6.3227230">
    <ele>39.8</ele>
    <time>2025-11-08T15:25:50Z</time>
   </trkpt>
   <trkpt lat="53.3655780" lon="-6.3226360">
    <ele>40.6</ele>
    <time>2025-11-08T15:25:55Z</time>
   </trkpt>
   <trkpt lat="53.3655820" lon="-6.3225310">
    <ele>42.6</ele>
    <time>2025-11-08T15:26:00Z</time>
   </trkpt>
   <trkpt lat="53.3655520" lon="-6.3224420">
    <ele>43.9</ele>
    <time>2025-11-08T15:26:06Z</time>
   </trkpt>
   <trkpt lat="53.3654810" lon="-6.3223520">
    <ele>44.5</ele>
    <time>2025-11-08T15:26:12Z</time>
   </trkpt>
   <trkpt lat="53.3654190" lon="-6.3222870">
    <ele>44.8</ele>
    <time>2025-11-08T15:26:17Z</time>
   </trkpt>
   <trkpt lat="53.3654240" lon="-6.3222120">
    <ele>40.4</ele>
    <time>2025-11-08T15:26:35Z</time>
   </trkpt>
   <trkpt lat="53.3653370" lon="-6.3220520">
    <ele>41.8</ele>
    <time>2025-11-08T15:26:40Z</time>
   </trkpt>
   <trkpt lat="53.3653230" lon="-6.3218650">
    <ele>43.8</ele>
    <time>2025-11-08T15:26:46Z</time>
   </trkpt>
   <trkpt lat="53.3653180" lon="-6.3217120">
    <ele>44.1</ele>
    <time>2025-11-08T15:26:52Z</time>
   </trkpt>
   <trkpt lat="53.3653050" lon="-6.3215770">
    <ele>44.2</ele>
    <time>2025-11-08T15:26:58Z</time>
   </trkpt>
   <trkpt lat="53.3652770" lon="-6.3214540">
    <ele>44.3</ele>
    <time>2025-11-08T15:27:03Z</time>
   </trkpt>
   <trkpt lat="53.3652280" lon="-6.3213290">
    <ele>44.4</ele>
    <time>2025-11-08T15:27:09Z</time>
   </trkpt>
   <trkpt lat="53.3652010" lon="-6.3212310">
    <ele>44.4</ele>
    <time>2025-11-08T15:27:15Z</time>
   </trkpt>
   <trkpt lat="53.3651760" lon="-6.3211150">
    <ele>44.4</ele>
    <time>2025-11-08T15:27:20Z</time>
   </trkpt>
   <trkpt lat="53.3651570" lon="-6.3209560">
    <ele>44.3</ele>
    <time>2025-11-08T15:27:26Z</time>
   </trkpt>
   <trkpt lat="53.3651220" lon="-6.3208320">
    <ele>44.4</ele>
    <time>2025-11-08T15:27:32Z</time>
   </trkpt>
   <trkpt lat="53.3650800" lon="-6.3207450">
    <ele>44.6</ele>
    <time>2025-11-08T15:27:37Z</time>
   </trkpt>
   <trkpt lat="53.3650540" lon="-6.3206550">
    <ele>44.4</ele>
    <time>2025-11-08T15:27:42Z</time>
   </trkpt>
   <trkpt lat="53.3650470" lon="-6.3205540">
    <ele>44.0</ele>
    <time>2025-11-08T15:27:48Z</time>
   </trkpt>
   <trkpt lat="53.3650410" lon="-6.3204750">
    <ele>43.8</ele>
    <time>2025-11-08T15:27:54Z</time>
   </trkpt>
   <trkpt lat="53.3650310" lon="-6.3203890">
    <ele>44.1</ele>
    <time>2025-11-08T15:27:59Z</time>
   </trkpt>
   <trkpt lat="53.3650090" lon="-6.3203130">
    <ele>43.9</ele>
    <time>2025-11-08T15:28:04Z</time>
   </trkpt>
   <trkpt lat="53.3649910" lon="-6.3202280">
    <ele>43.8</ele>
    <time>2025-11-08T15:28:10Z</time>
   </trkpt>
   <trkpt lat="53.3649680" lon="-6.3201470">
    <ele>43.6</ele>
    <time>2025-11-08T15:28:15Z</time>
   </trkpt>
   <trkpt lat="53.3649260" lon="-6.3200420">
    <ele>43.3</ele>
    <time>2025-11-08T15:28:20Z</time>
   </trkpt>
   <trkpt lat="53.3649040" lon="-6.3198900">
    <ele>43.2</ele>
    <time>2025-11-08T15:28:26Z</time>
   </trkpt>
   <trkpt lat="53.3649050" lon="-6.3197690">
    <ele>43.1</ele>
    <time>2025-11-08T15:28:31Z</time>
   </trkpt>
   <trkpt lat="53.3648990" lon="-6.3196680">
    <ele>43.1</ele>
    <time>2025-11-08T15:28:36Z</time>
   </trkpt>
   <trkpt lat="53.3648920" lon="-6.3195800">
    <ele>43.0</ele>
    <time>2025-11-08T15:28:42Z</time>
   </trkpt>
   <trkpt lat="53.3648970" lon="-6.3194950">
    <ele>38.3</ele>
    <time>2025-11-08T15:29:01Z</time>
   </trkpt>
   <trkpt lat="53.3649150" lon="-6.3194040">
    <ele>38.4</ele>
    <time>2025-11-08T15:29:09Z</time>
   </trkpt>
   <trkpt lat="53.3649220" lon="-6.3192790">
    <ele>40.9</ele>
    <time>2025-11-08T15:29:15Z</time>
   </trkpt>
   <trkpt lat="53.3649060" lon="-6.3191990">
    <ele>42.0</ele>
    <time>2025-11-08T15:29:21Z</time>
   </trkpt>
   <trkpt lat="53.3648300" lon="-6.3190920">
    <ele>42.6</ele>
    <time>2025-11-08T15:29:26Z</time>
   </trkpt>
   <trkpt lat="53.3647730" lon="-6.3190360">
    <ele>42.8</ele>
    <time>2025-11-08T15:29:31Z</time>
   </trkpt>
   <trkpt lat="53.3647400" lon="-6.3189540">
    <ele>42.9</ele>
    <time>2025-11-08T15:29:37Z</time>
   </trkpt>
   <trkpt lat="53.3646980" lon="-6.3189000">
    <ele>43.0</ele>
    <time>2025-11-08T15:29:43Z</time>
   </trkpt>
   <trkpt lat="53.3646590" lon="-6.3188060">
    <ele>43.0</ele>
    <time>2025-11-08T15:29:48Z</time>
   </trkpt>
   <trkpt lat="53.3646020" lon="-6.3186820">
    <ele>43.0</ele>
    <time>2025-11-08T15:29:54Z</time>
   </trkpt>
   <trkpt lat="53.3645550" lon="-6.3185690">
    <ele>43.0</ele>
    <time>2025-11-08T15:29:59Z</time>
   </trkpt>
   <trkpt lat="53.3644940" lon="-6.3184890">
    <ele>43.0</ele>
    <time>2025-11-08T15:30:04Z</time>
   </trkpt>
   <trkpt lat="53.3644480" lon="-6.3183960">
    <ele>43.0</ele>
    <time>2025-11-08T15:30:10Z</time>
   </trkpt>
   <trkpt lat="53.3644040" lon="-6.3183040">
    <ele>42.8</ele>
    <time>2025-11-08T15:30:16Z</time>
   </trkpt>
   <trkpt lat="53.3643760" lon="-6.3182090">
    <ele>42.6</ele>
    <time>2025-11-08T15:30:21Z</time>
   </trkpt>
   <trkpt lat="53.3643510" lon="-6.3180720">
    <ele>42.6</ele>
    <time>2025-11-08T15:30:26Z</time>
   </trkpt>
   <trkpt lat="53.3643190" lon="-6.3179410">
    <ele>42.6</ele>
    <time>2025-11-08T15:30:32Z</time>
   </trkpt>
   <trkpt lat="53.3642930" lon="-6.3178030">
    <ele>42.5</ele>
    <time>2025-11-08T15:30:37Z</time>
   </trkpt>
   <trkpt lat="53.3642510" lon="-6.3177040">
    <ele>42.3</ele>
    <time>2025-11-08T15:30:42Z</time>
   </trkpt>
   <trkpt lat="53.3642240" lon="-6.3175900">
    <ele>42.2</ele>
    <time>2025-11-08T15:30:48Z</time>
   </trkpt>
   <trkpt lat="53.3641910" lon="-6.3174900">
    <ele>42.0</ele>
    <time>2025-11-08T15:30:53Z</time>
   </trkpt>
   <trkpt lat="53.3641620" lon="-6.3174180">
    <ele>41.9</ele>
    <time>2025-11-08T15:30:58Z</time>
   </trkpt>
   <trkpt lat="53.3641410" lon="-6.3173170">
    <ele>41.8</ele>
    <time>2025-11-08T15:31:03Z</time>
   </trkpt>
   <trkpt lat="53.3640680" lon="-6.3172060">
    <ele>41.8</ele>
    <time>2025-11-08T15:31:09Z</time>
   </trkpt>
   <trkpt lat="53.3639950" lon="-6.3171250">
    <ele>41.8</ele>
    <time>2025-11-08T15:31:15Z</time>
   </trkpt>
   <trkpt lat="53.3639720" lon="-6.3170120">
    <ele>41.8</ele>
    <time>2025-11-08T15:31:21Z</time>
   </trkpt>
   <trkpt lat="53.3640140" lon="-6.3169560">
    <ele>39.5</ele>
    <time>2025-11-08T15:31:29Z</time>
   </trkpt>
   <trkpt lat="53.3639780" lon="-6.3169030">
    <ele>37.5</ele>
    <time>2025-11-08T15:31:41Z</time>
   </trkpt>
   <trkpt lat="53.3639080" lon="-6.3167910">
    <ele>39.8</ele>
    <time>2025-11-08T15:31:46Z</time>
   </trkpt>
   <trkpt lat="53.3638440" lon="-6.3166900">
    <ele>40.9</ele>
    <time>2025-11-08T15:31:51Z</time>
   </trkpt>
   <trkpt lat="53.3637820" lon="-6.3165680">
    <ele>41.5</ele>
    <time>2025-11-08T15:31:57Z</time>
   </trkpt>
   <trkpt lat="53.3637640" lon="-6.3164420">
    <ele>41.7</ele>
    <time>2025-11-08T15:32:02Z</time>
   </trkpt>
   <trkpt lat="53.3637130" lon="-6.3163740">
    <ele>41.7</ele>
    <time>2025-11-08T15:32:07Z</time>
   </trkpt>
   <trkpt lat="53.3636590" lon="-6.3163040">
    <ele>41.7</ele>
    <time>2025-11-08T15:32:13Z</time>
   </trkpt>
   <trkpt lat="53.3636660" lon="-6.3161360">
    <ele>41.7</ele>
    <time>2025-11-08T15:32:18Z</time>
   </trkpt>
   <trkpt lat="53.3636380" lon="-6.3160710">
    <ele>41.7</ele>
    <time>2025-11-08T15:32:23Z</time>
   </trkpt>
   <trkpt lat="53.3635910" lon="-6.3160190">
    <ele>41.6</ele>
    <time>2025-11-08T15:32:28Z</time>
   </trkpt>
   <trkpt lat="53.3635530" lon="-6.3159470">
    <ele>41.4</ele>
    <time>2025-11-08T15:32:33Z</time>
   </trkpt>
   <trkpt lat="53.3635230" lon="-6.3158700">
    <ele>41.3</ele>
    <time>2025-11-08T15:32:40Z</time>
   </trkpt>
   <trkpt lat="53.3634880" lon="-6.3157960">
    <ele>41.0</ele>
    <time>2025-11-08T15:32:45Z</time>
   </trkpt>
   <trkpt lat="53.3634460" lon="-6.3157160">
    <ele>41.0</ele>
    <time>2025-11-08T15:32:50Z</time>
   </trkpt>
   <trkpt lat="53.3633910" lon="-6.3156530">
    <ele>41.0</ele>
    <time>2025-11-08T15:32:55Z</time>
   </trkpt>
   <trkpt lat="53.3632070" lon="-6.3154510">
    <ele>41.2</ele>
    <time>2025-11-08T15:33:11Z</time>
   </trkpt>
   <trkpt lat="53.3631290" lon="-6.3153900">
    <ele>41.2</ele>
    <time>2025-11-08T15:33:17Z</time>
   </trkpt>
   <trkpt lat="53.3631340" lon="-6.3152650">
    <ele>41.1</ele>
    <time>2025-11-08T15:33:22Z</time>
   </trkpt>
   <trkpt lat="53.3631260" lon="-6.3151150">
    <ele>41.2</ele>
    <time>2025-11-08T15:33:27Z</time>
   </trkpt>
   <trkpt lat="53.3631540" lon="-6.3149760">
    <ele>41.4</ele>
    <time>2025-11-08T15:33:33Z</time>
   </trkpt>
   <trkpt lat="53.3631520" lon="-6.3148420">
    <ele>41.2</ele>
    <time>2025-11-08T15:33:38Z</time>
   </trkpt>
   <trkpt lat="53.3631140" lon="-6.3146970">
    <ele>41.0</ele>
    <time>2025-11-08T15:33:44Z</time>
   </trkpt>
   <trkpt lat="53.3630670" lon="-6.3145940">
    <ele>40.4</ele>
    <time>2025-11-08T15:33:49Z</time>
   </trkpt>
   <trkpt lat="53.3630290" lon="-6.3144900">
    <ele>39.5</ele>
    <time>2025-11-08T15:33:55Z</time>
   </trkpt>
   <trkpt lat="53.3630070" lon="-6.3143940">
    <ele>39.2</ele>
    <time>2025-11-08T15:34:00Z</time>
   </trkpt>
   <trkpt lat="53.3629780" lon="-6.3143000">
    <ele>39.7</ele>
    <time>2025-11-08T15:34:05Z</time>
   </trkpt>
   <trkpt lat="53.3629390" lon="-6.3142230">
    <ele>40.0</ele>
    <time>2025-11-08T15:34:10Z</time>
   </trkpt>
   <trkpt lat="53.3629130" lon="-6.3141210">
    <ele>39.9</ele>
    <time>2025-11-08T15:34:16Z</time>
   </trkpt>
   <trkpt lat="53.3628850" lon="-6.3140320">
    <ele>40.2</ele>
    <time>2025-11-08T15:34:21Z</time>
   </trkpt>
   <trkpt lat="53.3628270" lon="-6.3139570">
    <ele>40.6</ele>
    <time>2025-11-08T15:34:27Z</time>
   </trkpt>
   <trkpt lat="53.3627980" lon="-6.3138970">
    <ele>40.8</ele>
    <time>2025-11-08T15:34:32Z</time>
   </trkpt>
   <trkpt lat="53.3627960" lon="-6.3138140">
    <ele>40.8</ele>
    <time>2025-11-08T15:34:37Z</time>
   </trkpt>
   <trkpt lat="53.3627730" lon="-6.3137390">
    <ele>40.9</ele>
    <time>2025-11-08T15:34:43Z</time>
   </trkpt>
   <trkpt lat="53.3627220" lon="-6.3136750">
    <ele>40.9</ele>
    <time>2025-11-08T15:34:48Z</time>
   </trkpt>
   <trkpt lat="53.3626800" lon="-6.3136180">
    <ele>40.9</ele>
    <time>2025-11-08T15:34:53Z</time>
   </trkpt>
   <trkpt lat="53.3626300" lon="-6.3135400">
    <ele>40.9</ele>
    <time>2025-11-08T15:34:59Z</time>
   </trkpt>
   <trkpt lat="53.3626000" lon="-6.3134600">
    <ele>40.9</ele>
    <time>2025-11-08T15:35:05Z</time>
   </trkpt>
   <trkpt lat="53.3625600" lon="-6.3133640">
    <ele>41.0</ele>
    <time>2025-11-08T15:35:11Z</time>
   </trkpt>
   <trkpt lat="53.3625400" lon="-6.3132220">
    <ele>41.0</ele>
    <time>2025-11-08T15:35:17Z</time>
   </trkpt>
   <trkpt lat="53.3625240" lon="-6.3131210">
    <ele>40.7</ele>
    <time>2025-11-08T15:35:23Z</time>
   </trkpt>
   <trkpt lat="53.3625130" lon="-6.3130360">
    <ele>35.5</ele>
    <time>2025-11-08T15:35:39Z</time>
   </trkpt>
   <trkpt lat="53.3624250" lon="-6.3129390">
    <ele>36.8</ele>
    <time>2025-11-08T15:35:45Z</time>
   </trkpt>
   <trkpt lat="53.3623620" lon="-6.3128850">
    <ele>38.0</ele>
    <time>2025-11-08T15:35:51Z</time>
   </trkpt>
   <trkpt lat="53.3623350" lon="-6.3128050">
    <ele>38.2</ele>
    <time>2025-11-08T15:35:57Z</time>
   </trkpt>
   <trkpt lat="53.3623060" lon="-6.3126560">
    <ele>37.6</ele>
    <time>2025-11-08T15:36:03Z</time>
   </trkpt>
   <trkpt lat="53.3623030" lon="-6.3125480">
    <ele>37.3</ele>
    <time>2025-11-08T15:36:08Z</time>
   </trkpt>
   <trkpt lat="53.3622760" lon="-6.3124220">
    <ele>37.3</ele>
    <time>2025-11-08T15:36:13Z</time>
   </trkpt>
   <trkpt lat="53.3622340" lon="-6.3123110">
    <ele>37.8</ele>
    <time>2025-11-08T15:36:18Z</time>
   </trkpt>
   <trkpt lat="53.3621650" lon="-6.3122000">
    <ele>38.1</ele>
    <time>2025-11-08T15:36:24Z</time>
   </trkpt>
   <trkpt lat="53.3621230" lon="-6.3120750">
    <ele>38.5</ele>
    <time>2025-11-08T15:36:29Z</time>
   </trkpt>
   <trkpt lat="53.3620920" lon="-6.3119490">
    <ele>38.7</ele>
    <time>2025-11-08T15:36:34Z</time>
   </trkpt>
   <trkpt lat="53.3620470" lon="-6.3118480">
    <ele>38.8</ele>
    <time>2025-11-08T15:36:39Z</time>
   </trkpt>
   <trkpt lat="53.3620110" lon="-6.3117590">
    <ele>38.8</ele>
    <time>2025-11-08T15:36:44Z</time>
   </trkpt>
   <trkpt lat="53.3619690" lon="-6.3116720">
    <ele>38.4</ele>
    <time>2025-11-08T15:36:49Z</time>
   </trkpt>
   <trkpt lat="53.3619110" lon="-6.3115800">
    <ele>38.5</ele>
    <time>2025-11-08T15:36:54Z</time>
   </trkpt>
   <trkpt lat="53.3618530" lon="-6.3114850">
    <ele>38.1</ele>
    <time>2025-11-08T15:37:00Z</time>
   </trkpt>
   <trkpt lat="53.3617970" lon="-6.3114090">
    <ele>37.9</ele>
    <time>2025-11-08T15:37:05Z</time>
   </trkpt>
   <trkpt lat="53.3617630" lon="-6.3113260">
    <ele>38.2</ele>
    <time>2025-11-08T15:37:11Z</time>
   </trkpt>
   <trkpt lat="53.3617580" lon="-6.3112510">
    <ele>38.3</ele>
    <time>2025-11-08T15:37:16Z</time>
   </trkpt>
   <trkpt lat="53.3617370" lon="-6.3111280">
    <ele>38.4</ele>
    <time>2025-11-08T15:37:22Z</time>
   </trkpt>
   <trkpt lat="53.3617110" lon="-6.3110220">
    <ele>38.5</ele>
    <time>2025-11-08T15:37:27Z</time>
   </trkpt>
   <trkpt lat="53.3616950" lon="-6.3109220">
    <ele>38.1</ele>
    <time>2025-11-08T15:37:33Z</time>
   </trkpt>
   <trkpt lat="53.3616580" lon="-6.3108180">
    <ele>38.0</ele>
    <time>2025-11-08T15:37:38Z</time>
   </trkpt>
   <trkpt lat="53.3616060" lon="-6.3107300">
    <ele>37.8</ele>
    <time>2025-11-08T15:37:43Z</time>
   </trkpt>
   <trkpt lat="53.3615710" lon="-6.3106620">
    <ele>37.5</ele>
    <time>2025-11-08T15:37:48Z</time>
   </trkpt>
   <trkpt lat="53.3615230" lon="-6.3105770">
    <ele>37.3</ele>
    <time>2025-11-08T15:37:54Z</time>
   </trkpt>
   <trkpt lat="53.3614800" lon="-6.3105090">
    <ele>37.1</ele>
    <time>2025-11-08T15:37:59Z</time>
   </trkpt>
   <trkpt lat="53.3614410" lon="-6.3104100">
    <ele>37.0</ele>
    <time>2025-11-08T15:38:04Z</time>
   </trkpt>
   <trkpt lat="53.3614080" lon="-6.3102700">
    <ele>36.9</ele>
    <time>2025-11-08T15:38:09Z</time>
   </trkpt>
   <trkpt lat="53.3613680" lon="-6.3101100">
    <ele>36.9</ele>
    <time>2025-11-08T15:38:15Z</time>
   </trkpt>
   <trkpt lat="53.3613340" lon="-6.3099980">
    <ele>36.9</ele>
    <time>2025-11-08T15:38:20Z</time>
   </trkpt>
   <trkpt lat="53.3612920" lon="-6.3098930">
    <ele>37.0</ele>
    <time>2025-11-08T15:38:25Z</time>
   </trkpt>
   <trkpt lat="53.3612240" lon="-6.3097970">
    <ele>37.0</ele>
    <time>2025-11-08T15:38:31Z</time>
   </trkpt>
   <trkpt lat="53.3611690" lon="-6.3097240">
    <ele>37.1</ele>
    <time>2025-11-08T15:38:36Z</time>
   </trkpt>
   <trkpt lat="53.3611200" lon="-6.3096270">
    <ele>37.0</ele>
    <time>2025-11-08T15:38:42Z</time>
   </trkpt>
   <trkpt lat="53.3611010" lon="-6.3095280">
    <ele>37.0</ele>
    <time>2025-11-08T15:38:47Z</time>
   </trkpt>
   <trkpt lat="53.3610560" lon="-6.3094240">
    <ele>37.0</ele>
    <time>2025-11-08T15:38:53Z</time>
   </trkpt>
   <trkpt lat="53.3610060" lon="-6.3093300">
    <ele>37.0</ele>
    <time>2025-11-08T15:38:58Z</time>
   </trkpt>
   <trkpt lat="53.3609730" lon="-6.3092460">
    <ele>37.0</ele>
    <time>2025-11-08T15:39:03Z</time>
   </trkpt>
   <trkpt lat="53.3609370" lon="-6.3091530">
    <ele>37.0</ele>
    <time>2025-11-08T15:39:08Z</time>
   </trkpt>
   <trkpt lat="53.3608860" lon="-6.3090540">
    <ele>37.2</ele>
    <time>2025-11-08T15:39:14Z</time>
   </trkpt>
   <trkpt lat="53.3608490" lon="-6.3089760">
    <ele>37.2</ele>
    <time>2025-11-08T15:39:19Z</time>
   </trkpt>
   <trkpt lat="53.3608040" lon="-6.3088850">
    <ele>37.2</ele>
    <time>2025-11-08T15:39:25Z</time>
   </trkpt>
   <trkpt lat="53.3607530" lon="-6.3087770">
    <ele>37.2</ele>
    <time>2025-11-08T15:39:31Z</time>
   </trkpt>
   <trkpt lat="53.3607140" lon="-6.3086930">
    <ele>37.2</ele>
    <time>2025-11-08T15:39:36Z</time>
   </trkpt>
   <trkpt lat="53.3606820" lon="-6.3086010">
    <ele>38.7</ele>
    <time>2025-11-08T15:39:42Z</time>
   </trkpt>
   <trkpt lat="53.3606390" lon="-6.3085460">
    <ele>39.8</ele>
    <time>2025-11-08T15:39:47Z</time>
   </trkpt>
   <trkpt lat="53.3605780" lon="-6.3084960">
    <ele>39.9</ele>
    <time>2025-11-08T15:39:52Z</time>
   </trkpt>
   <trkpt lat="53.3605260" lon="-6.3084230">
    <ele>39.2</ele>
    <time>2025-11-08T15:39:58Z</time>
   </trkpt>
   <trkpt lat="53.3604920" lon="-6.3083560">
    <ele>38.5</ele>
    <time>2025-11-08T15:40:03Z</time>
   </trkpt>
   <trkpt lat="53.3604480" lon="-6.3083040">
    <ele>37.9</ele>
    <time>2025-11-08T15:40:09Z</time>
   </trkpt>
   <trkpt lat="53.3603980" lon="-6.3082420">
    <ele>37.6</ele>
    <time>2025-11-08T15:40:15Z</time>
   </trkpt>
   <trkpt lat="53.3603490" lon="-6.3081680">
    <ele>37.5</ele>
    <time>2025-11-08T15:40:20Z</time>
   </trkpt>
   <trkpt lat="53.3603550" lon="-6.3080870">
    <ele>37.5</ele>
    <time>2025-11-08T15:40:25Z</time>
   </trkpt>
   <trkpt lat="53.3603340" lon="-6.3080040">
    <ele>37.5</ele>
    <time>2025-11-08T15:40:30Z</time>
   </trkpt>
   <trkpt lat="53.3602700" lon="-6.3079240">
    <ele>37.5</ele>
    <time>2025-11-08T15:40:36Z</time>
   </trkpt>
   <trkpt lat="53.3602150" lon="-6.3078520">
    <ele>37.5</ele>
    <time>2025-11-08T15:40:41Z</time>
   </trkpt>
   <trkpt lat="53.3601680" lon="-6.3077880">
    <ele>37.5</ele>
    <time>2025-11-08T15:40:46Z</time>
   </trkpt>
   <trkpt lat="53.3601330" lon="-6.3077100">
    <ele>37.5</ele>
    <time>2025-11-08T15:40:51Z</time>
   </trkpt>
   <trkpt lat="53.3600890" lon="-6.3076430">
    <ele>37.5</ele>
    <time>2025-11-08T15:40:56Z</time>
   </trkpt>
   <trkpt lat="53.3600420" lon="-6.3075890">
    <ele>37.6</ele>
    <time>2025-11-08T15:41:02Z</time>
   </trkpt>
   <trkpt lat="53.3599930" lon="-6.3075070">
    <ele>37.7</ele>
    <time>2025-11-08T15:41:07Z</time>
   </trkpt>
   <trkpt lat="53.3599500" lon="-6.3074190">
    <ele>37.7</ele>
    <time>2025-11-08T15:41:12Z</time>
   </trkpt>
   <trkpt lat="53.3598970" lon="-6.3073150">
    <ele>37.8</ele>
    <time>2025-11-08T15:41:18Z</time>
   </trkpt>
   <trkpt lat="53.3598590" lon="-6.3072390">
    <ele>37.6</ele>
    <time>2025-11-08T15:41:24Z</time>
   </trkpt>
   <trkpt lat="53.3598170" lon="-6.3071480">
    <ele>37.7</ele>
    <time>2025-11-08T15:41:29Z</time>
   </trkpt>
   <trkpt lat="53.3597760" lon="-6.3070790">
    <ele>37.8</ele>
    <time>2025-11-08T15:41:34Z</time>
   </trkpt>
   <trkpt lat="53.3597400" lon="-6.3070160">
    <ele>38.0</ele>
    <time>2025-11-08T15:41:39Z</time>
   </trkpt>
   <trkpt lat="53.3596970" lon="-6.3069190">
    <ele>38.0</ele>
    <time>2025-11-08T15:41:45Z</time>
   </trkpt>
   <trkpt lat="53.3596460" lon="-6.3068630">
    <ele>37.8</ele>
    <time>2025-11-08T15:41:50Z</time>
   </trkpt>
   <trkpt lat="53.3596020" lon="-6.3068300">
    <ele>37.6</ele>
    <time>2025-11-08T15:41:55Z</time>
   </trkpt>
   <trkpt lat="53.3595660" lon="-6.3067660">
    <ele>37.4</ele>
    <time>2025-11-08T15:42:01Z</time>
   </trkpt>
   <trkpt lat="53.3595150" lon="-6.3066950">
    <ele>37.4</ele>
    <time>2025-11-08T15:42:06Z</time>
   </trkpt>
   <trkpt lat="53.3594820" lon="-6.3066240">
    <ele>37.8</ele>
    <time>2025-11-08T15:42:11Z</time>
   </trkpt>
   <trkpt lat="53.3594410" lon="-6.3065670">
    <ele>38.4</ele>
    <time>2025-11-08T15:42:17Z</time>
   </trkpt>
   <trkpt lat="53.3593900" lon="-6.3065170">
    <ele>38.0</ele>
    <time>2025-11-08T15:42:22Z</time>
   </trkpt>
   <trkpt lat="53.3593430" lon="-6.3064970">
    <ele>37.8</ele>
    <time>2025-11-08T15:42:27Z</time>
   </trkpt>
   <trkpt lat="53.3593050" lon="-6.3064400">
    <ele>37.5</ele>
    <time>2025-11-08T15:42:33Z</time>
   </trkpt>
   <trkpt lat="53.3592540" lon="-6.3063450">
    <ele>36.9</ele>
    <time>2025-11-08T15:42:38Z</time>
   </trkpt>
   <trkpt lat="53.3592100" lon="-6.3062890">
    <ele>37.4</ele>
    <time>2025-11-08T15:42:43Z</time>
   </trkpt>
   <trkpt lat="53.3591620" lon="-6.3061920">
    <ele>37.5</ele>
    <time>2025-11-08T15:42:49Z</time>
   </trkpt>
   <trkpt lat="53.3591260" lon="-6.3061110">
    <ele>37.2</ele>
    <time>2025-11-08T15:42:54Z</time>
   </trkpt>
   <trkpt lat="53.3590820" lon="-6.3060180">
    <ele>37.0</ele>
    <time>2025-11-08T15:43:00Z</time>
   </trkpt>
   <trkpt lat="53.3590470" lon="-6.3059640">
    <ele>37.2</ele>
    <time>2025-11-08T15:43:05Z</time>
   </trkpt>
   <trkpt lat="53.3590030" lon="-6.3058960">
    <ele>37.5</ele>
    <time>2025-11-08T15:43:10Z</time>
   </trkpt>
   <trkpt lat="53.3589570" lon="-6.3058160">
    <ele>37.7</ele>
    <time>2025-11-08T15:43:16Z</time>
   </trkpt>
   <trkpt lat="53.3588960" lon="-6.3057330">
    <ele>37.6</ele>
    <time>2025-11-08T15:43:22Z</time>
   </trkpt>
   <trkpt lat="53.3588620" lon="-6.3056600">
    <ele>37.6</ele>
    <time>2025-11-08T15:43:27Z</time>
   </trkpt>
   <trkpt lat="53.3588380" lon="-6.3055270">
    <ele>37.8</ele>
    <time>2025-11-08T15:43:33Z</time>
   </trkpt>
   <trkpt lat="53.3587800" lon="-6.3054090">
    <ele>37.9</ele>
    <time>2025-11-08T15:43:39Z</time>
   </trkpt>
   <trkpt lat="53.3587260" lon="-6.3053280">
    <ele>37.9</ele>
    <time>2025-11-08T15:43:44Z</time>
   </trkpt>
   <trkpt lat="53.3586700" lon="-6.3052440">
    <ele>37.9</ele>
    <time>2025-11-08T15:43:50Z</time>
   </trkpt>
   <trkpt lat="53.3586180" lon="-6.3051760">
    <ele>37.9</ele>
    <time>2025-11-08T15:43:56Z</time>
   </trkpt>
   <trkpt lat="53.3585600" lon="-6.3051110">
    <ele>37.9</ele>
    <time>2025-11-08T15:44:01Z</time>
   </trkpt>
   <trkpt lat="53.3585180" lon="-6.3050700">
    <ele>37.9</ele>
    <time>2025-11-08T15:44:06Z</time>
   </trkpt>
   <trkpt lat="53.3584940" lon="-6.3049840">
    <ele>37.9</ele>
    <time>2025-11-08T15:44:13Z</time>
   </trkpt>
   <trkpt lat="53.3584490" lon="-6.3049020">
    <ele>37.9</ele>
    <time>2025-11-08T15:44:18Z</time>
   </trkpt>
   <trkpt lat="53.3584080" lon="-6.3048290">
    <ele>37.9</ele>
    <time>2025-11-08T15:44:24Z</time>
   </trkpt>
   <trkpt lat="53.3583590" lon="-6.3047960">
    <ele>37.8</ele>
    <time>2025-11-08T15:44:29Z</time>
   </trkpt>
   <trkpt lat="53.3583150" lon="-6.3047340">
    <ele>37.8</ele>
    <time>2025-11-08T15:44:35Z</time>
   </trkpt>
   <trkpt lat="53.3582750" lon="-6.3046710">
    <ele>37.8</ele>
    <time>2025-11-08T15:44:40Z</time>
   </trkpt>
   <trkpt lat="53.3582180" lon="-6.3046200">
    <ele>37.4</ele>
    <time>2025-11-08T15:44:46Z</time>
   </trkpt>
   <trkpt lat="53.3581660" lon="-6.3045980">
    <ele>37.3</ele>
    <time>2025-11-08T15:44:51Z</time>
   </trkpt>
   <trkpt lat="53.3580980" lon="-6.3045710">
    <ele>37.4</ele>
    <time>2025-11-08T15:44:57Z</time>
   </trkpt>
   <trkpt lat="53.3580280" lon="-6.3045380">
    <ele>37.6</ele>
    <time>2025-11-08T15:45:03Z</time>
   </trkpt>
   <trkpt lat="53.3579770" lon="-6.3044740">
    <ele>37.7</ele>
    <time>2025-11-08T15:45:08Z</time>
   </trkpt>
   <trkpt lat="53.3579270" lon="-6.3044250">
    <ele>37.7</ele>
    <time>2025-11-08T15:45:14Z</time>
   </trkpt>
   <trkpt lat="53.3578840" lon="-6.3043700">
    <ele>37.7</ele>
    <time>2025-11-08T15:45:19Z</time>
   </trkpt>
   <trkpt lat="53.3578490" lon="-6.3042450">
    <ele>37.7</ele>
    <time>2025-11-08T15:45:24Z</time>
   </trkpt>
   <trkpt lat="53.3578130" lon="-6.3041720">
    <ele>37.7</ele>
    <time>2025-11-08T15:45:29Z</time>
   </trkpt>
   <trkpt lat="53.3577460" lon="-6.3041220">
    <ele>37.7</ele>
    <time>2025-11-08T15:45:35Z</time>
   </trkpt>
   <trkpt lat="53.3577030" lon="-6.3040640">
    <ele>37.7</ele>
    <time>2025-11-08T15:45:40Z</time>
   </trkpt>
   <trkpt lat="53.3576300" lon="-6.3039880">
    <ele>37.8</ele>
    <time>2025-11-08T15:45:46Z</time>
   </trkpt>
   <trkpt lat="53.3575780" lon="-6.3039360">
    <ele>37.3</ele>
    <time>2025-11-08T15:45:51Z</time>
   </trkpt>
   <trkpt lat="53.3575270" lon="-6.3038880">
    <ele>37.4</ele>
    <time>2025-11-08T15:45:57Z</time>
   </trkpt>
   <trkpt lat="53.3574780" lon="-6.3038620">
    <ele>37.6</ele>
    <time>2025-11-08T15:46:02Z</time>
   </trkpt>
   <trkpt lat="53.3574240" lon="-6.3038510">
    <ele>37.7</ele>
    <time>2025-11-08T15:46:07Z</time>
   </trkpt>
   <trkpt lat="53.3573580" lon="-6.3038350">
    <ele>37.2</ele>
    <time>2025-11-08T15:46:13Z</time>
   </trkpt>
   <trkpt lat="53.3573000" lon="-6.3038180">
    <ele>37.1</ele>
    <time>2025-11-08T15:46:18Z</time>
   </trkpt>
   <trkpt lat="53.3572440" lon="-6.3037940">
    <ele>37.4</ele>
    <time>2025-11-08T15:46:23Z</time>
   </trkpt>
   <trkpt lat="53.3571980" lon="-6.3037630">
    <ele>37.4</ele>
    <time>2025-11-08T15:46:28Z</time>
   </trkpt>
   <trkpt lat="53.3571460" lon="-6.3037260">
    <ele>37.4</ele>
    <time>2025-11-08T15:46:33Z</time>
   </trkpt>
   <trkpt lat="53.3571010" lon="-6.3036990">
    <ele>37.2</ele>
    <time>2025-11-08T15:46:38Z</time>
   </trkpt>
   <trkpt lat="53.3570530" lon="-6.3036600">
    <ele>37.2</ele>
    <time>2025-11-08T15:46:43Z</time>
   </trkpt>
   <trkpt lat="53.3569990" lon="-6.3036300">
    <ele>36.9</ele>
    <time>2025-11-08T15:46:48Z</time>
   </trkpt>
   <trkpt lat="53.3569480" lon="-6.3035840">
    <ele>36.7</ele>
    <time>2025-11-08T15:46:53Z</time>
   </trkpt>
   <trkpt lat="53.3569010" lon="-6.3035170">
    <ele>36.8</ele>
    <time>2025-11-08T15:46:58Z</time>
   </trkpt>
   <trkpt lat="53.3568410" lon="-6.3034740">
    <ele>36.9</ele>
    <time>2025-11-08T15:47:04Z</time>
   </trkpt>
   <trkpt lat="53.3567870" lon="-6.3034270">
    <ele>36.9</ele>
    <time>2025-11-08T15:47:09Z</time>
   </trkpt>
   <trkpt lat="53.3567250" lon="-6.3033850">
    <ele>36.9</ele>
    <time>2025-11-08T15:47:14Z</time>
   </trkpt>
   <trkpt lat="53.3566430" lon="-6.3033480">
    <ele>36.9</ele>
    <time>2025-11-08T15:47:20Z</time>
   </trkpt>
   <trkpt lat="53.3565760" lon="-6.3033540">
    <ele>37.0</ele>
    <time>2025-11-08T15:47:25Z</time>
   </trkpt>
   <trkpt lat="53.3565090" lon="-6.3033530">
    <ele>37.0</ele>
    <time>2025-11-08T15:47:31Z</time>
   </trkpt>
   <trkpt lat="53.3564430" lon="-6.3033580">
    <ele>37.0</ele>
    <time>2025-11-08T15:47:36Z</time>
   </trkpt>
   <trkpt lat="53.3563660" lon="-6.3033370">
    <ele>37.0</ele>
    <time>2025-11-08T15:47:42Z</time>
   </trkpt>
   <trkpt lat="53.3562890" lon="-6.3032980">
    <ele>37.0</ele>
    <time>2025-11-08T15:47:47Z</time>
   </trkpt>
   <trkpt lat="53.3562230" lon="-6.3032750">
    <ele>36.3</ele>
    <time>2025-11-08T15:47:53Z</time>
   </trkpt>
   <trkpt lat="53.3561510" lon="-6.3032230">
    <ele>36.7</ele>
    <time>2025-11-08T15:47:59Z</time>
   </trkpt>
   <trkpt lat="53.3561000" lon="-6.3031680">
    <ele>36.8</ele>
    <time>2025-11-08T15:48:04Z</time>
   </trkpt>
   <trkpt lat="53.3560310" lon="-6.3031020">
    <ele>36.9</ele>
    <time>2025-11-08T15:48:10Z</time>
   </trkpt>
   <trkpt lat="53.3559660" lon="-6.3030380">
    <ele>36.9</ele>
    <time>2025-11-08T15:48:15Z</time>
   </trkpt>
   <trkpt lat="53.3558950" lon="-6.3029880">
    <ele>36.9</ele>
    <time>2025-11-08T15:48:21Z</time>
   </trkpt>
   <trkpt lat="53.3558390" lon="-6.3029620">
    <ele>36.9</ele>
    <time>2025-11-08T15:48:26Z</time>
   </trkpt>
   <trkpt lat="53.3557790" lon="-6.3029280">
    <ele>37.0</ele>
    <time>2025-11-08T15:48:31Z</time>
   </trkpt>
   <trkpt lat="53.3557320" lon="-6.3029140">
    <ele>36.8</ele>
    <time>2025-11-08T15:48:36Z</time>
   </trkpt>
   <trkpt lat="53.3556700" lon="-6.3029050">
    <ele>36.8</ele>
    <time>2025-11-08T15:48:42Z</time>
   </trkpt>
   <trkpt lat="53.3555880" lon="-6.3028680">
    <ele>36.8</ele>
    <time>2025-11-08T15:48:48Z</time>
   </trkpt>
   <trkpt lat="53.3555230" lon="-6.3028270">
    <ele>36.8</ele>
    <time>2025-11-08T15:48:53Z</time>
   </trkpt>
   <trkpt lat="53.3554580" lon="-6.3028100">
    <ele>36.8</ele>
    <time>2025-11-08T15:48:58Z</time>
   </trkpt>
   <trkpt lat="53.3553940" lon="-6.3027920">
    <ele>36.8</ele>
    <time>2025-11-08T15:49:03Z</time>
   </trkpt>
   <trkpt lat="53.3553240" lon="-6.3027860">
    <ele>36.7</ele>
    <time>2025-11-08T15:49:08Z</time>
   </trkpt>
   <trkpt lat="53.3552640" lon="-6.3027450">
    <ele>36.7</ele>
    <time>2025-11-08T15:49:13Z</time>
   </trkpt>
   <trkpt lat="53.3551830" lon="-6.3027170">
    <ele>36.8</ele>
    <time>2025-11-08T15:49:19Z</time>
   </trkpt>
   <trkpt lat="53.3551120" lon="-6.3026870">
    <ele>36.9</ele>
    <time>2025-11-08T15:49:24Z</time>
   </trkpt>
   <trkpt lat="53.3550330" lon="-6.3026620">
    <ele>36.9</ele>
    <time>2025-11-08T15:49:30Z</time>
   </trkpt>
   <trkpt lat="53.3549540" lon="-6.3026380">
    <ele>36.9</ele>
    <time>2025-11-08T15:49:36Z</time>
   </trkpt>
   <trkpt lat="53.3548930" lon="-6.3026150">
    <ele>36.9</ele>
    <time>2025-11-08T15:49:41Z</time>
   </trkpt>
   <trkpt lat="53.3548250" lon="-6.3026040">
    <ele>37.0</ele>
    <time>2025-11-08T15:49:46Z</time>
   </trkpt>
   <trkpt lat="53.3547620" lon="-6.3025890">
    <ele>37.2</ele>
    <time>2025-11-08T15:49:51Z</time>
   </trkpt>
   <trkpt lat="53.3546960" lon="-6.3025590">
    <ele>37.2</ele>
    <time>2025-11-08T15:49:56Z</time>
   </trkpt>
   <trkpt lat="53.3546340" lon="-6.3025190">
    <ele>37.1</ele>
    <time>2025-11-08T15:50:02Z</time>
   </trkpt>
   <trkpt lat="53.3545790" lon="-6.3024810">
    <ele>37.0</ele>
    <time>2025-11-08T15:50:07Z</time>
   </trkpt>
   <trkpt lat="53.3545110" lon="-6.3024270">
    <ele>37.0</ele>
    <time>2025-11-08T15:50:13Z</time>
   </trkpt>
   <trkpt lat="53.3544550" lon="-6.3024230">
    <ele>36.8</ele>
    <time>2025-11-08T15:50:18Z</time>
   </trkpt>
   <trkpt lat="53.3544000" lon="-6.3024170">
    <ele>37.0</ele>
    <time>2025-11-08T15:50:23Z</time>
   </trkpt>
   <trkpt lat="53.3543490" lon="-6.3023970">
    <ele>36.9</ele>
    <time>2025-11-08T15:50:28Z</time>
   </trkpt>
   <trkpt lat="53.3542880" lon="-6.3023520">
    <ele>36.9</ele>
    <time>2025-11-08T15:50:33Z</time>
   </trkpt>
   <trkpt lat="53.3542250" lon="-6.3022580">
    <ele>36.8</ele>
    <time>2025-11-08T15:50:39Z</time>
   </trkpt>
   <trkpt lat="53.3541660" lon="-6.3021780">
    <ele>36.7</ele>
    <time>2025-11-08T15:50:44Z</time>
   </trkpt>
   <trkpt lat="53.3541030" lon="-6.3021210">
    <ele>36.8</ele>
    <time>2025-11-08T15:50:49Z</time>
   </trkpt>
   <trkpt lat="53.3540520" lon="-6.3020910">
    <ele>36.8</ele>
    <time>2025-11-08T15:50:55Z</time>
   </trkpt>
   <trkpt lat="53.3540050" lon="-6.3020600">
    <ele>36.8</ele>
    <time>2025-11-08T15:51:00Z</time>
   </trkpt>
   <trkpt lat="53.3539240" lon="-6.3020180">
    <ele>36.8</ele>
    <time>2025-11-08T15:51:06Z</time>
   </trkpt>
   <trkpt lat="53.3538600" lon="-6.3019750">
    <ele>36.6</ele>
    <time>2025-11-08T15:51:11Z</time>
   </trkpt>
   <trkpt lat="53.3537890" lon="-6.3019120">
    <ele>36.7</ele>
    <time>2025-11-08T15:51:17Z</time>
   </trkpt>
   <trkpt lat="53.3537270" lon="-6.3018860">
    <ele>36.7</ele>
    <time>2025-11-08T15:51:22Z</time>
   </trkpt>
   <trkpt lat="53.3536630" lon="-6.3018670">
    <ele>36.6</ele>
    <time>2025-11-08T15:51:28Z</time>
   </trkpt>
   <trkpt lat="53.3536050" lon="-6.3018530">
    <ele>36.6</ele>
    <time>2025-11-08T15:51:33Z</time>
   </trkpt>
   <trkpt lat="53.3535740" lon="-6.3017960">
    <ele>33.1</ele>
    <time>2025-11-08T15:51:53Z</time>
   </trkpt>
   <trkpt lat="53.3535040" lon="-6.3017150">
    <ele>33.1</ele>
    <time>2025-11-08T15:51:58Z</time>
   </trkpt>
   <trkpt lat="53.3534380" lon="-6.3016730">
    <ele>35.0</ele>
    <time>2025-11-08T15:52:04Z</time>
   </trkpt>
   <trkpt lat="53.3533710" lon="-6.3016430">
    <ele>35.7</ele>
    <time>2025-11-08T15:52:10Z</time>
   </trkpt>
   <trkpt lat="53.3532970" lon="-6.3015870">
    <ele>36.1</ele>
    <time>2025-11-08T15:52:16Z</time>
   </trkpt>
   <trkpt lat="53.3532430" lon="-6.3015010">
    <ele>36.7</ele>
    <time>2025-11-08T15:52:21Z</time>
   </trkpt>
   <trkpt lat="53.3531880" lon="-6.3014370">
    <ele>36.7</ele>
    <time>2025-11-08T15:52:26Z</time>
   </trkpt>
   <trkpt lat="53.3531380" lon="-6.3013710">
    <ele>36.0</ele>
    <time>2025-11-08T15:52:32Z</time>
   </trkpt>
   <trkpt lat="53.3530860" lon="-6.3013030">
    <ele>35.4</ele>
    <time>2025-11-08T15:52:37Z</time>
   </trkpt>
   <trkpt lat="53.3530370" lon="-6.3012390">
    <ele>34.7</ele>
    <time>2025-11-08T15:52:42Z</time>
   </trkpt>
   <trkpt lat="53.3529870" lon="-6.3011580">
    <ele>34.7</ele>
    <time>2025-11-08T15:52:48Z</time>
   </trkpt>
   <trkpt lat="53.3529230" lon="-6.3010990">
    <ele>34.2</ele>
    <time>2025-11-08T15:52:54Z</time>
   </trkpt>
   <trkpt lat="53.3528570" lon="-6.3010500">
    <ele>33.4</ele>
    <time>2025-11-08T15:52:59Z</time>
   </trkpt>
   <trkpt lat="53.3527810" lon="-6.3009830">
    <ele>33.0</ele>
    <time>2025-11-08T15:53:05Z</time>
   </trkpt>
   <trkpt lat="53.3527200" lon="-6.3009080">
    <ele>32.3</ele>
    <time>2025-11-08T15:53:10Z</time>
   </trkpt>
   <trkpt lat="53.3526780" lon="-6.3008120">
    <ele>32.2</ele>
    <time>2025-11-08T15:53:15Z</time>
   </trkpt>
   <trkpt lat="53.3526670" lon="-6.3006760">
    <ele>32.3</ele>
    <time>2025-11-08T15:53:21Z</time>
   </trkpt>
   <trkpt lat="53.3526260" lon="-6.3005960">
    <ele>29.8</ele>
    <time>2025-11-08T15:53:41Z</time>
   </trkpt>
   <trkpt lat="53.3525520" lon="-6.3004970">
    <ele>30.7</ele>
    <time>2025-11-08T15:53:46Z</time>
   </trkpt>
   <trkpt lat="53.3525180" lon="-6.3004040">
    <ele>31.2</ele>
    <time>2025-11-08T15:53:51Z</time>
   </trkpt>
   <trkpt lat="53.3524890" lon="-6.3003230">
    <ele>31.3</ele>
    <time>2025-11-08T15:53:56Z</time>
   </trkpt>
   <trkpt lat="53.3524440" lon="-6.3002700">
    <ele>31.3</ele>
    <time>2025-11-08T15:54:02Z</time>
   </trkpt>
   <trkpt lat="53.3523920" lon="-6.3002990">
    <ele>31.3</ele>
    <time>2025-11-08T15:54:07Z</time>
   </trkpt>
   <trkpt lat="53.3523380" lon="-6.3002770">
    <ele>31.0</ele>
    <time>2025-11-08T15:54:12Z</time>
   </trkpt>
   <trkpt lat="53.3523100" lon="-6.3002050">
    <ele>30.0</ele>
    <time>2025-11-08T15:54:18Z</time>
   </trkpt>
   <trkpt lat="53.3523400" lon="-6.3000950">
    <ele>29.6</ele>
    <time>2025-11-08T15:54:23Z</time>
   </trkpt>
   <trkpt lat="53.3523420" lon="-6.2999500">
    <ele>29.4</ele>
    <time>2025-11-08T15:54:29Z</time>
   </trkpt>
   <trkpt lat="53.3523250" lon="-6.2998460">
    <ele>29.3</ele>
    <time>2025-11-08T15:54:34Z</time>
   </trkpt>
   <trkpt lat="53.3523010" lon="-6.2997140">
    <ele>29.1</ele>
    <time>2025-11-08T15:54:40Z</time>
   </trkpt>
   <trkpt lat="53.3522910" lon="-6.2996180">
    <ele>29.0</ele>
    <time>2025-11-08T15:54:48Z</time>
   </trkpt>
   <trkpt lat="53.3522700" lon="-6.2995060">
    <ele>29.0</ele>
    <time>2025-11-08T15:54:53Z</time>
   </trkpt>
   <trkpt lat="53.3522320" lon="-6.2993760">
    <ele>29.0</ele>
    <time>2025-11-08T15:55:00Z</time>
   </trkpt>
   <trkpt lat="53.3521900" lon="-6.2992500">
    <ele>29.0</ele>
    <time>2025-11-08T15:55:05Z</time>
   </trkpt>
   <trkpt lat="53.3521730" lon="-6.2991060">
    <ele>29.0</ele>
    <time>2025-11-08T15:55:11Z</time>
   </trkpt>
   <trkpt lat="53.3521370" lon="-6.2990330">
    <ele>29.2</ele>
    <time>2025-11-08T15:55:16Z</time>
   </trkpt>
   <trkpt lat="53.3521560" lon="-6.2989610">
    <ele>25.8</ele>
    <time>2025-11-08T15:56:01Z</time>
   </trkpt>
   <trkpt lat="53.3521570" lon="-6.2988490">
    <ele>26.9</ele>
    <time>2025-11-08T15:56:07Z</time>
   </trkpt>
   <trkpt lat="53.3521340" lon="-6.2986920">
    <ele>28.0</ele>
    <time>2025-11-08T15:56:12Z</time>
   </trkpt>
   <trkpt lat="53.3521070" lon="-6.2985500">
    <ele>28.7</ele>
    <time>2025-11-08T15:56:18Z</time>
   </trkpt>
   <trkpt lat="53.3520940" lon="-6.2984260">
    <ele>29.0</ele>
    <time>2025-11-08T15:56:24Z</time>
   </trkpt>
   <trkpt lat="53.3520660" lon="-6.2982980">
    <ele>29.0</ele>
    <time>2025-11-08T15:56:29Z</time>
   </trkpt>
   <trkpt lat="53.3519900" lon="-6.2982110">
    <ele>29.0</ele>
    <time>2025-11-08T15:56:35Z</time>
   </trkpt>
   <trkpt lat="53.3519260" lon="-6.2981650">
    <ele>29.0</ele>
    <time>2025-11-08T15:56:41Z</time>
   </trkpt>
   <trkpt lat="53.3518550" lon="-6.2981180">
    <ele>28.3</ele>
    <time>2025-11-08T15:56:46Z</time>
   </trkpt>
   <trkpt lat="53.3517880" lon="-6.2980580">
    <ele>27.8</ele>
    <time>2025-11-08T15:56:51Z</time>
   </trkpt>
   <trkpt lat="53.3517030" lon="-6.2980470">
    <ele>26.7</ele>
    <time>2025-11-08T15:56:57Z</time>
   </trkpt>
   <trkpt lat="53.3516680" lon="-6.2979820">
    <ele>25.5</ele>
    <time>2025-11-08T15:57:06Z</time>
   </trkpt>
   <trkpt lat="53.3516120" lon="-6.2979560">
    <ele>24.8</ele>
    <time>2025-11-08T15:57:11Z</time>
   </trkpt>
   <trkpt lat="53.3515510" lon="-6.2979010">
    <ele>24.2</ele>
    <time>2025-11-08T15:57:17Z</time>
   </trkpt>
   <trkpt lat="53.3515050" lon="-6.2978180">
    <ele>23.9</ele>
    <time>2025-11-08T15:57:22Z</time>
   </trkpt>
   <trkpt lat="53.3514490" lon="-6.2977610">
    <ele>23.7</ele>
    <time>2025-11-08T15:57:27Z</time>
   </trkpt>
   <trkpt lat="53.3513860" lon="-6.2977040">
    <ele>23.1</ele>
    <time>2025-11-08T15:57:33Z</time>
   </trkpt>
   <trkpt lat="53.3513200" lon="-6.2976420">
    <ele>22.6</ele>
    <time>2025-11-08T15:57:38Z</time>
   </trkpt>
   <trkpt lat="53.3512610" lon="-6.2975870">
    <ele>22.1</ele>
    <time>2025-11-08T15:57:44Z</time>
   </trkpt>
   <trkpt lat="53.3512010" lon="-6.2975350">
    <ele>21.7</ele>
    <time>2025-11-08T15:57:49Z</time>
   </trkpt>
   <trkpt lat="53.3511490" lon="-6.2974970">
    <ele>21.2</ele>
    <time>2025-11-08T15:57:54Z</time>
   </trkpt>
   <trkpt lat="53.3510880" lon="-6.2974640">
    <ele>20.5</ele>
    <time>2025-11-08T15:58:00Z</time>
   </trkpt>
   <trkpt lat="53.3510100" lon="-6.2974440">
    <ele>20.4</ele>
    <time>2025-11-08T15:58:05Z</time>
   </trkpt>
   <trkpt lat="53.3509220" lon="-6.2975040">
    <ele>19.8</ele>
    <time>2025-11-08T15:58:11Z</time>
   </trkpt>
   <trkpt lat="53.3508650" lon="-6.2975780">
    <ele>19.4</ele>
    <time>2025-11-08T15:58:16Z</time>
   </trkpt>
   <trkpt lat="53.3508190" lon="-6.2976630">
    <ele>18.8</ele>
    <time>2025-11-08T15:58:22Z</time>
   </trkpt>
   <trkpt lat="53.3507730" lon="-6.2977300">
    <ele>18.4</ele>
    <time>2025-11-08T15:58:27Z</time>
   </trkpt>
   <trkpt lat="53.3506920" lon="-6.2977780">
    <ele>17.8</ele>
    <time>2025-11-08T15:58:33Z</time>
   </trkpt>
   <trkpt lat="53.3506260" lon="-6.2978270">
    <ele>17.7</ele>
    <time>2025-11-08T15:58:38Z</time>
   </trkpt>
   <trkpt lat="53.3505580" lon="-6.2978920">
    <ele>17.8</ele>
    <time>2025-11-08T15:58:44Z</time>
   </trkpt>
   <trkpt lat="53.3504980" lon="-6.2979660">
    <ele>17.9</ele>
    <time>2025-11-08T15:58:50Z</time>
   </trkpt>
   <trkpt lat="53.3504540" lon="-6.2980400">
    <ele>18.1</ele>
    <time>2025-11-08T15:58:56Z</time>
   </trkpt>
   <trkpt lat="53.3504040" lon="-6.2981570">
    <ele>18.2</ele>
    <time>2025-11-08T15:59:01Z</time>
   </trkpt>
   <trkpt lat="53.3503680" lon="-6.2982630">
    <ele>18.4</ele>
    <time>2025-11-08T15:59:08Z</time>
   </trkpt>
   <trkpt lat="53.3503030" lon="-6.2983180">
    <ele>18.5</ele>
    <time>2025-11-08T15:59:13Z</time>
   </trkpt>
   <trkpt lat="53.3502260" lon="-6.2983480">
    <ele>18.7</ele>
    <time>2025-11-08T15:59:18Z</time>
   </trkpt>
   <trkpt lat="53.3501640" lon="-6.2983920">
    <ele>18.8</ele>
    <time>2025-11-08T15:59:24Z</time>
   </trkpt>
   <trkpt lat="53.3500980" lon="-6.2984300">
    <ele>18.8</ele>
    <time>2025-11-08T15:59:30Z</time>
   </trkpt>
   <trkpt lat="53.3500590" lon="-6.2984980">
    <ele>19.3</ele>
    <time>2025-11-08T15:59:36Z</time>
   </trkpt>
   <trkpt lat="53.3500310" lon="-6.2985730">
    <ele>20.1</ele>
    <time>2025-11-08T15:59:41Z</time>
   </trkpt>
   <trkpt lat="53.3500080" lon="-6.2986430">
    <ele>22.0</ele>
    <time>2025-11-08T15:59:48Z</time>
   </trkpt>
   <trkpt lat="53.3499850" lon="-6.2987140">
    <ele>22.8</ele>
    <time>2025-11-08T15:59:54Z</time>
   </trkpt>
   <trkpt lat="53.3499530" lon="-6.2987660">
    <ele>23.7</ele>
    <time>2025-11-08T15:59:59Z</time>
   </trkpt>
   <trkpt lat="53.3499170" lon="-6.2988230">
    <ele>25.1</ele>
    <time>2025-11-08T16:00:05Z</time>
   </trkpt>
   <trkpt lat="53.3498730" lon="-6.2988480">
    <ele>26.2</ele>
    <time>2025-11-08T16:00:11Z</time>
   </trkpt>
   <trkpt lat="53.3498160" lon="-6.2988130">
    <ele>25.1</ele>
    <time>2025-11-08T16:00:17Z</time>
   </trkpt>
   <trkpt lat="53.3497390" lon="-6.2987620">
    <ele>24.2</ele>
    <time>2025-11-08T16:00:23Z</time>
   </trkpt>
   <trkpt lat="53.3496890" lon="-6.2987150">
    <ele>23.8</ele>
    <time>2025-11-08T16:00:29Z</time>
   </trkpt>
   <trkpt lat="53.3496160" lon="-6.2986660">
    <ele>23.6</ele>
    <time>2025-11-08T16:00:34Z</time>
   </trkpt>
   <trkpt lat="53.3495330" lon="-6.2985700">
    <ele>23.5</ele>
    <time>2025-11-08T16:00:40Z</time>
   </trkpt>
   <trkpt lat="53.3494710" lon="-6.2984890">
    <ele>23.4</ele>
    <time>2025-11-08T16:00:46Z</time>
   </trkpt>
   <trkpt lat="53.3494310" lon="-6.2984390">
    <ele>23.3</ele>
    <time>2025-11-08T16:00:51Z</time>
   </trkpt>
   <trkpt lat="53.3493900" lon="-6.2983770">
    <ele>19.5</ele>
    <time>2025-11-08T16:01:32Z</time>
   </trkpt>
   <trkpt lat="53.3493370" lon="-6.2983530">
    <ele>19.5</ele>
    <time>2025-11-08T16:02:03Z</time>
   </trkpt>
   <trkpt lat="53.3493120" lon="-6.2982870">
    <ele>19.9</ele>
    <time>2025-11-08T16:02:08Z</time>
   </trkpt>
   <trkpt lat="53.3492820" lon="-6.2982080">
    <ele>19.0</ele>
    <time>2025-11-08T16:02:47Z</time>
   </trkpt>
   <trkpt lat="53.3492350" lon="-6.2981630">
    <ele>19.8</ele>
    <time>2025-11-08T16:02:54Z</time>
   </trkpt>
   <trkpt lat="53.3492110" lon="-6.2980920">
    <ele>20.5</ele>
    <time>2025-11-08T16:02:59Z</time>
   </trkpt>
   <trkpt lat="53.3491640" lon="-6.2980380">
    <ele>19.2</ele>
    <time>2025-11-08T16:03:12Z</time>
   </trkpt>
   <trkpt lat="53.3491390" lon="-6.2979690">
    <ele>20.1</ele>
    <time>2025-11-08T16:03:19Z</time>
   </trkpt>
   <trkpt lat="53.3490880" lon="-6.2978860">
    <ele>20.3</ele>
    <time>2025-11-08T16:03:24Z</time>
   </trkpt>
   <trkpt lat="53.3490410" lon="-6.2977960">
    <ele>20.3</ele>
    <time>2025-11-08T16:03:30Z</time>
   </trkpt>
   <trkpt lat="53.3489950" lon="-6.2977200">
    <ele>20.4</ele>
    <time>2025-11-08T16:03:36Z</time>
   </trkpt>
   <trkpt lat="53.3489510" lon="-6.2976210">
    <ele>20.2</ele>
    <time>2025-11-08T16:03:41Z</time>
   </trkpt>
   <trkpt lat="53.3489060" lon="-6.2975070">
    <ele>20.0</ele>
    <time>2025-11-08T16:03:47Z</time>
   </trkpt>
   <trkpt lat="53.3488770" lon="-6.2974300">
    <ele>19.6</ele>
    <time>2025-11-08T16:03:52Z</time>
   </trkpt>
   <trkpt lat="53.3488150" lon="-6.2973800">
    <ele>19.3</ele>
    <time>2025-11-08T16:03:58Z</time>
   </trkpt>
   <trkpt lat="53.3487470" lon="-6.2973570">
    <ele>18.7</ele>
    <time>2025-11-08T16:04:03Z</time>
   </trkpt>
   <trkpt lat="53.3486910" lon="-6.2973410">
    <ele>17.5</ele>
    <time>2025-11-08T16:04:08Z</time>
   </trkpt>
   <trkpt lat="53.3486370" lon="-6.2972450">
    <ele>16.8</ele>
    <time>2025-11-08T16:04:14Z</time>
   </trkpt>
   <trkpt lat="53.3485930" lon="-6.2971140">
    <ele>16.6</ele>
    <time>2025-11-08T16:04:20Z</time>
   </trkpt>
   <trkpt lat="53.3485600" lon="-6.2970010">
    <ele>16.3</ele>
    <time>2025-11-08T16:04:25Z</time>
   </trkpt>
   <trkpt lat="53.3485090" lon="-6.2968680">
    <ele>16.0</ele>
    <time>2025-11-08T16:04:31Z</time>
   </trkpt>
   <trkpt lat="53.3484540" lon="-6.2967380">
    <ele>14.8</ele>
    <time>2025-11-08T16:04:37Z</time>
   </trkpt>
   <trkpt lat="53.3484270" lon="-6.2966620">
    <ele>14.0</ele>
    <time>2025-11-08T16:04:43Z</time>
   </trkpt>
   <trkpt lat="53.3484040" lon="-6.2965950">
    <ele>13.6</ele>
    <time>2025-11-08T16:04:48Z</time>
   </trkpt>
   <trkpt lat="53.3483810" lon="-6.2965030">
    <ele>13.4</ele>
    <time>2025-11-08T16:04:54Z</time>
   </trkpt>
   <trkpt lat="53.3483350" lon="-6.2963750">
    <ele>13.1</ele>
    <time>2025-11-08T16:05:02Z</time>
   </trkpt>
   <trkpt lat="53.3482770" lon="-6.2963080">
    <ele>12.9</ele>
    <time>2025-11-08T16:05:08Z</time>
   </trkpt>
   <trkpt lat="53.3482340" lon="-6.2962380">
    <ele>12.7</ele>
    <time>2025-11-08T16:05:13Z</time>
   </trkpt>
   <trkpt lat="53.3482290" lon="-6.2960990">
    <ele>13.0</ele>
    <time>2025-11-08T16:05:18Z</time>
   </trkpt>
   <trkpt lat="53.3482830" lon="-6.2958270">
    <ele>12.9</ele>
    <time>2025-11-08T16:05:24Z</time>
   </trkpt>
   <trkpt lat="53.3483250" lon="-6.2956820">
    <ele>12.8</ele>
    <time>2025-11-08T16:05:30Z</time>
   </trkpt>
   <trkpt lat="53.3483420" lon="-6.2955650">
    <ele>12.9</ele>
    <time>2025-11-08T16:05:35Z</time>
   </trkpt>
   <trkpt lat="53.3483540" lon="-6.2953820">
    <ele>12.5</ele>
    <time>2025-11-08T16:05:42Z</time>
   </trkpt>
   <trkpt lat="53.3483750" lon="-6.2952880">
    <ele>12.2</ele>
    <time>2025-11-08T16:05:48Z</time>
   </trkpt>
   <trkpt lat="53.3483240" lon="-6.2952570">
    <ele>10.6</ele>
    <time>2025-11-08T16:05:57Z</time>
   </trkpt>
   <trkpt lat="53.3482950" lon="-6.2951910">
    <ele>8.8</ele>
    <time>2025-11-08T16:06:15Z</time>
   </trkpt>
   <trkpt lat="53.3483020" lon="-6.2950570">
    <ele>10.2</ele>
    <time>2025-11-08T16:06:20Z</time>
   </trkpt>
   <trkpt lat="53.3483090" lon="-6.2949720">
    <ele>10.9</ele>
    <time>2025-11-08T16:06:25Z</time>
   </trkpt>
   <trkpt lat="53.3482820" lon="-6.2948810">
    <ele>11.3</ele>
    <time>2025-11-08T16:06:31Z</time>
   </trkpt>
   <trkpt lat="53.3481850" lon="-6.2948830">
    <ele>11.2</ele>
    <time>2025-11-08T16:06:38Z</time>
   </trkpt>
   <trkpt lat="53.3481540" lon="-6.2948210">
    <ele>10.7</ele>
    <time>2025-11-08T16:06:43Z</time>
   </trkpt>
   <trkpt lat="53.3481050" lon="-6.2948240">
    <ele>10.5</ele>
    <time>2025-11-08T16:06:49Z</time>
   </trkpt>
   <trkpt lat="53.3480360" lon="-6.2947890">
    <ele>10.5</ele>
    <time>2025-11-08T16:06:54Z</time>
   </trkpt>
   <trkpt lat="53.3480170" lon="-6.2946340">
    <ele>10.0</ele>
    <time>2025-11-08T16:07:00Z</time>
   </trkpt>
   <trkpt lat="53.3480250" lon="-6.2945390">
    <ele>9.7</ele>
    <time>2025-11-08T16:07:05Z</time>
   </trkpt>
   <trkpt lat="53.3480190" lon="-6.2944330">
    <ele>9.4</ele>
    <time>2025-11-08T16:07:10Z</time>
   </trkpt>
   <trkpt lat="53.3480140" lon="-6.2942810">
    <ele>9.1</ele>
    <time>2025-11-08T16:07:16Z</time>
   </trkpt>
   <trkpt lat="53.3480060" lon="-6.2941650">
    <ele>9.0</ele>
    <time>2025-11-08T16:07:21Z</time>
   </trkpt>
   <trkpt lat="53.3479940" lon="-6.2940110">
    <ele>8.8</ele>
    <time>2025-11-08T16:07:27Z</time>
   </trkpt>
   <trkpt lat="53.3479880" lon="-6.2939110">
    <ele>8.7</ele>
    <time>2025-11-08T16:07:33Z</time>
   </trkpt>
   <trkpt lat="53.3479800" lon="-6.2938010">
    <ele>8.8</ele>
    <time>2025-11-08T16:07:38Z</time>
   </trkpt>
   <trkpt lat="53.3479680" lon="-6.2937170">
    <ele>8.7</ele>
    <time>2025-11-08T16:07:44Z</time>
   </trkpt>
   <trkpt lat="53.3479680" lon="-6.2936060">
    <ele>8.5</ele>
    <time>2025-11-08T16:07:49Z</time>
   </trkpt>
   <trkpt lat="53.3479650" lon="-6.2934350">
    <ele>7.8</ele>
    <time>2025-11-08T16:07:55Z</time>
   </trkpt>
   <trkpt lat="53.3479630" lon="-6.2933300">
    <ele>7.6</ele>
    <time>2025-11-08T16:08:00Z</time>
   </trkpt>
   <trkpt lat="53.3479470" lon="-6.2931840">
    <ele>7.6</ele>
    <time>2025-11-08T16:08:05Z</time>
   </trkpt>
   <trkpt lat="53.3479120" lon="-6.2930400">
    <ele>7.4</ele>
    <time>2025-11-08T16:08:10Z</time>
   </trkpt>
   <trkpt lat="53.3478870" lon="-6.2929130">
    <ele>7.3</ele>
    <time>2025-11-08T16:08:16Z</time>
   </trkpt>
   <trkpt lat="53.3478700" lon="-6.2928350">
    <ele>7.3</ele>
    <time>2025-11-08T16:08:22Z</time>
   </trkpt>
   <trkpt lat="53.3478530" lon="-6.2927410">
    <ele>7.3</ele>
    <time>2025-11-08T16:08:27Z</time>
   </trkpt>
   <trkpt lat="53.3478320" lon="-6.2926590">
    <ele>7.3</ele>
    <time>2025-11-08T16:08:35Z</time>
   </trkpt>
   <trkpt lat="53.3477990" lon="-6.2925390">
    <ele>7.3</ele>
    <time>2025-11-08T16:08:41Z</time>
   </trkpt>
   <trkpt lat="53.3477450" lon="-6.2924730">
    <ele>7.3</ele>
    <time>2025-11-08T16:08:47Z</time>
   </trkpt>
   <trkpt lat="53.3476850" lon="-6.2923850">
    <ele>7.3</ele>
    <time>2025-11-08T16:08:52Z</time>
   </trkpt>
   <trkpt lat="53.3476880" lon="-6.2923000">
    <ele>7.3</ele>
    <time>2025-11-08T16:08:57Z</time>
   </trkpt>
   <trkpt lat="53.3476790" lon="-6.2921780">
    <ele>7.4</ele>
    <time>2025-11-08T16:09:02Z</time>
   </trkpt>
   <trkpt lat="53.3476710" lon="-6.2920370">
    <ele>7.6</ele>
    <time>2025-11-08T16:09:08Z</time>
   </trkpt>
   <trkpt lat="53.3476420" lon="-6.2919600">
    <ele>7.7</ele>
    <time>2025-11-08T16:09:14Z</time>
   </trkpt>
   <trkpt lat="53.3475840" lon="-6.2919330">
    <ele>7.5</ele>
    <time>2025-11-08T16:09:19Z</time>
   </trkpt>
   <trkpt lat="53.3475270" lon="-6.2919100">
    <ele>3.6</ele>
    <time>2025-11-08T16:09:35Z</time>
   </trkpt>
   <trkpt lat="53.3474310" lon="-6.2918870">
    <ele>4.8</ele>
    <time>2025-11-08T16:09:41Z</time>
   </trkpt>
   <trkpt lat="53.3473570" lon="-6.2918840">
    <ele>6.6</ele>
    <time>2025-11-08T16:09:46Z</time>
   </trkpt>
   <trkpt lat="53.3472750" lon="-6.2918690">
    <ele>7.0</ele>
    <time>2025-11-08T16:09:51Z</time>
   </trkpt>
   <trkpt lat="53.3472080" lon="-6.2918540">
    <ele>7.2</ele>
    <time>2025-11-08T16:09:56Z</time>
   </trkpt>
   <trkpt lat="53.3471250" lon="-6.2918680">
    <ele>7.2</ele>
    <time>2025-11-08T16:10:02Z</time>
   </trkpt>
   <trkpt lat="53.3470740" lon="-6.2919350">
    <ele>7.5</ele>
    <time>2025-11-08T16:10:07Z</time>
   </trkpt>
   <trkpt lat="53.3470240" lon="-6.2919410">
    <ele>7.6</ele>
    <time>2025-11-08T16:10:13Z</time>
   </trkpt>
   <trkpt lat="53.3469610" lon="-6.2919460">
    <ele>7.5</ele>
    <time>2025-11-08T16:10:18Z</time>
   </trkpt>
   <trkpt lat="53.3468990" lon="-6.2919450">
    <ele>6.9</ele>
    <time>2025-11-08T16:10:24Z</time>
   </trkpt>
   <trkpt lat="53.3468240" lon="-6.2918950">
    <ele>5.1</ele>
    <time>2025-11-08T16:10:30Z</time>
   </trkpt>
  </trkseg>
 </trk>
</gpx>
